<?xml version="1.0" encoding="UTF-8" standalone="no" ?>
<gpx xmlns="http://www.topografix.com/GPX/1/1" xmlns:xsi="http://www.w3.org/2001/XMLSchema-instance" xsi:schemaLocation="http://www.topografix.com/GPX/1/1 http://www.topografix.com/GPX/1/1/gpx.xsd" version="1.1" creator="VisuGPX - https://www.visugpx.com">
  <metadata>
    <name>Limonest +</name>
    <desc><![CDATA[panne de cassette]]></desc>
  </metadata>
  <trk>
    <name><![CDATA[2023 06 10]]></name>
    <desc><![CDATA[panne de cassette]]></desc>
    <trkseg>
      <trkpt lat="45.83306" lon="4.70991">
        <ele>309.99945</ele>
        <time>2023-06-10T07:54:35.337Z</time>
      </trkpt>
      <trkpt lat="45.83306" lon="4.70994">
        <ele>310.94647</ele>
        <time>2023-06-10T07:54:51.000Z</time>
      </trkpt>
      <trkpt lat="45.83305" lon="4.70998">
        <ele>311.03314</ele>
        <time>2023-06-10T07:54:53.000Z</time>
      </trkpt>
      <trkpt lat="45.83306" lon="4.71001">
        <ele>310.98245</ele>
        <time>2023-06-10T07:54:54.000Z</time>
      </trkpt>
      <trkpt lat="45.83308" lon="4.71003">
        <ele>310.94858</ele>
        <time>2023-06-10T07:54:55.000Z</time>
      </trkpt>
      <trkpt lat="45.83311" lon="4.71002">
        <ele>310.89743</ele>
        <time>2023-06-10T07:54:56.000Z</time>
      </trkpt>
      <trkpt lat="45.83314" lon="4.71001">
        <ele>310.8877</ele>
        <time>2023-06-10T07:54:57.000Z</time>
      </trkpt>
      <trkpt lat="45.83317" lon="4.71">
        <ele>310.84869</ele>
        <time>2023-06-10T07:54:58.000Z</time>
      </trkpt>
      <trkpt lat="45.8332" lon="4.70999">
        <ele>310.81995</ele>
        <time>2023-06-10T07:54:59.000Z</time>
      </trkpt>
      <trkpt lat="45.83323" lon="4.70999">
        <ele>310.78094</ele>
        <time>2023-06-10T07:55:00.000Z</time>
      </trkpt>
      <trkpt lat="45.83326" lon="4.71">
        <ele>310.70023</ele>
        <time>2023-06-10T07:55:01.000Z</time>
      </trkpt>
      <trkpt lat="45.83329" lon="4.71">
        <ele>310.57382</ele>
        <time>2023-06-10T07:55:02.000Z</time>
      </trkpt>
      <trkpt lat="45.83333" lon="4.71">
        <ele>310.42215</ele>
        <time>2023-06-10T07:55:03.000Z</time>
      </trkpt>
      <trkpt lat="45.83336" lon="4.71">
        <ele>310.27896</ele>
        <time>2023-06-10T07:55:04.000Z</time>
      </trkpt>
      <trkpt lat="45.8334" lon="4.70999">
        <ele>310.14481</ele>
        <time>2023-06-10T07:55:05.000Z</time>
      </trkpt>
      <trkpt lat="45.83345" lon="4.70999">
        <ele>310.00415</ele>
        <time>2023-06-10T07:55:06.000Z</time>
      </trkpt>
      <trkpt lat="45.83349" lon="4.70998">
        <ele>309.87277</ele>
        <time>2023-06-10T07:55:07.000Z</time>
      </trkpt>
      <trkpt lat="45.83354" lon="4.70997">
        <ele>309.75812</ele>
        <time>2023-06-10T07:55:08.000Z</time>
      </trkpt>
      <trkpt lat="45.83359" lon="4.70997">
        <ele>309.65469</ele>
        <time>2023-06-10T07:55:09.000Z</time>
      </trkpt>
      <trkpt lat="45.83364" lon="4.70996">
        <ele>309.58426</ele>
        <time>2023-06-10T07:55:10.000Z</time>
      </trkpt>
      <trkpt lat="45.83368" lon="4.70996">
        <ele>309.4931</ele>
        <time>2023-06-10T07:55:11.000Z</time>
      </trkpt>
      <trkpt lat="45.83373" lon="4.70995">
        <ele>309.31061</ele>
        <time>2023-06-10T07:55:12.000Z</time>
      </trkpt>
      <trkpt lat="45.83378" lon="4.70994">
        <ele>309.19781</ele>
        <time>2023-06-10T07:55:13.000Z</time>
      </trkpt>
      <trkpt lat="45.83382" lon="4.70993">
        <ele>309.13791</ele>
        <time>2023-06-10T07:55:14.000Z</time>
      </trkpt>
      <trkpt lat="45.83387" lon="4.70991">
        <ele>309.07269</ele>
        <time>2023-06-10T07:55:15.000Z</time>
      </trkpt>
      <trkpt lat="45.83392" lon="4.7099">
        <ele>309.02008</ele>
        <time>2023-06-10T07:55:16.000Z</time>
      </trkpt>
      <trkpt lat="45.83397" lon="4.70989">
        <ele>308.95523</ele>
        <time>2023-06-10T07:55:17.000Z</time>
      </trkpt>
      <trkpt lat="45.83402" lon="4.70988">
        <ele>308.87653</ele>
        <time>2023-06-10T07:55:18.000Z</time>
      </trkpt>
      <trkpt lat="45.83408" lon="4.70988">
        <ele>308.72116</ele>
        <time>2023-06-10T07:55:19.000Z</time>
      </trkpt>
      <trkpt lat="45.83413" lon="4.70987">
        <ele>308.5817</ele>
        <time>2023-06-10T07:55:20.000Z</time>
      </trkpt>
      <trkpt lat="45.83418" lon="4.70987">
        <ele>308.46472</ele>
        <time>2023-06-10T07:55:21.000Z</time>
      </trkpt>
      <trkpt lat="45.83423" lon="4.70987">
        <ele>308.36047</ele>
        <time>2023-06-10T07:55:22.000Z</time>
      </trkpt>
      <trkpt lat="45.83429" lon="4.70987">
        <ele>308.28427</ele>
        <time>2023-06-10T07:55:23.000Z</time>
      </trkpt>
      <trkpt lat="45.83435" lon="4.70987">
        <ele>308.19897</ele>
        <time>2023-06-10T07:55:24.000Z</time>
      </trkpt>
      <trkpt lat="45.83441" lon="4.70986">
        <ele>308.09799</ele>
        <time>2023-06-10T07:55:25.000Z</time>
      </trkpt>
      <trkpt lat="45.83448" lon="4.70986">
        <ele>308.01331</ele>
        <time>2023-06-10T07:55:26.000Z</time>
      </trkpt>
      <trkpt lat="45.83455" lon="4.70986">
        <ele>307.90332</ele>
        <time>2023-06-10T07:55:27.000Z</time>
      </trkpt>
      <trkpt lat="45.83462" lon="4.70987">
        <ele>307.78726</ele>
        <time>2023-06-10T07:55:28.000Z</time>
      </trkpt>
      <trkpt lat="45.8347" lon="4.70987">
        <ele>307.59433</ele>
        <time>2023-06-10T07:55:29.000Z</time>
      </trkpt>
      <trkpt lat="45.83478" lon="4.70988">
        <ele>307.32684</ele>
        <time>2023-06-10T07:55:30.000Z</time>
      </trkpt>
      <trkpt lat="45.83485" lon="4.70987">
        <ele>307.05182</ele>
        <time>2023-06-10T07:55:31.000Z</time>
      </trkpt>
      <trkpt lat="45.83492" lon="4.70988">
        <ele>306.77216</ele>
        <time>2023-06-10T07:55:32.000Z</time>
      </trkpt>
      <trkpt lat="45.83498" lon="4.70989">
        <ele>306.47321</ele>
        <time>2023-06-10T07:55:33.000Z</time>
      </trkpt>
      <trkpt lat="45.83506" lon="4.7099">
        <ele>306.13519</ele>
        <time>2023-06-10T07:55:34.000Z</time>
      </trkpt>
      <trkpt lat="45.83512" lon="4.70993">
        <ele>305.78741</ele>
        <time>2023-06-10T07:55:35.000Z</time>
      </trkpt>
      <trkpt lat="45.83519" lon="4.70997">
        <ele>305.42984</ele>
        <time>2023-06-10T07:55:36.000Z</time>
      </trkpt>
      <trkpt lat="45.83525" lon="4.71001">
        <ele>305.09753</ele>
        <time>2023-06-10T07:55:37.000Z</time>
      </trkpt>
      <trkpt lat="45.83531" lon="4.71005">
        <ele>304.75665</ele>
        <time>2023-06-10T07:55:38.000Z</time>
      </trkpt>
      <trkpt lat="45.83537" lon="4.71011">
        <ele>304.49561</ele>
        <time>2023-06-10T07:55:39.000Z</time>
      </trkpt>
      <trkpt lat="45.83543" lon="4.71016">
        <ele>304.25507</ele>
        <time>2023-06-10T07:55:40.000Z</time>
      </trkpt>
      <trkpt lat="45.83549" lon="4.71021">
        <ele>304.00177</ele>
        <time>2023-06-10T07:55:41.000Z</time>
      </trkpt>
      <trkpt lat="45.83555" lon="4.71025">
        <ele>303.7392</ele>
        <time>2023-06-10T07:55:42.000Z</time>
      </trkpt>
      <trkpt lat="45.83561" lon="4.7103">
        <ele>303.46616</ele>
        <time>2023-06-10T07:55:43.000Z</time>
      </trkpt>
      <trkpt lat="45.83567" lon="4.71035">
        <ele>303.21216</ele>
        <time>2023-06-10T07:55:44.000Z</time>
      </trkpt>
      <trkpt lat="45.83574" lon="4.7104">
        <ele>302.9769</ele>
        <time>2023-06-10T07:55:45.000Z</time>
      </trkpt>
      <trkpt lat="45.8358" lon="4.71043">
        <ele>302.70953</ele>
        <time>2023-06-10T07:55:46.000Z</time>
      </trkpt>
      <trkpt lat="45.83587" lon="4.71048">
        <ele>302.55524</ele>
        <time>2023-06-10T07:55:47.000Z</time>
      </trkpt>
      <trkpt lat="45.83593" lon="4.71052">
        <ele>302.39609</ele>
        <time>2023-06-10T07:55:48.000Z</time>
      </trkpt>
      <trkpt lat="45.83599" lon="4.71056">
        <ele>302.29007</ele>
        <time>2023-06-10T07:55:49.000Z</time>
      </trkpt>
      <trkpt lat="45.83606" lon="4.71061">
        <ele>302.19141</ele>
        <time>2023-06-10T07:55:50.000Z</time>
      </trkpt>
      <trkpt lat="45.83613" lon="4.71066">
        <ele>302.06796</ele>
        <time>2023-06-10T07:55:51.000Z</time>
      </trkpt>
      <trkpt lat="45.83618" lon="4.71072">
        <ele>301.92233</ele>
        <time>2023-06-10T07:55:52.000Z</time>
      </trkpt>
      <trkpt lat="45.83624" lon="4.71077">
        <ele>301.74051</ele>
        <time>2023-06-10T07:55:53.000Z</time>
      </trkpt>
      <trkpt lat="45.8363" lon="4.71083">
        <ele>301.57584</ele>
        <time>2023-06-10T07:55:54.000Z</time>
      </trkpt>
      <trkpt lat="45.83636" lon="4.71089">
        <ele>301.42514</ele>
        <time>2023-06-10T07:55:55.000Z</time>
      </trkpt>
      <trkpt lat="45.83642" lon="4.71095">
        <ele>301.26584</ele>
        <time>2023-06-10T07:55:56.000Z</time>
      </trkpt>
      <trkpt lat="45.83649" lon="4.71101">
        <ele>301.05759</ele>
        <time>2023-06-10T07:55:57.000Z</time>
      </trkpt>
      <trkpt lat="45.83656" lon="4.71106">
        <ele>300.83557</ele>
        <time>2023-06-10T07:55:58.000Z</time>
      </trkpt>
      <trkpt lat="45.83662" lon="4.71112">
        <ele>300.61029</ele>
        <time>2023-06-10T07:55:59.000Z</time>
      </trkpt>
      <trkpt lat="45.83669" lon="4.71118">
        <ele>300.38315</ele>
        <time>2023-06-10T07:56:00.000Z</time>
      </trkpt>
      <trkpt lat="45.83675" lon="4.71124">
        <ele>300.14792</ele>
        <time>2023-06-10T07:56:01.000Z</time>
      </trkpt>
      <trkpt lat="45.83682" lon="4.71131">
        <ele>299.90561</ele>
        <time>2023-06-10T07:56:02.000Z</time>
      </trkpt>
      <trkpt lat="45.83688" lon="4.71136">
        <ele>299.66531</ele>
        <time>2023-06-10T07:56:03.000Z</time>
      </trkpt>
      <trkpt lat="45.83694" lon="4.7114">
        <ele>299.41351</ele>
        <time>2023-06-10T07:56:04.000Z</time>
      </trkpt>
      <trkpt lat="45.83698" lon="4.71146">
        <ele>299.15063</ele>
        <time>2023-06-10T07:56:05.000Z</time>
      </trkpt>
      <trkpt lat="45.837" lon="4.71152">
        <ele>298.91791</ele>
        <time>2023-06-10T07:56:06.000Z</time>
      </trkpt>
      <trkpt lat="45.83698" lon="4.71159">
        <ele>298.59039</ele>
        <time>2023-06-10T07:56:07.000Z</time>
      </trkpt>
      <trkpt lat="45.83695" lon="4.71165">
        <ele>298.23773</ele>
        <time>2023-06-10T07:56:08.000Z</time>
      </trkpt>
      <trkpt lat="45.83693" lon="4.71172">
        <ele>297.9216</ele>
        <time>2023-06-10T07:56:09.000Z</time>
      </trkpt>
      <trkpt lat="45.83691" lon="4.71179">
        <ele>297.63345</ele>
        <time>2023-06-10T07:56:10.000Z</time>
      </trkpt>
      <trkpt lat="45.83689" lon="4.71186">
        <ele>297.37756</ele>
        <time>2023-06-10T07:56:11.000Z</time>
      </trkpt>
      <trkpt lat="45.83687" lon="4.71193">
        <ele>297.14917</ele>
        <time>2023-06-10T07:56:12.000Z</time>
      </trkpt>
      <trkpt lat="45.83684" lon="4.712">
        <ele>296.94357</ele>
        <time>2023-06-10T07:56:13.000Z</time>
      </trkpt>
      <trkpt lat="45.83683" lon="4.71208">
        <ele>296.74078</ele>
        <time>2023-06-10T07:56:14.000Z</time>
      </trkpt>
      <trkpt lat="45.8368" lon="4.71216">
        <ele>296.5209</ele>
        <time>2023-06-10T07:56:15.000Z</time>
      </trkpt>
      <trkpt lat="45.83679" lon="4.71224">
        <ele>296.3298</ele>
        <time>2023-06-10T07:56:16.000Z</time>
      </trkpt>
      <trkpt lat="45.83678" lon="4.71232">
        <ele>296.16296</ele>
        <time>2023-06-10T07:56:17.000Z</time>
      </trkpt>
      <trkpt lat="45.83676" lon="4.7124">
        <ele>296.02194</ele>
        <time>2023-06-10T07:56:18.000Z</time>
      </trkpt>
      <trkpt lat="45.83674" lon="4.71246">
        <ele>295.89182</ele>
        <time>2023-06-10T07:56:19.000Z</time>
      </trkpt>
      <trkpt lat="45.83675" lon="4.71252">
        <ele>295.73846</ele>
        <time>2023-06-10T07:56:20.000Z</time>
      </trkpt>
      <trkpt lat="45.83675" lon="4.71259">
        <ele>295.67752</ele>
        <time>2023-06-10T07:56:21.000Z</time>
      </trkpt>
      <trkpt lat="45.83673" lon="4.71265">
        <ele>295.71802</ele>
        <time>2023-06-10T07:56:22.000Z</time>
      </trkpt>
      <trkpt lat="45.83672" lon="4.71271">
        <ele>295.71371</ele>
        <time>2023-06-10T07:56:23.000Z</time>
      </trkpt>
      <trkpt lat="45.83669" lon="4.71278">
        <ele>295.58292</ele>
        <time>2023-06-10T07:56:24.000Z</time>
      </trkpt>
      <trkpt lat="45.83666" lon="4.71285">
        <ele>295.46341</ele>
        <time>2023-06-10T07:56:25.000Z</time>
      </trkpt>
      <trkpt lat="45.83664" lon="4.71292">
        <ele>295.38156</ele>
        <time>2023-06-10T07:56:26.000Z</time>
      </trkpt>
      <trkpt lat="45.83662" lon="4.71299">
        <ele>295.3121</ele>
        <time>2023-06-10T07:56:27.000Z</time>
      </trkpt>
      <trkpt lat="45.83661" lon="4.71307">
        <ele>295.29132</ele>
        <time>2023-06-10T07:56:28.000Z</time>
      </trkpt>
      <trkpt lat="45.83659" lon="4.71316">
        <ele>295.32352</ele>
        <time>2023-06-10T07:56:29.000Z</time>
      </trkpt>
      <trkpt lat="45.83657" lon="4.71323">
        <ele>295.37445</ele>
        <time>2023-06-10T07:56:30.000Z</time>
      </trkpt>
      <trkpt lat="45.83654" lon="4.71332">
        <ele>295.43927</ele>
        <time>2023-06-10T07:56:31.000Z</time>
      </trkpt>
      <trkpt lat="45.83651" lon="4.71339">
        <ele>295.51108</ele>
        <time>2023-06-10T07:56:32.000Z</time>
      </trkpt>
      <trkpt lat="45.8365" lon="4.71346">
        <ele>295.61053</ele>
        <time>2023-06-10T07:56:33.000Z</time>
      </trkpt>
      <trkpt lat="45.83648" lon="4.71354">
        <ele>295.70096</ele>
        <time>2023-06-10T07:56:34.000Z</time>
      </trkpt>
      <trkpt lat="45.83646" lon="4.71362">
        <ele>295.69183</ele>
        <time>2023-06-10T07:56:35.000Z</time>
      </trkpt>
      <trkpt lat="45.83645" lon="4.7137">
        <ele>295.68903</ele>
        <time>2023-06-10T07:56:36.000Z</time>
      </trkpt>
      <trkpt lat="45.83644" lon="4.71378">
        <ele>295.70416</ele>
        <time>2023-06-10T07:56:37.000Z</time>
      </trkpt>
      <trkpt lat="45.83642" lon="4.71386">
        <ele>295.74374</ele>
        <time>2023-06-10T07:56:38.000Z</time>
      </trkpt>
      <trkpt lat="45.83641" lon="4.71393">
        <ele>295.78302</ele>
        <time>2023-06-10T07:56:39.000Z</time>
      </trkpt>
      <trkpt lat="45.83639" lon="4.714">
        <ele>295.83511</ele>
        <time>2023-06-10T07:56:40.000Z</time>
      </trkpt>
      <trkpt lat="45.83637" lon="4.71408">
        <ele>295.81326</ele>
        <time>2023-06-10T07:56:41.000Z</time>
      </trkpt>
      <trkpt lat="45.83636" lon="4.71416">
        <ele>295.70313</ele>
        <time>2023-06-10T07:56:42.000Z</time>
      </trkpt>
      <trkpt lat="45.83635" lon="4.71424">
        <ele>295.64194</ele>
        <time>2023-06-10T07:56:43.000Z</time>
      </trkpt>
      <trkpt lat="45.83633" lon="4.71433">
        <ele>295.71576</ele>
        <time>2023-06-10T07:56:44.000Z</time>
      </trkpt>
      <trkpt lat="45.8363" lon="4.71441">
        <ele>295.78656</ele>
        <time>2023-06-10T07:56:45.000Z</time>
      </trkpt>
      <trkpt lat="45.83628" lon="4.71448">
        <ele>295.82123</ele>
        <time>2023-06-10T07:56:46.000Z</time>
      </trkpt>
      <trkpt lat="45.83625" lon="4.71456">
        <ele>295.83728</ele>
        <time>2023-06-10T07:56:47.000Z</time>
      </trkpt>
      <trkpt lat="45.83622" lon="4.71463">
        <ele>295.81851</ele>
        <time>2023-06-10T07:56:48.000Z</time>
      </trkpt>
      <trkpt lat="45.83619" lon="4.7147">
        <ele>295.74728</ele>
        <time>2023-06-10T07:56:49.000Z</time>
      </trkpt>
      <trkpt lat="45.83615" lon="4.71477">
        <ele>295.65811</ele>
        <time>2023-06-10T07:56:50.000Z</time>
      </trkpt>
      <trkpt lat="45.8361" lon="4.71482">
        <ele>295.55182</ele>
        <time>2023-06-10T07:56:51.000Z</time>
      </trkpt>
      <trkpt lat="45.83608" lon="4.7149">
        <ele>295.50677</ele>
        <time>2023-06-10T07:56:52.000Z</time>
      </trkpt>
      <trkpt lat="45.83609" lon="4.71498">
        <ele>295.4332</ele>
        <time>2023-06-10T07:56:53.000Z</time>
      </trkpt>
      <trkpt lat="45.83611" lon="4.71506">
        <ele>295.38013</ele>
        <time>2023-06-10T07:56:54.000Z</time>
      </trkpt>
      <trkpt lat="45.83615" lon="4.71515">
        <ele>295.45947</ele>
        <time>2023-06-10T07:56:55.000Z</time>
      </trkpt>
      <trkpt lat="45.83617" lon="4.71523">
        <ele>295.49017</ele>
        <time>2023-06-10T07:56:56.000Z</time>
      </trkpt>
      <trkpt lat="45.8362" lon="4.71531">
        <ele>295.53986</ele>
        <time>2023-06-10T07:56:57.000Z</time>
      </trkpt>
      <trkpt lat="45.8362" lon="4.71539">
        <ele>295.45746</ele>
        <time>2023-06-10T07:56:58.000Z</time>
      </trkpt>
      <trkpt lat="45.8362" lon="4.71547">
        <ele>295.37286</ele>
        <time>2023-06-10T07:56:59.000Z</time>
      </trkpt>
      <trkpt lat="45.83619" lon="4.71553">
        <ele>295.245</ele>
        <time>2023-06-10T07:57:00.000Z</time>
      </trkpt>
      <trkpt lat="45.83619" lon="4.71559">
        <ele>295.05676</ele>
        <time>2023-06-10T07:57:01.000Z</time>
      </trkpt>
      <trkpt lat="45.83618" lon="4.71566">
        <ele>294.87274</ele>
        <time>2023-06-10T07:57:02.000Z</time>
      </trkpt>
      <trkpt lat="45.83618" lon="4.71573">
        <ele>294.69</ele>
        <time>2023-06-10T07:57:03.000Z</time>
      </trkpt>
      <trkpt lat="45.83618" lon="4.71578">
        <ele>294.49933</ele>
        <time>2023-06-10T07:57:04.000Z</time>
      </trkpt>
      <trkpt lat="45.83619" lon="4.71583">
        <ele>294.28375</ele>
        <time>2023-06-10T07:57:05.000Z</time>
      </trkpt>
      <trkpt lat="45.83619" lon="4.71588">
        <ele>294.06113</ele>
        <time>2023-06-10T07:57:06.000Z</time>
      </trkpt>
      <trkpt lat="45.83621" lon="4.71594">
        <ele>293.81512</ele>
        <time>2023-06-10T07:57:07.000Z</time>
      </trkpt>
      <trkpt lat="45.83622" lon="4.71601">
        <ele>293.52646</ele>
        <time>2023-06-10T07:57:08.000Z</time>
      </trkpt>
      <trkpt lat="45.83623" lon="4.71609">
        <ele>293.18353</ele>
        <time>2023-06-10T07:57:09.000Z</time>
      </trkpt>
      <trkpt lat="45.83624" lon="4.71617">
        <ele>292.86148</ele>
        <time>2023-06-10T07:57:10.000Z</time>
      </trkpt>
      <trkpt lat="45.83627" lon="4.71624">
        <ele>292.51059</ele>
        <time>2023-06-10T07:57:11.000Z</time>
      </trkpt>
      <trkpt lat="45.8363" lon="4.71631">
        <ele>292.18759</ele>
        <time>2023-06-10T07:57:12.000Z</time>
      </trkpt>
      <trkpt lat="45.83634" lon="4.71637">
        <ele>291.81473</ele>
        <time>2023-06-10T07:57:13.000Z</time>
      </trkpt>
      <trkpt lat="45.83637" lon="4.71642">
        <ele>291.40692</ele>
        <time>2023-06-10T07:57:14.000Z</time>
      </trkpt>
      <trkpt lat="45.83642" lon="4.71646">
        <ele>291.04752</ele>
        <time>2023-06-10T07:57:15.000Z</time>
      </trkpt>
      <trkpt lat="45.83647" lon="4.71649">
        <ele>290.74756</ele>
        <time>2023-06-10T07:57:16.000Z</time>
      </trkpt>
      <trkpt lat="45.83652" lon="4.71652">
        <ele>290.14832</ele>
        <time>2023-06-10T07:57:17.000Z</time>
      </trkpt>
      <trkpt lat="45.83657" lon="4.71655">
        <ele>289.82288</ele>
        <time>2023-06-10T07:57:18.000Z</time>
      </trkpt>
      <trkpt lat="45.83663" lon="4.71656">
        <ele>289.79865</ele>
        <time>2023-06-10T07:57:19.000Z</time>
      </trkpt>
      <trkpt lat="45.8367" lon="4.71656">
        <ele>289.62903</ele>
        <time>2023-06-10T07:57:20.000Z</time>
      </trkpt>
      <trkpt lat="45.83676" lon="4.71653">
        <ele>289.50522</ele>
        <time>2023-06-10T07:57:21.000Z</time>
      </trkpt>
      <trkpt lat="45.83685" lon="4.71649">
        <ele>289.43069</ele>
        <time>2023-06-10T07:57:22.000Z</time>
      </trkpt>
      <trkpt lat="45.8369" lon="4.71647">
        <ele>289.40692</ele>
        <time>2023-06-10T07:57:23.000Z</time>
      </trkpt>
      <trkpt lat="45.83696" lon="4.71647">
        <ele>289.37006</ele>
        <time>2023-06-10T07:57:24.000Z</time>
      </trkpt>
      <trkpt lat="45.837" lon="4.7165">
        <ele>289.3208</ele>
        <time>2023-06-10T07:57:25.000Z</time>
      </trkpt>
      <trkpt lat="45.83704" lon="4.71656">
        <ele>289.15265</ele>
        <time>2023-06-10T07:57:26.000Z</time>
      </trkpt>
      <trkpt lat="45.83708" lon="4.71662">
        <ele>288.98566</ele>
        <time>2023-06-10T07:57:27.000Z</time>
      </trkpt>
      <trkpt lat="45.83712" lon="4.7167">
        <ele>288.94769</ele>
        <time>2023-06-10T07:57:28.000Z</time>
      </trkpt>
      <trkpt lat="45.83715" lon="4.71677">
        <ele>289.1655</ele>
        <time>2023-06-10T07:57:29.000Z</time>
      </trkpt>
      <trkpt lat="45.83718" lon="4.71684">
        <ele>289.42587</ele>
        <time>2023-06-10T07:57:30.000Z</time>
      </trkpt>
      <trkpt lat="45.83722" lon="4.7169">
        <ele>289.71338</ele>
        <time>2023-06-10T07:57:31.000Z</time>
      </trkpt>
      <trkpt lat="45.83728" lon="4.71692">
        <ele>289.95752</ele>
        <time>2023-06-10T07:57:32.000Z</time>
      </trkpt>
      <trkpt lat="45.83732" lon="4.71693">
        <ele>290.19022</ele>
        <time>2023-06-10T07:57:33.000Z</time>
      </trkpt>
      <trkpt lat="45.83736" lon="4.71692">
        <ele>290.14468</ele>
        <time>2023-06-10T07:57:34.000Z</time>
      </trkpt>
      <trkpt lat="45.83741" lon="4.71693">
        <ele>290.0267</ele>
        <time>2023-06-10T07:57:35.000Z</time>
      </trkpt>
      <trkpt lat="45.83743" lon="4.71694">
        <ele>289.90216</ele>
        <time>2023-06-10T07:57:36.000Z</time>
      </trkpt>
      <trkpt lat="45.83747" lon="4.71693">
        <ele>289.8963</ele>
        <time>2023-06-10T07:57:38.000Z</time>
      </trkpt>
      <trkpt lat="45.83749" lon="4.71693">
        <ele>289.71216</ele>
        <time>2023-06-10T07:57:39.000Z</time>
      </trkpt>
      <trkpt lat="45.83751" lon="4.71691">
        <ele>289.1311</ele>
        <time>2023-06-10T07:57:44.000Z</time>
      </trkpt>
      <trkpt lat="45.83752" lon="4.71693">
        <ele>288.53598</ele>
        <time>2023-06-10T07:57:48.000Z</time>
      </trkpt>
      <trkpt lat="45.8375" lon="4.71697">
        <ele>287.70197</ele>
        <time>2023-06-10T07:57:52.000Z</time>
      </trkpt>
      <trkpt lat="45.83748" lon="4.71697">
        <ele>286.77386</ele>
        <time>2023-06-10T07:57:53.000Z</time>
      </trkpt>
      <trkpt lat="45.83745" lon="4.71697">
        <ele>285.76624</ele>
        <time>2023-06-10T07:57:54.000Z</time>
      </trkpt>
      <trkpt lat="45.83742" lon="4.71696">
        <ele>284.8194</ele>
        <time>2023-06-10T07:57:55.000Z</time>
      </trkpt>
      <trkpt lat="45.83739" lon="4.71696">
        <ele>283.94769</ele>
        <time>2023-06-10T07:57:56.000Z</time>
      </trkpt>
      <trkpt lat="45.83734" lon="4.71698">
        <ele>283.07059</ele>
        <time>2023-06-10T07:57:57.000Z</time>
      </trkpt>
      <trkpt lat="45.8373" lon="4.717">
        <ele>282.22635</ele>
        <time>2023-06-10T07:57:58.000Z</time>
      </trkpt>
      <trkpt lat="45.83727" lon="4.71701">
        <ele>281.32825</ele>
        <time>2023-06-10T07:57:59.000Z</time>
      </trkpt>
      <trkpt lat="45.83725" lon="4.71702">
        <ele>280.16653</ele>
        <time>2023-06-10T07:58:00.000Z</time>
      </trkpt>
      <trkpt lat="45.83726" lon="4.717">
        <ele>279.0112</ele>
        <time>2023-06-10T07:58:04.000Z</time>
      </trkpt>
      <trkpt lat="45.83729" lon="4.71699">
        <ele>277.84341</ele>
        <time>2023-06-10T07:58:06.000Z</time>
      </trkpt>
      <trkpt lat="45.83731" lon="4.71699">
        <ele>276.6413</ele>
        <time>2023-06-10T07:58:07.000Z</time>
      </trkpt>
      <trkpt lat="45.83735" lon="4.71699">
        <ele>275.49658</ele>
        <time>2023-06-10T07:58:08.000Z</time>
      </trkpt>
      <trkpt lat="45.83739" lon="4.71701">
        <ele>274.81223</ele>
        <time>2023-06-10T07:58:09.000Z</time>
      </trkpt>
      <trkpt lat="45.83743" lon="4.717">
        <ele>274.24567</ele>
        <time>2023-06-10T07:58:10.000Z</time>
      </trkpt>
      <trkpt lat="45.83747" lon="4.71701">
        <ele>273.70172</ele>
        <time>2023-06-10T07:58:11.000Z</time>
      </trkpt>
      <trkpt lat="45.8375" lon="4.717">
        <ele>272.89813</ele>
        <time>2023-06-10T07:58:12.000Z</time>
      </trkpt>
      <trkpt lat="45.83753" lon="4.71698">
        <ele>272.2193</ele>
        <time>2023-06-10T07:58:13.000Z</time>
      </trkpt>
      <trkpt lat="45.83756" lon="4.71699">
        <ele>271.56952</ele>
        <time>2023-06-10T07:58:14.000Z</time>
      </trkpt>
      <trkpt lat="45.8376" lon="4.71702">
        <ele>271.13528</ele>
        <time>2023-06-10T07:58:15.000Z</time>
      </trkpt>
      <trkpt lat="45.83764" lon="4.71703">
        <ele>270.9523</ele>
        <time>2023-06-10T07:58:16.000Z</time>
      </trkpt>
      <trkpt lat="45.83768" lon="4.71704">
        <ele>270.82819</ele>
        <time>2023-06-10T07:58:17.000Z</time>
      </trkpt>
      <trkpt lat="45.83772" lon="4.71706">
        <ele>270.74472</ele>
        <time>2023-06-10T07:58:18.000Z</time>
      </trkpt>
      <trkpt lat="45.83777" lon="4.71708">
        <ele>270.64508</ele>
        <time>2023-06-10T07:58:19.000Z</time>
      </trkpt>
      <trkpt lat="45.83779" lon="4.71707">
        <ele>270.62799</ele>
        <time>2023-06-10T07:58:20.000Z</time>
      </trkpt>
      <trkpt lat="45.83781" lon="4.71707">
        <ele>270.70511</ele>
        <time>2023-06-10T07:58:21.000Z</time>
      </trkpt>
      <trkpt lat="45.83786" lon="4.71707">
        <ele>270.85376</ele>
        <time>2023-06-10T07:58:22.000Z</time>
      </trkpt>
      <trkpt lat="45.83789" lon="4.71707">
        <ele>271.06781</ele>
        <time>2023-06-10T07:58:23.000Z</time>
      </trkpt>
      <trkpt lat="45.83793" lon="4.71708">
        <ele>271.39053</ele>
        <time>2023-06-10T07:58:24.000Z</time>
      </trkpt>
      <trkpt lat="45.83797" lon="4.71708">
        <ele>271.76129</ele>
        <time>2023-06-10T07:58:25.000Z</time>
      </trkpt>
      <trkpt lat="45.83801" lon="4.7171">
        <ele>272.23904</ele>
        <time>2023-06-10T07:58:26.000Z</time>
      </trkpt>
      <trkpt lat="45.83805" lon="4.7171">
        <ele>272.94183</ele>
        <time>2023-06-10T07:58:27.000Z</time>
      </trkpt>
      <trkpt lat="45.83809" lon="4.71711">
        <ele>273.68961</ele>
        <time>2023-06-10T07:58:28.000Z</time>
      </trkpt>
      <trkpt lat="45.83814" lon="4.71713">
        <ele>274.30743</ele>
        <time>2023-06-10T07:58:29.000Z</time>
      </trkpt>
      <trkpt lat="45.83817" lon="4.71713">
        <ele>274.89288</ele>
        <time>2023-06-10T07:58:30.000Z</time>
      </trkpt>
      <trkpt lat="45.83823" lon="4.71714">
        <ele>275.37</ele>
        <time>2023-06-10T07:58:31.000Z</time>
      </trkpt>
      <trkpt lat="45.83828" lon="4.71715">
        <ele>276.20383</ele>
        <time>2023-06-10T07:58:32.000Z</time>
      </trkpt>
      <trkpt lat="45.83831" lon="4.71715">
        <ele>276.9122</ele>
        <time>2023-06-10T07:58:33.000Z</time>
      </trkpt>
      <trkpt lat="45.83835" lon="4.71715">
        <ele>277.86572</ele>
        <time>2023-06-10T07:58:34.000Z</time>
      </trkpt>
      <trkpt lat="45.83839" lon="4.71716">
        <ele>278.42163</ele>
        <time>2023-06-10T07:58:35.000Z</time>
      </trkpt>
      <trkpt lat="45.83843" lon="4.71716">
        <ele>279.02811</ele>
        <time>2023-06-10T07:58:36.000Z</time>
      </trkpt>
      <trkpt lat="45.83848" lon="4.71717">
        <ele>279.68668</ele>
        <time>2023-06-10T07:58:37.000Z</time>
      </trkpt>
      <trkpt lat="45.83852" lon="4.71719">
        <ele>280.26715</ele>
        <time>2023-06-10T07:58:38.000Z</time>
      </trkpt>
      <trkpt lat="45.83855" lon="4.71719">
        <ele>280.81528</ele>
        <time>2023-06-10T07:58:39.000Z</time>
      </trkpt>
      <trkpt lat="45.83858" lon="4.7172">
        <ele>281.48438</ele>
        <time>2023-06-10T07:58:40.000Z</time>
      </trkpt>
      <trkpt lat="45.83861" lon="4.7172">
        <ele>281.88962</ele>
        <time>2023-06-10T07:58:41.000Z</time>
      </trkpt>
      <trkpt lat="45.83864" lon="4.71721">
        <ele>282.29022</ele>
        <time>2023-06-10T07:58:42.000Z</time>
      </trkpt>
      <trkpt lat="45.83868" lon="4.71723">
        <ele>282.56509</ele>
        <time>2023-06-10T07:58:43.000Z</time>
      </trkpt>
      <trkpt lat="45.83872" lon="4.71724">
        <ele>282.79947</ele>
        <time>2023-06-10T07:58:44.000Z</time>
      </trkpt>
      <trkpt lat="45.83876" lon="4.71726">
        <ele>283.06668</ele>
        <time>2023-06-10T07:58:45.000Z</time>
      </trkpt>
      <trkpt lat="45.83881" lon="4.71727">
        <ele>283.21844</ele>
        <time>2023-06-10T07:58:46.000Z</time>
      </trkpt>
      <trkpt lat="45.83885" lon="4.71729">
        <ele>283.09723</ele>
        <time>2023-06-10T07:58:47.000Z</time>
      </trkpt>
      <trkpt lat="45.83888" lon="4.71731">
        <ele>282.96808</ele>
        <time>2023-06-10T07:58:48.000Z</time>
      </trkpt>
      <trkpt lat="45.83891" lon="4.71733">
        <ele>282.79407</ele>
        <time>2023-06-10T07:58:49.000Z</time>
      </trkpt>
      <trkpt lat="45.83893" lon="4.71736">
        <ele>282.564</ele>
        <time>2023-06-10T07:58:50.000Z</time>
      </trkpt>
      <trkpt lat="45.83896" lon="4.71737">
        <ele>282.51163</ele>
        <time>2023-06-10T07:58:51.000Z</time>
      </trkpt>
      <trkpt lat="45.83899" lon="4.71739">
        <ele>282.19086</ele>
        <time>2023-06-10T07:58:52.000Z</time>
      </trkpt>
      <trkpt lat="45.83902" lon="4.71741">
        <ele>281.99973</ele>
        <time>2023-06-10T07:58:53.000Z</time>
      </trkpt>
      <trkpt lat="45.83905" lon="4.71743">
        <ele>281.65942</ele>
        <time>2023-06-10T07:58:54.000Z</time>
      </trkpt>
      <trkpt lat="45.83908" lon="4.71743">
        <ele>281.72333</ele>
        <time>2023-06-10T07:58:55.000Z</time>
      </trkpt>
      <trkpt lat="45.83911" lon="4.71745">
        <ele>281.73926</ele>
        <time>2023-06-10T07:58:56.000Z</time>
      </trkpt>
      <trkpt lat="45.83914" lon="4.71746">
        <ele>281.72833</ele>
        <time>2023-06-10T07:58:57.000Z</time>
      </trkpt>
      <trkpt lat="45.83918" lon="4.71748">
        <ele>281.75064</ele>
        <time>2023-06-10T07:58:58.000Z</time>
      </trkpt>
      <trkpt lat="45.83922" lon="4.7175">
        <ele>281.8002</ele>
        <time>2023-06-10T07:58:59.000Z</time>
      </trkpt>
      <trkpt lat="45.83926" lon="4.71751">
        <ele>281.63019</ele>
        <time>2023-06-10T07:59:00.000Z</time>
      </trkpt>
      <trkpt lat="45.8393" lon="4.71754">
        <ele>281.7489</ele>
        <time>2023-06-10T07:59:01.000Z</time>
      </trkpt>
      <trkpt lat="45.83934" lon="4.71757">
        <ele>281.80646</ele>
        <time>2023-06-10T07:59:02.000Z</time>
      </trkpt>
      <trkpt lat="45.83937" lon="4.71761">
        <ele>281.90057</ele>
        <time>2023-06-10T07:59:03.000Z</time>
      </trkpt>
      <trkpt lat="45.8394" lon="4.71765">
        <ele>281.97778</ele>
        <time>2023-06-10T07:59:04.000Z</time>
      </trkpt>
      <trkpt lat="45.83942" lon="4.7177">
        <ele>281.92545</ele>
        <time>2023-06-10T07:59:05.000Z</time>
      </trkpt>
      <trkpt lat="45.83944" lon="4.71776">
        <ele>281.87668</ele>
        <time>2023-06-10T07:59:06.000Z</time>
      </trkpt>
      <trkpt lat="45.83946" lon="4.71781">
        <ele>281.88455</ele>
        <time>2023-06-10T07:59:07.000Z</time>
      </trkpt>
      <trkpt lat="45.83947" lon="4.71787">
        <ele>281.9859</ele>
        <time>2023-06-10T07:59:08.000Z</time>
      </trkpt>
      <trkpt lat="45.83947" lon="4.71793">
        <ele>282.17633</ele>
        <time>2023-06-10T07:59:09.000Z</time>
      </trkpt>
      <trkpt lat="45.83948" lon="4.71799">
        <ele>282.10086</ele>
        <time>2023-06-10T07:59:10.000Z</time>
      </trkpt>
      <trkpt lat="45.83953" lon="4.71807">
        <ele>281.99319</ele>
        <time>2023-06-10T07:59:11.000Z</time>
      </trkpt>
      <trkpt lat="45.83956" lon="4.71813">
        <ele>282.15814</ele>
        <time>2023-06-10T07:59:12.000Z</time>
      </trkpt>
      <trkpt lat="45.8396" lon="4.71818">
        <ele>282.19296</ele>
        <time>2023-06-10T07:59:13.000Z</time>
      </trkpt>
      <trkpt lat="45.83964" lon="4.71823">
        <ele>282.18561</ele>
        <time>2023-06-10T07:59:14.000Z</time>
      </trkpt>
      <trkpt lat="45.83967" lon="4.71827">
        <ele>282.19302</ele>
        <time>2023-06-10T07:59:15.000Z</time>
      </trkpt>
      <trkpt lat="45.83969" lon="4.71832">
        <ele>282.33337</ele>
        <time>2023-06-10T07:59:16.000Z</time>
      </trkpt>
      <trkpt lat="45.83972" lon="4.71837">
        <ele>282.57471</ele>
        <time>2023-06-10T07:59:17.000Z</time>
      </trkpt>
      <trkpt lat="45.83976" lon="4.71842">
        <ele>282.84979</ele>
        <time>2023-06-10T07:59:18.000Z</time>
      </trkpt>
      <trkpt lat="45.83979" lon="4.71847">
        <ele>282.83292</ele>
        <time>2023-06-10T07:59:19.000Z</time>
      </trkpt>
      <trkpt lat="45.83982" lon="4.71852">
        <ele>282.80707</ele>
        <time>2023-06-10T07:59:20.000Z</time>
      </trkpt>
      <trkpt lat="45.83984" lon="4.71857">
        <ele>282.79144</ele>
        <time>2023-06-10T07:59:21.000Z</time>
      </trkpt>
      <trkpt lat="45.83987" lon="4.71861">
        <ele>282.83224</ele>
        <time>2023-06-10T07:59:22.000Z</time>
      </trkpt>
      <trkpt lat="45.8399" lon="4.71863">
        <ele>282.91565</ele>
        <time>2023-06-10T07:59:23.000Z</time>
      </trkpt>
      <trkpt lat="45.83993" lon="4.71867">
        <ele>282.97235</ele>
        <time>2023-06-10T07:59:24.000Z</time>
      </trkpt>
      <trkpt lat="45.83996" lon="4.71871">
        <ele>283.03455</ele>
        <time>2023-06-10T07:59:25.000Z</time>
      </trkpt>
      <trkpt lat="45.83999" lon="4.71875">
        <ele>283.10001</ele>
        <time>2023-06-10T07:59:26.000Z</time>
      </trkpt>
      <trkpt lat="45.84002" lon="4.71879">
        <ele>283.12088</ele>
        <time>2023-06-10T07:59:27.000Z</time>
      </trkpt>
      <trkpt lat="45.84004" lon="4.71884">
        <ele>283.01007</ele>
        <time>2023-06-10T07:59:28.000Z</time>
      </trkpt>
      <trkpt lat="45.84006" lon="4.71889">
        <ele>282.92719</ele>
        <time>2023-06-10T07:59:29.000Z</time>
      </trkpt>
      <trkpt lat="45.84007" lon="4.71894">
        <ele>283.12827</ele>
        <time>2023-06-10T07:59:30.000Z</time>
      </trkpt>
      <trkpt lat="45.84006" lon="4.71901">
        <ele>283.30469</ele>
        <time>2023-06-10T07:59:31.000Z</time>
      </trkpt>
      <trkpt lat="45.84006" lon="4.71908">
        <ele>283.31497</ele>
        <time>2023-06-10T07:59:32.000Z</time>
      </trkpt>
      <trkpt lat="45.84007" lon="4.71916">
        <ele>283.40674</ele>
        <time>2023-06-10T07:59:33.000Z</time>
      </trkpt>
      <trkpt lat="45.84007" lon="4.71925">
        <ele>283.49066</ele>
        <time>2023-06-10T07:59:34.000Z</time>
      </trkpt>
      <trkpt lat="45.84007" lon="4.71934">
        <ele>283.50558</ele>
        <time>2023-06-10T07:59:35.000Z</time>
      </trkpt>
      <trkpt lat="45.84008" lon="4.71944">
        <ele>283.36398</ele>
        <time>2023-06-10T07:59:36.000Z</time>
      </trkpt>
      <trkpt lat="45.84008" lon="4.71955">
        <ele>283.09491</ele>
        <time>2023-06-10T07:59:37.000Z</time>
      </trkpt>
      <trkpt lat="45.84009" lon="4.71965">
        <ele>282.79861</ele>
        <time>2023-06-10T07:59:38.000Z</time>
      </trkpt>
      <trkpt lat="45.8401" lon="4.71976">
        <ele>282.76132</ele>
        <time>2023-06-10T07:59:39.000Z</time>
      </trkpt>
      <trkpt lat="45.84011" lon="4.71986">
        <ele>282.68341</ele>
        <time>2023-06-10T07:59:40.000Z</time>
      </trkpt>
      <trkpt lat="45.84011" lon="4.71996">
        <ele>282.5849</ele>
        <time>2023-06-10T07:59:41.000Z</time>
      </trkpt>
      <trkpt lat="45.84012" lon="4.72006">
        <ele>282.43689</ele>
        <time>2023-06-10T07:59:42.000Z</time>
      </trkpt>
      <trkpt lat="45.84012" lon="4.72017">
        <ele>282.24033</ele>
        <time>2023-06-10T07:59:43.000Z</time>
      </trkpt>
      <trkpt lat="45.84012" lon="4.72028">
        <ele>282.06317</ele>
        <time>2023-06-10T07:59:44.000Z</time>
      </trkpt>
      <trkpt lat="45.84013" lon="4.72038">
        <ele>281.87335</ele>
        <time>2023-06-10T07:59:45.000Z</time>
      </trkpt>
      <trkpt lat="45.84014" lon="4.72049">
        <ele>281.69357</ele>
        <time>2023-06-10T07:59:46.000Z</time>
      </trkpt>
      <trkpt lat="45.84015" lon="4.72059">
        <ele>281.54819</ele>
        <time>2023-06-10T07:59:47.000Z</time>
      </trkpt>
      <trkpt lat="45.84016" lon="4.72068">
        <ele>281.42212</ele>
        <time>2023-06-10T07:59:48.000Z</time>
      </trkpt>
      <trkpt lat="45.84017" lon="4.72077">
        <ele>281.17249</ele>
        <time>2023-06-10T07:59:49.000Z</time>
      </trkpt>
      <trkpt lat="45.84018" lon="4.72087">
        <ele>280.86703</ele>
        <time>2023-06-10T07:59:50.000Z</time>
      </trkpt>
      <trkpt lat="45.84019" lon="4.72096">
        <ele>280.4985</ele>
        <time>2023-06-10T07:59:51.000Z</time>
      </trkpt>
      <trkpt lat="45.84019" lon="4.72105">
        <ele>280.55646</ele>
        <time>2023-06-10T07:59:52.000Z</time>
      </trkpt>
      <trkpt lat="45.8402" lon="4.72113">
        <ele>280.57355</ele>
        <time>2023-06-10T07:59:53.000Z</time>
      </trkpt>
      <trkpt lat="45.8402" lon="4.72121">
        <ele>280.2594</ele>
        <time>2023-06-10T07:59:54.000Z</time>
      </trkpt>
      <trkpt lat="45.8402" lon="4.72129">
        <ele>280.42947</ele>
        <time>2023-06-10T07:59:55.000Z</time>
      </trkpt>
      <trkpt lat="45.84021" lon="4.72137">
        <ele>280.63925</ele>
        <time>2023-06-10T07:59:56.000Z</time>
      </trkpt>
      <trkpt lat="45.84021" lon="4.72144">
        <ele>280.86819</ele>
        <time>2023-06-10T07:59:57.000Z</time>
      </trkpt>
      <trkpt lat="45.8402" lon="4.7215">
        <ele>281.17996</ele>
        <time>2023-06-10T07:59:58.000Z</time>
      </trkpt>
      <trkpt lat="45.84019" lon="4.72157">
        <ele>281.20389</ele>
        <time>2023-06-10T07:59:59.000Z</time>
      </trkpt>
      <trkpt lat="45.84015" lon="4.72162">
        <ele>280.97156</ele>
        <time>2023-06-10T08:00:00.000Z</time>
      </trkpt>
      <trkpt lat="45.84012" lon="4.72166">
        <ele>280.77106</ele>
        <time>2023-06-10T08:00:01.000Z</time>
      </trkpt>
      <trkpt lat="45.84008" lon="4.72168">
        <ele>280.47214</ele>
        <time>2023-06-10T08:00:02.000Z</time>
      </trkpt>
      <trkpt lat="45.84003" lon="4.7217">
        <ele>280.1889</ele>
        <time>2023-06-10T08:00:03.000Z</time>
      </trkpt>
      <trkpt lat="45.83998" lon="4.7217">
        <ele>279.89816</ele>
        <time>2023-06-10T08:00:04.000Z</time>
      </trkpt>
      <trkpt lat="45.83993" lon="4.72169">
        <ele>279.62387</ele>
        <time>2023-06-10T08:00:05.000Z</time>
      </trkpt>
      <trkpt lat="45.83989" lon="4.7217">
        <ele>279.36148</ele>
        <time>2023-06-10T08:00:06.000Z</time>
      </trkpt>
      <trkpt lat="45.83985" lon="4.72169">
        <ele>279.07181</ele>
        <time>2023-06-10T08:00:07.000Z</time>
      </trkpt>
      <trkpt lat="45.83979" lon="4.72166">
        <ele>278.7254</ele>
        <time>2023-06-10T08:00:08.000Z</time>
      </trkpt>
      <trkpt lat="45.83974" lon="4.72165">
        <ele>278.37906</ele>
        <time>2023-06-10T08:00:09.000Z</time>
      </trkpt>
      <trkpt lat="45.83969" lon="4.72164">
        <ele>278.0296</ele>
        <time>2023-06-10T08:00:10.000Z</time>
      </trkpt>
      <trkpt lat="45.83963" lon="4.72164">
        <ele>277.66711</ele>
        <time>2023-06-10T08:00:11.000Z</time>
      </trkpt>
      <trkpt lat="45.83958" lon="4.72163">
        <ele>277.10651</ele>
        <time>2023-06-10T08:00:12.000Z</time>
      </trkpt>
      <trkpt lat="45.83953" lon="4.72161">
        <ele>276.55109</ele>
        <time>2023-06-10T08:00:13.000Z</time>
      </trkpt>
      <trkpt lat="45.83949" lon="4.7216">
        <ele>276.28693</ele>
        <time>2023-06-10T08:00:14.000Z</time>
      </trkpt>
      <trkpt lat="45.83945" lon="4.72159">
        <ele>275.91397</ele>
        <time>2023-06-10T08:00:15.000Z</time>
      </trkpt>
      <trkpt lat="45.83941" lon="4.72161">
        <ele>275.51498</ele>
        <time>2023-06-10T08:00:16.000Z</time>
      </trkpt>
      <trkpt lat="45.83939" lon="4.72163">
        <ele>275.11688</ele>
        <time>2023-06-10T08:00:17.000Z</time>
      </trkpt>
      <trkpt lat="45.83938" lon="4.72166">
        <ele>274.62848</ele>
        <time>2023-06-10T08:00:18.000Z</time>
      </trkpt>
      <trkpt lat="45.83939" lon="4.7217">
        <ele>274.46732</ele>
        <time>2023-06-10T08:00:19.000Z</time>
      </trkpt>
      <trkpt lat="45.83942" lon="4.72174">
        <ele>274.61008</ele>
        <time>2023-06-10T08:00:20.000Z</time>
      </trkpt>
      <trkpt lat="45.83944" lon="4.72178">
        <ele>274.76007</ele>
        <time>2023-06-10T08:00:21.000Z</time>
      </trkpt>
      <trkpt lat="45.83947" lon="4.72183">
        <ele>275.1492</ele>
        <time>2023-06-10T08:00:22.000Z</time>
      </trkpt>
      <trkpt lat="45.8395" lon="4.72187">
        <ele>275.64224</ele>
        <time>2023-06-10T08:00:23.000Z</time>
      </trkpt>
      <trkpt lat="45.83952" lon="4.72192">
        <ele>275.86469</ele>
        <time>2023-06-10T08:00:24.000Z</time>
      </trkpt>
      <trkpt lat="45.83955" lon="4.72198">
        <ele>276.12762</ele>
        <time>2023-06-10T08:00:25.000Z</time>
      </trkpt>
      <trkpt lat="45.83958" lon="4.72203">
        <ele>276.39151</ele>
        <time>2023-06-10T08:00:26.000Z</time>
      </trkpt>
      <trkpt lat="45.83961" lon="4.72208">
        <ele>276.66641</ele>
        <time>2023-06-10T08:00:27.000Z</time>
      </trkpt>
      <trkpt lat="45.83964" lon="4.72214">
        <ele>276.99634</ele>
        <time>2023-06-10T08:00:28.000Z</time>
      </trkpt>
      <trkpt lat="45.83967" lon="4.72219">
        <ele>277.35001</ele>
        <time>2023-06-10T08:00:29.000Z</time>
      </trkpt>
      <trkpt lat="45.83969" lon="4.72224">
        <ele>277.7247</ele>
        <time>2023-06-10T08:00:30.000Z</time>
      </trkpt>
      <trkpt lat="45.83972" lon="4.72228">
        <ele>278.12482</ele>
        <time>2023-06-10T08:00:31.000Z</time>
      </trkpt>
      <trkpt lat="45.83974" lon="4.72232">
        <ele>278.49005</ele>
        <time>2023-06-10T08:00:32.000Z</time>
      </trkpt>
      <trkpt lat="45.83977" lon="4.72237">
        <ele>278.87711</ele>
        <time>2023-06-10T08:00:33.000Z</time>
      </trkpt>
      <trkpt lat="45.83979" lon="4.72241">
        <ele>279.32959</ele>
        <time>2023-06-10T08:00:34.000Z</time>
      </trkpt>
      <trkpt lat="45.83981" lon="4.72245">
        <ele>279.43262</ele>
        <time>2023-06-10T08:00:35.000Z</time>
      </trkpt>
      <trkpt lat="45.83982" lon="4.7225">
        <ele>279.53949</ele>
        <time>2023-06-10T08:00:36.000Z</time>
      </trkpt>
      <trkpt lat="45.83985" lon="4.72255">
        <ele>279.63663</ele>
        <time>2023-06-10T08:00:37.000Z</time>
      </trkpt>
      <trkpt lat="45.83988" lon="4.7226">
        <ele>279.76767</ele>
        <time>2023-06-10T08:00:38.000Z</time>
      </trkpt>
      <trkpt lat="45.8399" lon="4.72265">
        <ele>279.86151</ele>
        <time>2023-06-10T08:00:39.000Z</time>
      </trkpt>
      <trkpt lat="45.83993" lon="4.72269">
        <ele>280.05353</ele>
        <time>2023-06-10T08:00:40.000Z</time>
      </trkpt>
      <trkpt lat="45.83995" lon="4.72274">
        <ele>280.23611</ele>
        <time>2023-06-10T08:00:41.000Z</time>
      </trkpt>
      <trkpt lat="45.83998" lon="4.72279">
        <ele>280.26508</ele>
        <time>2023-06-10T08:00:42.000Z</time>
      </trkpt>
      <trkpt lat="45.84" lon="4.72284">
        <ele>280.17746</ele>
        <time>2023-06-10T08:00:43.000Z</time>
      </trkpt>
      <trkpt lat="45.84002" lon="4.7229">
        <ele>280.38806</ele>
        <time>2023-06-10T08:00:44.000Z</time>
      </trkpt>
      <trkpt lat="45.84005" lon="4.72295">
        <ele>280.63202</ele>
        <time>2023-06-10T08:00:45.000Z</time>
      </trkpt>
      <trkpt lat="45.84008" lon="4.72301">
        <ele>280.8779</ele>
        <time>2023-06-10T08:00:46.000Z</time>
      </trkpt>
      <trkpt lat="45.8401" lon="4.72306">
        <ele>280.82071</ele>
        <time>2023-06-10T08:00:47.000Z</time>
      </trkpt>
      <trkpt lat="45.84009" lon="4.72312">
        <ele>280.7634</ele>
        <time>2023-06-10T08:00:48.000Z</time>
      </trkpt>
      <trkpt lat="45.84006" lon="4.72318">
        <ele>280.69254</ele>
        <time>2023-06-10T08:00:49.000Z</time>
      </trkpt>
      <trkpt lat="45.84003" lon="4.72324">
        <ele>280.60339</ele>
        <time>2023-06-10T08:00:50.000Z</time>
      </trkpt>
      <trkpt lat="45.83999" lon="4.72329">
        <ele>280.51178</ele>
        <time>2023-06-10T08:00:51.000Z</time>
      </trkpt>
      <trkpt lat="45.83995" lon="4.72333">
        <ele>280.39459</ele>
        <time>2023-06-10T08:00:52.000Z</time>
      </trkpt>
      <trkpt lat="45.83991" lon="4.72338">
        <ele>280.24075</ele>
        <time>2023-06-10T08:00:53.000Z</time>
      </trkpt>
      <trkpt lat="45.83986" lon="4.72342">
        <ele>280.2063</ele>
        <time>2023-06-10T08:00:54.000Z</time>
      </trkpt>
      <trkpt lat="45.83981" lon="4.72347">
        <ele>280.26114</ele>
        <time>2023-06-10T08:00:55.000Z</time>
      </trkpt>
      <trkpt lat="45.83976" lon="4.72351">
        <ele>280.31888</ele>
        <time>2023-06-10T08:00:56.000Z</time>
      </trkpt>
      <trkpt lat="45.83971" lon="4.72357">
        <ele>280.05365</ele>
        <time>2023-06-10T08:00:57.000Z</time>
      </trkpt>
      <trkpt lat="45.83966" lon="4.72361">
        <ele>279.84882</ele>
        <time>2023-06-10T08:00:58.000Z</time>
      </trkpt>
      <trkpt lat="45.83961" lon="4.72367">
        <ele>279.69061</ele>
        <time>2023-06-10T08:00:59.000Z</time>
      </trkpt>
      <trkpt lat="45.83955" lon="4.7237">
        <ele>279.35834</ele>
        <time>2023-06-10T08:01:00.000Z</time>
      </trkpt>
      <trkpt lat="45.8395" lon="4.72375">
        <ele>278.97076</ele>
        <time>2023-06-10T08:01:01.000Z</time>
      </trkpt>
      <trkpt lat="45.83943" lon="4.72381">
        <ele>278.60138</ele>
        <time>2023-06-10T08:01:02.000Z</time>
      </trkpt>
      <trkpt lat="45.83936" lon="4.72385">
        <ele>278.2355</ele>
        <time>2023-06-10T08:01:03.000Z</time>
      </trkpt>
      <trkpt lat="45.83928" lon="4.72389">
        <ele>277.83545</ele>
        <time>2023-06-10T08:01:04.000Z</time>
      </trkpt>
      <trkpt lat="45.8392" lon="4.72392">
        <ele>277.32559</ele>
        <time>2023-06-10T08:01:05.000Z</time>
      </trkpt>
      <trkpt lat="45.83912" lon="4.72397">
        <ele>276.78815</ele>
        <time>2023-06-10T08:01:06.000Z</time>
      </trkpt>
      <trkpt lat="45.83903" lon="4.72401">
        <ele>276.5206</ele>
        <time>2023-06-10T08:01:07.000Z</time>
      </trkpt>
      <trkpt lat="45.83895" lon="4.72406">
        <ele>276.21161</ele>
        <time>2023-06-10T08:01:08.000Z</time>
      </trkpt>
      <trkpt lat="45.83887" lon="4.72409">
        <ele>275.90283</ele>
        <time>2023-06-10T08:01:09.000Z</time>
      </trkpt>
      <trkpt lat="45.8388" lon="4.72413">
        <ele>275.61536</ele>
        <time>2023-06-10T08:01:10.000Z</time>
      </trkpt>
      <trkpt lat="45.83872" lon="4.72417">
        <ele>275.31036</ele>
        <time>2023-06-10T08:01:11.000Z</time>
      </trkpt>
      <trkpt lat="45.83865" lon="4.72421">
        <ele>275.0386</ele>
        <time>2023-06-10T08:01:12.000Z</time>
      </trkpt>
      <trkpt lat="45.83859" lon="4.72423">
        <ele>274.7431</ele>
        <time>2023-06-10T08:01:13.000Z</time>
      </trkpt>
      <trkpt lat="45.83854" lon="4.72427">
        <ele>274.28186</ele>
        <time>2023-06-10T08:01:14.000Z</time>
      </trkpt>
      <trkpt lat="45.8385" lon="4.72431">
        <ele>273.72812</ele>
        <time>2023-06-10T08:01:15.000Z</time>
      </trkpt>
      <trkpt lat="45.83847" lon="4.72435">
        <ele>273.17816</ele>
        <time>2023-06-10T08:01:16.000Z</time>
      </trkpt>
      <trkpt lat="45.83844" lon="4.72441">
        <ele>272.95688</ele>
        <time>2023-06-10T08:01:17.000Z</time>
      </trkpt>
      <trkpt lat="45.83841" lon="4.72447">
        <ele>272.66644</ele>
        <time>2023-06-10T08:01:18.000Z</time>
      </trkpt>
      <trkpt lat="45.8384" lon="4.72452">
        <ele>272.32648</ele>
        <time>2023-06-10T08:01:19.000Z</time>
      </trkpt>
      <trkpt lat="45.83839" lon="4.72457">
        <ele>272.15341</ele>
        <time>2023-06-10T08:01:20.000Z</time>
      </trkpt>
      <trkpt lat="45.83839" lon="4.72465">
        <ele>271.97699</ele>
        <time>2023-06-10T08:01:21.000Z</time>
      </trkpt>
      <trkpt lat="45.8384" lon="4.7247">
        <ele>271.79092</ele>
        <time>2023-06-10T08:01:22.000Z</time>
      </trkpt>
      <trkpt lat="45.83842" lon="4.72478">
        <ele>271.65991</ele>
        <time>2023-06-10T08:01:23.000Z</time>
      </trkpt>
      <trkpt lat="45.83842" lon="4.72484">
        <ele>271.68192</ele>
        <time>2023-06-10T08:01:24.000Z</time>
      </trkpt>
      <trkpt lat="45.8384" lon="4.72492">
        <ele>271.87701</ele>
        <time>2023-06-10T08:01:25.000Z</time>
      </trkpt>
      <trkpt lat="45.83839" lon="4.72501">
        <ele>272.33093</ele>
        <time>2023-06-10T08:01:26.000Z</time>
      </trkpt>
      <trkpt lat="45.83839" lon="4.7251">
        <ele>272.45084</ele>
        <time>2023-06-10T08:01:27.000Z</time>
      </trkpt>
      <trkpt lat="45.83839" lon="4.72518">
        <ele>272.63474</ele>
        <time>2023-06-10T08:01:28.000Z</time>
      </trkpt>
      <trkpt lat="45.8384" lon="4.72525">
        <ele>272.80054</ele>
        <time>2023-06-10T08:01:29.000Z</time>
      </trkpt>
      <trkpt lat="45.83839" lon="4.72533">
        <ele>272.96933</ele>
        <time>2023-06-10T08:01:30.000Z</time>
      </trkpt>
      <trkpt lat="45.83838" lon="4.7254">
        <ele>273.07632</ele>
        <time>2023-06-10T08:01:31.000Z</time>
      </trkpt>
      <trkpt lat="45.83836" lon="4.72548">
        <ele>273.2005</ele>
        <time>2023-06-10T08:01:32.000Z</time>
      </trkpt>
      <trkpt lat="45.83834" lon="4.72556">
        <ele>273.48062</ele>
        <time>2023-06-10T08:01:33.000Z</time>
      </trkpt>
      <trkpt lat="45.83832" lon="4.72563">
        <ele>273.83847</ele>
        <time>2023-06-10T08:01:34.000Z</time>
      </trkpt>
      <trkpt lat="45.8383" lon="4.72568">
        <ele>274.42825</ele>
        <time>2023-06-10T08:01:35.000Z</time>
      </trkpt>
      <trkpt lat="45.83828" lon="4.72574">
        <ele>275.11417</ele>
        <time>2023-06-10T08:01:36.000Z</time>
      </trkpt>
      <trkpt lat="45.83827" lon="4.7258">
        <ele>275.43158</ele>
        <time>2023-06-10T08:01:37.000Z</time>
      </trkpt>
      <trkpt lat="45.83825" lon="4.72585">
        <ele>275.7872</ele>
        <time>2023-06-10T08:01:38.000Z</time>
      </trkpt>
      <trkpt lat="45.83824" lon="4.7259">
        <ele>276.08795</ele>
        <time>2023-06-10T08:01:39.000Z</time>
      </trkpt>
      <trkpt lat="45.83823" lon="4.72594">
        <ele>276.25433</ele>
        <time>2023-06-10T08:01:40.000Z</time>
      </trkpt>
      <trkpt lat="45.83821" lon="4.72598">
        <ele>276.42279</ele>
        <time>2023-06-10T08:01:41.000Z</time>
      </trkpt>
      <trkpt lat="45.83819" lon="4.726">
        <ele>276.53348</ele>
        <time>2023-06-10T08:01:42.000Z</time>
      </trkpt>
      <trkpt lat="45.83815" lon="4.72603">
        <ele>276.539</ele>
        <time>2023-06-10T08:01:43.000Z</time>
      </trkpt>
      <trkpt lat="45.83812" lon="4.72606">
        <ele>276.36237</ele>
        <time>2023-06-10T08:01:44.000Z</time>
      </trkpt>
      <trkpt lat="45.83808" lon="4.72608">
        <ele>276.01389</ele>
        <time>2023-06-10T08:01:45.000Z</time>
      </trkpt>
      <trkpt lat="45.83802" lon="4.7261">
        <ele>275.44867</ele>
        <time>2023-06-10T08:01:46.000Z</time>
      </trkpt>
      <trkpt lat="45.83797" lon="4.72613">
        <ele>275.3465</ele>
        <time>2023-06-10T08:01:47.000Z</time>
      </trkpt>
      <trkpt lat="45.83792" lon="4.72616">
        <ele>275.43326</ele>
        <time>2023-06-10T08:01:48.000Z</time>
      </trkpt>
      <trkpt lat="45.83787" lon="4.72618">
        <ele>275.47955</ele>
        <time>2023-06-10T08:01:49.000Z</time>
      </trkpt>
      <trkpt lat="45.83781" lon="4.7262">
        <ele>275.53647</ele>
        <time>2023-06-10T08:01:50.000Z</time>
      </trkpt>
      <trkpt lat="45.83776" lon="4.72621">
        <ele>275.82156</ele>
        <time>2023-06-10T08:01:51.000Z</time>
      </trkpt>
      <trkpt lat="45.83772" lon="4.72624">
        <ele>276.13629</ele>
        <time>2023-06-10T08:01:52.000Z</time>
      </trkpt>
      <trkpt lat="45.83768" lon="4.72625">
        <ele>275.83624</ele>
        <time>2023-06-10T08:01:53.000Z</time>
      </trkpt>
      <trkpt lat="45.83763" lon="4.72627">
        <ele>275.53922</ele>
        <time>2023-06-10T08:01:54.000Z</time>
      </trkpt>
      <trkpt lat="45.83758" lon="4.72627">
        <ele>274.99966</ele>
        <time>2023-06-10T08:01:55.000Z</time>
      </trkpt>
      <trkpt lat="45.83754" lon="4.72628">
        <ele>274.39371</ele>
        <time>2023-06-10T08:01:56.000Z</time>
      </trkpt>
      <trkpt lat="45.8375" lon="4.72629">
        <ele>274.15903</ele>
        <time>2023-06-10T08:01:57.000Z</time>
      </trkpt>
      <trkpt lat="45.83745" lon="4.7263">
        <ele>273.97943</ele>
        <time>2023-06-10T08:01:58.000Z</time>
      </trkpt>
      <trkpt lat="45.83741" lon="4.72631">
        <ele>273.90726</ele>
        <time>2023-06-10T08:01:59.000Z</time>
      </trkpt>
      <trkpt lat="45.83736" lon="4.72633">
        <ele>273.78397</ele>
        <time>2023-06-10T08:02:00.000Z</time>
      </trkpt>
      <trkpt lat="45.83732" lon="4.72634">
        <ele>273.737</ele>
        <time>2023-06-10T08:02:01.000Z</time>
      </trkpt>
      <trkpt lat="45.83728" lon="4.72637">
        <ele>273.7547</ele>
        <time>2023-06-10T08:02:02.000Z</time>
      </trkpt>
      <trkpt lat="45.83723" lon="4.72641">
        <ele>273.86969</ele>
        <time>2023-06-10T08:02:03.000Z</time>
      </trkpt>
      <trkpt lat="45.83718" lon="4.72644">
        <ele>274.05316</ele>
        <time>2023-06-10T08:02:04.000Z</time>
      </trkpt>
      <trkpt lat="45.83716" lon="4.72645">
        <ele>274.32947</ele>
        <time>2023-06-10T08:02:05.000Z</time>
      </trkpt>
      <trkpt lat="45.83712" lon="4.72648">
        <ele>274.55865</ele>
        <time>2023-06-10T08:02:06.000Z</time>
      </trkpt>
      <trkpt lat="45.83707" lon="4.72648">
        <ele>274.76294</ele>
        <time>2023-06-10T08:02:07.000Z</time>
      </trkpt>
      <trkpt lat="45.83702" lon="4.72651">
        <ele>274.70468</ele>
        <time>2023-06-10T08:02:08.000Z</time>
      </trkpt>
      <trkpt lat="45.83698" lon="4.72653">
        <ele>274.69049</ele>
        <time>2023-06-10T08:02:09.000Z</time>
      </trkpt>
      <trkpt lat="45.83693" lon="4.72654">
        <ele>274.62454</ele>
        <time>2023-06-10T08:02:10.000Z</time>
      </trkpt>
      <trkpt lat="45.83689" lon="4.72656">
        <ele>274.41931</ele>
        <time>2023-06-10T08:02:11.000Z</time>
      </trkpt>
      <trkpt lat="45.83685" lon="4.72658">
        <ele>274.19318</ele>
        <time>2023-06-10T08:02:12.000Z</time>
      </trkpt>
      <trkpt lat="45.83681" lon="4.72659">
        <ele>274.76508</ele>
        <time>2023-06-10T08:02:13.000Z</time>
      </trkpt>
      <trkpt lat="45.83677" lon="4.7266">
        <ele>275.10077</ele>
        <time>2023-06-10T08:02:14.000Z</time>
      </trkpt>
      <trkpt lat="45.83674" lon="4.72661">
        <ele>275.56683</ele>
        <time>2023-06-10T08:02:15.000Z</time>
      </trkpt>
      <trkpt lat="45.8367" lon="4.72662">
        <ele>276.0976</ele>
        <time>2023-06-10T08:02:16.000Z</time>
      </trkpt>
      <trkpt lat="45.83667" lon="4.72663">
        <ele>276.31281</ele>
        <time>2023-06-10T08:02:17.000Z</time>
      </trkpt>
      <trkpt lat="45.83663" lon="4.72665">
        <ele>276.55035</ele>
        <time>2023-06-10T08:02:18.000Z</time>
      </trkpt>
      <trkpt lat="45.83659" lon="4.72667">
        <ele>276.76279</ele>
        <time>2023-06-10T08:02:19.000Z</time>
      </trkpt>
      <trkpt lat="45.83656" lon="4.72668">
        <ele>277.10565</ele>
        <time>2023-06-10T08:02:20.000Z</time>
      </trkpt>
      <trkpt lat="45.83652" lon="4.72669">
        <ele>277.48538</ele>
        <time>2023-06-10T08:02:21.000Z</time>
      </trkpt>
      <trkpt lat="45.83648" lon="4.72671">
        <ele>277.78015</ele>
        <time>2023-06-10T08:02:22.000Z</time>
      </trkpt>
      <trkpt lat="45.83645" lon="4.72673">
        <ele>278.04086</ele>
        <time>2023-06-10T08:02:23.000Z</time>
      </trkpt>
      <trkpt lat="45.83642" lon="4.72675">
        <ele>278.30676</ele>
        <time>2023-06-10T08:02:24.000Z</time>
      </trkpt>
      <trkpt lat="45.83639" lon="4.72676">
        <ele>278.58002</ele>
        <time>2023-06-10T08:02:25.000Z</time>
      </trkpt>
      <trkpt lat="45.83636" lon="4.72678">
        <ele>278.90021</ele>
        <time>2023-06-10T08:02:26.000Z</time>
      </trkpt>
      <trkpt lat="45.83632" lon="4.72681">
        <ele>279.33716</ele>
        <time>2023-06-10T08:02:27.000Z</time>
      </trkpt>
      <trkpt lat="45.83629" lon="4.72683">
        <ele>279.83218</ele>
        <time>2023-06-10T08:02:28.000Z</time>
      </trkpt>
      <trkpt lat="45.83626" lon="4.72686">
        <ele>280.39542</ele>
        <time>2023-06-10T08:02:29.000Z</time>
      </trkpt>
      <trkpt lat="45.83623" lon="4.7269">
        <ele>280.71405</ele>
        <time>2023-06-10T08:02:30.000Z</time>
      </trkpt>
      <trkpt lat="45.8362" lon="4.72694">
        <ele>281.05255</ele>
        <time>2023-06-10T08:02:31.000Z</time>
      </trkpt>
      <trkpt lat="45.83618" lon="4.72698">
        <ele>281.35748</ele>
        <time>2023-06-10T08:02:32.000Z</time>
      </trkpt>
      <trkpt lat="45.83615" lon="4.72701">
        <ele>281.33487</ele>
        <time>2023-06-10T08:02:33.000Z</time>
      </trkpt>
      <trkpt lat="45.83612" lon="4.72705">
        <ele>281.4827</ele>
        <time>2023-06-10T08:02:34.000Z</time>
      </trkpt>
      <trkpt lat="45.83609" lon="4.72707">
        <ele>281.23785</ele>
        <time>2023-06-10T08:02:35.000Z</time>
      </trkpt>
      <trkpt lat="45.83605" lon="4.72709">
        <ele>280.9035</ele>
        <time>2023-06-10T08:02:36.000Z</time>
      </trkpt>
      <trkpt lat="45.83602" lon="4.7271">
        <ele>280.83405</ele>
        <time>2023-06-10T08:02:37.000Z</time>
      </trkpt>
      <trkpt lat="45.83599" lon="4.72711">
        <ele>280.63971</ele>
        <time>2023-06-10T08:02:38.000Z</time>
      </trkpt>
      <trkpt lat="45.83596" lon="4.72712">
        <ele>280.44757</ele>
        <time>2023-06-10T08:02:39.000Z</time>
      </trkpt>
      <trkpt lat="45.83594" lon="4.72713">
        <ele>280.24796</ele>
        <time>2023-06-10T08:02:40.000Z</time>
      </trkpt>
      <trkpt lat="45.83591" lon="4.72715">
        <ele>280.02191</ele>
        <time>2023-06-10T08:02:41.000Z</time>
      </trkpt>
      <trkpt lat="45.83589" lon="4.72718">
        <ele>279.7908</ele>
        <time>2023-06-10T08:02:42.000Z</time>
      </trkpt>
      <trkpt lat="45.83586" lon="4.7272">
        <ele>279.85638</ele>
        <time>2023-06-10T08:02:43.000Z</time>
      </trkpt>
      <trkpt lat="45.83583" lon="4.72723">
        <ele>279.88025</ele>
        <time>2023-06-10T08:02:44.000Z</time>
      </trkpt>
      <trkpt lat="45.83579" lon="4.72726">
        <ele>279.35001</ele>
        <time>2023-06-10T08:02:45.000Z</time>
      </trkpt>
      <trkpt lat="45.83576" lon="4.72728">
        <ele>278.79736</ele>
        <time>2023-06-10T08:02:46.000Z</time>
      </trkpt>
      <trkpt lat="45.83573" lon="4.72732">
        <ele>278.60651</ele>
        <time>2023-06-10T08:02:47.000Z</time>
      </trkpt>
      <trkpt lat="45.8357" lon="4.72734">
        <ele>278.42639</ele>
        <time>2023-06-10T08:02:48.000Z</time>
      </trkpt>
      <trkpt lat="45.83566" lon="4.72736">
        <ele>278.19678</ele>
        <time>2023-06-10T08:02:49.000Z</time>
      </trkpt>
      <trkpt lat="45.83563" lon="4.72737">
        <ele>277.96237</ele>
        <time>2023-06-10T08:02:50.000Z</time>
      </trkpt>
      <trkpt lat="45.83559" lon="4.72738">
        <ele>277.75311</ele>
        <time>2023-06-10T08:02:51.000Z</time>
      </trkpt>
      <trkpt lat="45.83556" lon="4.72739">
        <ele>277.57968</ele>
        <time>2023-06-10T08:02:52.000Z</time>
      </trkpt>
      <trkpt lat="45.83553" lon="4.7274">
        <ele>277.4577</ele>
        <time>2023-06-10T08:02:53.000Z</time>
      </trkpt>
      <trkpt lat="45.83549" lon="4.72743">
        <ele>277.38062</ele>
        <time>2023-06-10T08:02:54.000Z</time>
      </trkpt>
      <trkpt lat="45.83546" lon="4.72743">
        <ele>277.54681</ele>
        <time>2023-06-10T08:02:55.000Z</time>
      </trkpt>
      <trkpt lat="45.83543" lon="4.72744">
        <ele>277.74542</ele>
        <time>2023-06-10T08:02:56.000Z</time>
      </trkpt>
      <trkpt lat="45.83539" lon="4.72745">
        <ele>278.14084</ele>
        <time>2023-06-10T08:02:57.000Z</time>
      </trkpt>
      <trkpt lat="45.83536" lon="4.72746">
        <ele>278.63019</ele>
        <time>2023-06-10T08:02:58.000Z</time>
      </trkpt>
      <trkpt lat="45.83532" lon="4.72747">
        <ele>279.16699</ele>
        <time>2023-06-10T08:02:59.000Z</time>
      </trkpt>
      <trkpt lat="45.83529" lon="4.72748">
        <ele>279.3728</ele>
        <time>2023-06-10T08:03:00.000Z</time>
      </trkpt>
      <trkpt lat="45.83525" lon="4.72748">
        <ele>279.61725</ele>
        <time>2023-06-10T08:03:01.000Z</time>
      </trkpt>
      <trkpt lat="45.83521" lon="4.72749">
        <ele>279.93793</ele>
        <time>2023-06-10T08:03:02.000Z</time>
      </trkpt>
      <trkpt lat="45.83517" lon="4.7275">
        <ele>279.9545</ele>
        <time>2023-06-10T08:03:03.000Z</time>
      </trkpt>
      <trkpt lat="45.83514" lon="4.72751">
        <ele>279.9671</ele>
        <time>2023-06-10T08:03:04.000Z</time>
      </trkpt>
      <trkpt lat="45.8351" lon="4.72752">
        <ele>280.56705</ele>
        <time>2023-06-10T08:03:05.000Z</time>
      </trkpt>
      <trkpt lat="45.83506" lon="4.72752">
        <ele>281.1857</ele>
        <time>2023-06-10T08:03:06.000Z</time>
      </trkpt>
      <trkpt lat="45.83503" lon="4.72754">
        <ele>281.21405</ele>
        <time>2023-06-10T08:03:07.000Z</time>
      </trkpt>
      <trkpt lat="45.835" lon="4.72755">
        <ele>281.20602</ele>
        <time>2023-06-10T08:03:08.000Z</time>
      </trkpt>
      <trkpt lat="45.83497" lon="4.72757">
        <ele>281.20715</ele>
        <time>2023-06-10T08:03:09.000Z</time>
      </trkpt>
      <trkpt lat="45.83493" lon="4.72758">
        <ele>281.49786</ele>
        <time>2023-06-10T08:03:10.000Z</time>
      </trkpt>
      <trkpt lat="45.8349" lon="4.7276">
        <ele>281.72305</ele>
        <time>2023-06-10T08:03:11.000Z</time>
      </trkpt>
      <trkpt lat="45.83486" lon="4.72761">
        <ele>282.03326</ele>
        <time>2023-06-10T08:03:12.000Z</time>
      </trkpt>
      <trkpt lat="45.83482" lon="4.72762">
        <ele>282.24457</ele>
        <time>2023-06-10T08:03:13.000Z</time>
      </trkpt>
      <trkpt lat="45.83478" lon="4.72763">
        <ele>282.38031</ele>
        <time>2023-06-10T08:03:14.000Z</time>
      </trkpt>
      <trkpt lat="45.83475" lon="4.72764">
        <ele>282.48734</ele>
        <time>2023-06-10T08:03:15.000Z</time>
      </trkpt>
      <trkpt lat="45.83471" lon="4.72764">
        <ele>282.5722</ele>
        <time>2023-06-10T08:03:16.000Z</time>
      </trkpt>
      <trkpt lat="45.83468" lon="4.72764">
        <ele>282.45093</ele>
        <time>2023-06-10T08:03:17.000Z</time>
      </trkpt>
      <trkpt lat="45.83464" lon="4.72765">
        <ele>282.27264</ele>
        <time>2023-06-10T08:03:18.000Z</time>
      </trkpt>
      <trkpt lat="45.8346" lon="4.72767">
        <ele>282.03769</ele>
        <time>2023-06-10T08:03:19.000Z</time>
      </trkpt>
      <trkpt lat="45.83455" lon="4.7277">
        <ele>282.13586</ele>
        <time>2023-06-10T08:03:20.000Z</time>
      </trkpt>
      <trkpt lat="45.83451" lon="4.72772">
        <ele>282.1727</ele>
        <time>2023-06-10T08:03:21.000Z</time>
      </trkpt>
      <trkpt lat="45.83447" lon="4.72774">
        <ele>282.1965</ele>
        <time>2023-06-10T08:03:22.000Z</time>
      </trkpt>
      <trkpt lat="45.83443" lon="4.72775">
        <ele>282.26724</ele>
        <time>2023-06-10T08:03:23.000Z</time>
      </trkpt>
      <trkpt lat="45.83439" lon="4.72777">
        <ele>282.36932</ele>
        <time>2023-06-10T08:03:24.000Z</time>
      </trkpt>
      <trkpt lat="45.83434" lon="4.7278">
        <ele>282.37415</ele>
        <time>2023-06-10T08:03:25.000Z</time>
      </trkpt>
      <trkpt lat="45.83432" lon="4.72783">
        <ele>282.46228</ele>
        <time>2023-06-10T08:03:26.000Z</time>
      </trkpt>
      <trkpt lat="45.8343" lon="4.72787">
        <ele>282.62347</ele>
        <time>2023-06-10T08:03:27.000Z</time>
      </trkpt>
      <trkpt lat="45.83429" lon="4.72792">
        <ele>282.91241</ele>
        <time>2023-06-10T08:03:28.000Z</time>
      </trkpt>
      <trkpt lat="45.83429" lon="4.72797">
        <ele>283.22055</ele>
        <time>2023-06-10T08:03:29.000Z</time>
      </trkpt>
      <trkpt lat="45.83429" lon="4.72803">
        <ele>283.26236</ele>
        <time>2023-06-10T08:03:30.000Z</time>
      </trkpt>
      <trkpt lat="45.8343" lon="4.7281">
        <ele>283.34772</ele>
        <time>2023-06-10T08:03:31.000Z</time>
      </trkpt>
      <trkpt lat="45.8343" lon="4.72816">
        <ele>283.41119</ele>
        <time>2023-06-10T08:03:32.000Z</time>
      </trkpt>
      <trkpt lat="45.83431" lon="4.72822">
        <ele>283.56918</ele>
        <time>2023-06-10T08:03:33.000Z</time>
      </trkpt>
      <trkpt lat="45.83432" lon="4.72826">
        <ele>283.76251</ele>
        <time>2023-06-10T08:03:34.000Z</time>
      </trkpt>
      <trkpt lat="45.83432" lon="4.72831">
        <ele>284.02277</ele>
        <time>2023-06-10T08:03:35.000Z</time>
      </trkpt>
      <trkpt lat="45.83433" lon="4.72837">
        <ele>284.18634</ele>
        <time>2023-06-10T08:03:36.000Z</time>
      </trkpt>
      <trkpt lat="45.83434" lon="4.72841">
        <ele>284.47119</ele>
        <time>2023-06-10T08:03:37.000Z</time>
      </trkpt>
      <trkpt lat="45.83435" lon="4.72845">
        <ele>284.70593</ele>
        <time>2023-06-10T08:03:38.000Z</time>
      </trkpt>
      <trkpt lat="45.83436" lon="4.7285">
        <ele>284.88937</ele>
        <time>2023-06-10T08:03:39.000Z</time>
      </trkpt>
      <trkpt lat="45.83436" lon="4.72855">
        <ele>284.95337</ele>
        <time>2023-06-10T08:03:40.000Z</time>
      </trkpt>
      <trkpt lat="45.83437" lon="4.72861">
        <ele>285.22687</ele>
        <time>2023-06-10T08:03:41.000Z</time>
      </trkpt>
      <trkpt lat="45.83438" lon="4.72867">
        <ele>285.58075</ele>
        <time>2023-06-10T08:03:42.000Z</time>
      </trkpt>
      <trkpt lat="45.83439" lon="4.72872">
        <ele>285.50677</ele>
        <time>2023-06-10T08:03:43.000Z</time>
      </trkpt>
      <trkpt lat="45.8344" lon="4.72878">
        <ele>285.53287</ele>
        <time>2023-06-10T08:03:44.000Z</time>
      </trkpt>
      <trkpt lat="45.83441" lon="4.72883">
        <ele>285.60284</ele>
        <time>2023-06-10T08:03:45.000Z</time>
      </trkpt>
      <trkpt lat="45.83442" lon="4.72888">
        <ele>285.57172</ele>
        <time>2023-06-10T08:03:46.000Z</time>
      </trkpt>
      <trkpt lat="45.83442" lon="4.72893">
        <ele>285.49011</ele>
        <time>2023-06-10T08:03:47.000Z</time>
      </trkpt>
      <trkpt lat="45.83443" lon="4.72898">
        <ele>285.40549</ele>
        <time>2023-06-10T08:03:48.000Z</time>
      </trkpt>
      <trkpt lat="45.83443" lon="4.72903">
        <ele>285.23056</ele>
        <time>2023-06-10T08:03:49.000Z</time>
      </trkpt>
      <trkpt lat="45.83444" lon="4.72907">
        <ele>285.45599</ele>
        <time>2023-06-10T08:03:50.000Z</time>
      </trkpt>
      <trkpt lat="45.83444" lon="4.72911">
        <ele>285.72534</ele>
        <time>2023-06-10T08:03:51.000Z</time>
      </trkpt>
      <trkpt lat="45.83446" lon="4.72916">
        <ele>285.59845</ele>
        <time>2023-06-10T08:03:52.000Z</time>
      </trkpt>
      <trkpt lat="45.83447" lon="4.7292">
        <ele>285.56146</ele>
        <time>2023-06-10T08:03:53.000Z</time>
      </trkpt>
      <trkpt lat="45.83448" lon="4.72925">
        <ele>285.57166</ele>
        <time>2023-06-10T08:03:54.000Z</time>
      </trkpt>
      <trkpt lat="45.8345" lon="4.7293">
        <ele>285.57324</ele>
        <time>2023-06-10T08:03:55.000Z</time>
      </trkpt>
      <trkpt lat="45.83451" lon="4.72934">
        <ele>285.71796</ele>
        <time>2023-06-10T08:03:56.000Z</time>
      </trkpt>
      <trkpt lat="45.83453" lon="4.72939">
        <ele>285.95123</ele>
        <time>2023-06-10T08:03:57.000Z</time>
      </trkpt>
      <trkpt lat="45.83455" lon="4.72944">
        <ele>286.2995</ele>
        <time>2023-06-10T08:03:58.000Z</time>
      </trkpt>
      <trkpt lat="45.83457" lon="4.72949">
        <ele>286.7793</ele>
        <time>2023-06-10T08:03:59.000Z</time>
      </trkpt>
      <trkpt lat="45.83459" lon="4.72953">
        <ele>286.98462</ele>
        <time>2023-06-10T08:04:00.000Z</time>
      </trkpt>
      <trkpt lat="45.8346" lon="4.72958">
        <ele>287.07465</ele>
        <time>2023-06-10T08:04:01.000Z</time>
      </trkpt>
      <trkpt lat="45.83461" lon="4.72961">
        <ele>287.17776</ele>
        <time>2023-06-10T08:04:02.000Z</time>
      </trkpt>
      <trkpt lat="45.83462" lon="4.72964">
        <ele>287.62766</ele>
        <time>2023-06-10T08:04:03.000Z</time>
      </trkpt>
      <trkpt lat="45.83462" lon="4.72968">
        <ele>287.98578</ele>
        <time>2023-06-10T08:04:04.000Z</time>
      </trkpt>
      <trkpt lat="45.83464" lon="4.72973">
        <ele>288.31332</ele>
        <time>2023-06-10T08:04:05.000Z</time>
      </trkpt>
      <trkpt lat="45.83465" lon="4.72978">
        <ele>288.60355</ele>
        <time>2023-06-10T08:04:06.000Z</time>
      </trkpt>
      <trkpt lat="45.83467" lon="4.72982">
        <ele>288.9985</ele>
        <time>2023-06-10T08:04:07.000Z</time>
      </trkpt>
      <trkpt lat="45.83468" lon="4.72986">
        <ele>289.3421</ele>
        <time>2023-06-10T08:04:08.000Z</time>
      </trkpt>
      <trkpt lat="45.83469" lon="4.72989">
        <ele>289.7261</ele>
        <time>2023-06-10T08:04:09.000Z</time>
      </trkpt>
      <trkpt lat="45.8347" lon="4.72992">
        <ele>289.73947</ele>
        <time>2023-06-10T08:04:10.000Z</time>
      </trkpt>
      <trkpt lat="45.83471" lon="4.72994">
        <ele>289.5498</ele>
        <time>2023-06-10T08:04:15.000Z</time>
      </trkpt>
      <trkpt lat="45.83472" lon="4.72995">
        <ele>289.8367</ele>
        <time>2023-06-10T08:04:19.000Z</time>
      </trkpt>
      <trkpt lat="45.83474" lon="4.72997">
        <ele>289.86896</ele>
        <time>2023-06-10T08:05:25.000Z</time>
      </trkpt>
      <trkpt lat="45.83474" lon="4.72999">
        <ele>289.9278</ele>
        <time>2023-06-10T08:05:53.000Z</time>
      </trkpt>
      <trkpt lat="45.83475" lon="4.73004">
        <ele>290.02689</ele>
        <time>2023-06-10T08:05:55.000Z</time>
      </trkpt>
      <trkpt lat="45.83476" lon="4.73007">
        <ele>290.02777</ele>
        <time>2023-06-10T08:05:56.000Z</time>
      </trkpt>
      <trkpt lat="45.83477" lon="4.7301">
        <ele>289.82712</ele>
        <time>2023-06-10T08:05:57.000Z</time>
      </trkpt>
      <trkpt lat="45.83478" lon="4.73014">
        <ele>289.47958</ele>
        <time>2023-06-10T08:05:58.000Z</time>
      </trkpt>
      <trkpt lat="45.83479" lon="4.73017">
        <ele>289.0433</ele>
        <time>2023-06-10T08:05:59.000Z</time>
      </trkpt>
      <trkpt lat="45.8348" lon="4.73021">
        <ele>288.99304</ele>
        <time>2023-06-10T08:06:00.000Z</time>
      </trkpt>
      <trkpt lat="45.8348" lon="4.73024">
        <ele>288.87317</ele>
        <time>2023-06-10T08:06:01.000Z</time>
      </trkpt>
      <trkpt lat="45.83483" lon="4.73027">
        <ele>288.74606</ele>
        <time>2023-06-10T08:06:02.000Z</time>
      </trkpt>
      <trkpt lat="45.83485" lon="4.7303">
        <ele>288.6842</ele>
        <time>2023-06-10T08:06:03.000Z</time>
      </trkpt>
      <trkpt lat="45.83488" lon="4.73033">
        <ele>288.60831</ele>
        <time>2023-06-10T08:06:04.000Z</time>
      </trkpt>
      <trkpt lat="45.8349" lon="4.73036">
        <ele>288.46671</ele>
        <time>2023-06-10T08:06:05.000Z</time>
      </trkpt>
      <trkpt lat="45.83493" lon="4.73038">
        <ele>288.4321</ele>
        <time>2023-06-10T08:06:06.000Z</time>
      </trkpt>
      <trkpt lat="45.83496" lon="4.73041">
        <ele>288.30832</ele>
        <time>2023-06-10T08:06:07.000Z</time>
      </trkpt>
      <trkpt lat="45.83499" lon="4.73043">
        <ele>288.16248</ele>
        <time>2023-06-10T08:06:08.000Z</time>
      </trkpt>
      <trkpt lat="45.83502" lon="4.73046">
        <ele>288.034</ele>
        <time>2023-06-10T08:06:09.000Z</time>
      </trkpt>
      <trkpt lat="45.83505" lon="4.7305">
        <ele>288.24182</ele>
        <time>2023-06-10T08:06:10.000Z</time>
      </trkpt>
      <trkpt lat="45.83508" lon="4.73054">
        <ele>288.49219</ele>
        <time>2023-06-10T08:06:11.000Z</time>
      </trkpt>
      <trkpt lat="45.83511" lon="4.73058">
        <ele>288.582</ele>
        <time>2023-06-10T08:06:12.000Z</time>
      </trkpt>
      <trkpt lat="45.83513" lon="4.73062">
        <ele>288.77545</ele>
        <time>2023-06-10T08:06:13.000Z</time>
      </trkpt>
      <trkpt lat="45.83515" lon="4.73065">
        <ele>288.90628</ele>
        <time>2023-06-10T08:06:14.000Z</time>
      </trkpt>
      <trkpt lat="45.83518" lon="4.73068">
        <ele>288.81784</ele>
        <time>2023-06-10T08:06:15.000Z</time>
      </trkpt>
      <trkpt lat="45.83521" lon="4.73069">
        <ele>288.79169</ele>
        <time>2023-06-10T08:06:16.000Z</time>
      </trkpt>
      <trkpt lat="45.83524" lon="4.7307">
        <ele>288.82947</ele>
        <time>2023-06-10T08:06:17.000Z</time>
      </trkpt>
      <trkpt lat="45.83527" lon="4.7307">
        <ele>288.93079</ele>
        <time>2023-06-10T08:06:18.000Z</time>
      </trkpt>
      <trkpt lat="45.8353" lon="4.73069">
        <ele>289.05096</ele>
        <time>2023-06-10T08:06:19.000Z</time>
      </trkpt>
      <trkpt lat="45.83532" lon="4.73068">
        <ele>289.24899</ele>
        <time>2023-06-10T08:06:20.000Z</time>
      </trkpt>
      <trkpt lat="45.83535" lon="4.73068">
        <ele>289.44839</ele>
        <time>2023-06-10T08:06:21.000Z</time>
      </trkpt>
      <trkpt lat="45.83538" lon="4.73068">
        <ele>289.60748</ele>
        <time>2023-06-10T08:06:22.000Z</time>
      </trkpt>
      <trkpt lat="45.83541" lon="4.73067">
        <ele>289.75821</ele>
        <time>2023-06-10T08:06:23.000Z</time>
      </trkpt>
      <trkpt lat="45.83544" lon="4.73065">
        <ele>289.89923</ele>
        <time>2023-06-10T08:06:24.000Z</time>
      </trkpt>
      <trkpt lat="45.83547" lon="4.73064">
        <ele>290.02267</ele>
        <time>2023-06-10T08:06:25.000Z</time>
      </trkpt>
      <trkpt lat="45.83551" lon="4.73063">
        <ele>290.17386</ele>
        <time>2023-06-10T08:06:26.000Z</time>
      </trkpt>
      <trkpt lat="45.83555" lon="4.73063">
        <ele>290.31934</ele>
        <time>2023-06-10T08:06:27.000Z</time>
      </trkpt>
      <trkpt lat="45.83559" lon="4.73062">
        <ele>290.49652</ele>
        <time>2023-06-10T08:06:28.000Z</time>
      </trkpt>
      <trkpt lat="45.83564" lon="4.73061">
        <ele>290.68887</ele>
        <time>2023-06-10T08:06:29.000Z</time>
      </trkpt>
      <trkpt lat="45.83568" lon="4.73059">
        <ele>290.44745</ele>
        <time>2023-06-10T08:06:30.000Z</time>
      </trkpt>
      <trkpt lat="45.83573" lon="4.73057">
        <ele>290.30563</ele>
        <time>2023-06-10T08:06:31.000Z</time>
      </trkpt>
      <trkpt lat="45.83577" lon="4.73056">
        <ele>290.19098</ele>
        <time>2023-06-10T08:06:32.000Z</time>
      </trkpt>
      <trkpt lat="45.83581" lon="4.73055">
        <ele>290.16113</ele>
        <time>2023-06-10T08:06:33.000Z</time>
      </trkpt>
      <trkpt lat="45.83585" lon="4.73053">
        <ele>290.17691</ele>
        <time>2023-06-10T08:06:34.000Z</time>
      </trkpt>
      <trkpt lat="45.8359" lon="4.73051">
        <ele>290.42773</ele>
        <time>2023-06-10T08:06:35.000Z</time>
      </trkpt>
      <trkpt lat="45.83594" lon="4.73049">
        <ele>290.59521</ele>
        <time>2023-06-10T08:06:36.000Z</time>
      </trkpt>
      <trkpt lat="45.83598" lon="4.73048">
        <ele>290.72821</ele>
        <time>2023-06-10T08:06:37.000Z</time>
      </trkpt>
      <trkpt lat="45.83603" lon="4.73047">
        <ele>290.867</ele>
        <time>2023-06-10T08:06:38.000Z</time>
      </trkpt>
      <trkpt lat="45.83607" lon="4.73046">
        <ele>290.91989</ele>
        <time>2023-06-10T08:06:39.000Z</time>
      </trkpt>
      <trkpt lat="45.83611" lon="4.73044">
        <ele>290.8432</ele>
        <time>2023-06-10T08:06:40.000Z</time>
      </trkpt>
      <trkpt lat="45.83616" lon="4.73042">
        <ele>290.76923</ele>
        <time>2023-06-10T08:06:41.000Z</time>
      </trkpt>
      <trkpt lat="45.83624" lon="4.73038">
        <ele>290.74722</ele>
        <time>2023-06-10T08:06:42.000Z</time>
      </trkpt>
      <trkpt lat="45.8363" lon="4.73035">
        <ele>290.81982</ele>
        <time>2023-06-10T08:06:43.000Z</time>
      </trkpt>
      <trkpt lat="45.83635" lon="4.73033">
        <ele>290.81891</ele>
        <time>2023-06-10T08:06:44.000Z</time>
      </trkpt>
      <trkpt lat="45.83642" lon="4.73031">
        <ele>290.93533</ele>
        <time>2023-06-10T08:06:45.000Z</time>
      </trkpt>
      <trkpt lat="45.8365" lon="4.73028">
        <ele>290.92688</ele>
        <time>2023-06-10T08:06:46.000Z</time>
      </trkpt>
      <trkpt lat="45.83657" lon="4.73025">
        <ele>291.04199</ele>
        <time>2023-06-10T08:06:47.000Z</time>
      </trkpt>
      <trkpt lat="45.83663" lon="4.73024">
        <ele>290.8428</ele>
        <time>2023-06-10T08:06:48.000Z</time>
      </trkpt>
      <trkpt lat="45.83669" lon="4.73023">
        <ele>290.68048</ele>
        <time>2023-06-10T08:06:49.000Z</time>
      </trkpt>
      <trkpt lat="45.83675" lon="4.73024">
        <ele>290.87134</ele>
        <time>2023-06-10T08:06:50.000Z</time>
      </trkpt>
      <trkpt lat="45.83681" lon="4.73022">
        <ele>291.02774</ele>
        <time>2023-06-10T08:06:51.000Z</time>
      </trkpt>
      <trkpt lat="45.83687" lon="4.73022">
        <ele>291.16925</ele>
        <time>2023-06-10T08:06:52.000Z</time>
      </trkpt>
      <trkpt lat="45.83695" lon="4.73018">
        <ele>291.27795</ele>
        <time>2023-06-10T08:06:53.000Z</time>
      </trkpt>
      <trkpt lat="45.83701" lon="4.73019">
        <ele>291.42349</ele>
        <time>2023-06-10T08:06:54.000Z</time>
      </trkpt>
      <trkpt lat="45.83707" lon="4.7302">
        <ele>291.50143</ele>
        <time>2023-06-10T08:06:55.000Z</time>
      </trkpt>
      <trkpt lat="45.83714" lon="4.73017">
        <ele>291.6051</ele>
        <time>2023-06-10T08:06:56.000Z</time>
      </trkpt>
      <trkpt lat="45.83719" lon="4.73016">
        <ele>291.68509</ele>
        <time>2023-06-10T08:06:57.000Z</time>
      </trkpt>
      <trkpt lat="45.83724" lon="4.73015">
        <ele>291.76273</ele>
        <time>2023-06-10T08:06:58.000Z</time>
      </trkpt>
      <trkpt lat="45.8373" lon="4.73018">
        <ele>291.87488</ele>
        <time>2023-06-10T08:06:59.000Z</time>
      </trkpt>
      <trkpt lat="45.83737" lon="4.73023">
        <ele>291.96439</ele>
        <time>2023-06-10T08:07:00.000Z</time>
      </trkpt>
      <trkpt lat="45.8374" lon="4.73029">
        <ele>291.9823</ele>
        <time>2023-06-10T08:07:01.000Z</time>
      </trkpt>
      <trkpt lat="45.83743" lon="4.73036">
        <ele>291.88223</ele>
        <time>2023-06-10T08:07:02.000Z</time>
      </trkpt>
      <trkpt lat="45.83746" lon="4.73042">
        <ele>291.82687</ele>
        <time>2023-06-10T08:07:03.000Z</time>
      </trkpt>
      <trkpt lat="45.83749" lon="4.7305">
        <ele>291.77054</ele>
        <time>2023-06-10T08:07:04.000Z</time>
      </trkpt>
      <trkpt lat="45.83751" lon="4.73056">
        <ele>291.67316</ele>
        <time>2023-06-10T08:07:05.000Z</time>
      </trkpt>
      <trkpt lat="45.83752" lon="4.73061">
        <ele>291.57697</ele>
        <time>2023-06-10T08:07:06.000Z</time>
      </trkpt>
      <trkpt lat="45.83751" lon="4.73066">
        <ele>291.43329</ele>
        <time>2023-06-10T08:07:07.000Z</time>
      </trkpt>
      <trkpt lat="45.8375" lon="4.7307">
        <ele>291.17328</ele>
        <time>2023-06-10T08:07:08.000Z</time>
      </trkpt>
      <trkpt lat="45.83749" lon="4.73075">
        <ele>290.94537</ele>
        <time>2023-06-10T08:07:09.000Z</time>
      </trkpt>
      <trkpt lat="45.83748" lon="4.73079">
        <ele>290.73651</ele>
        <time>2023-06-10T08:07:10.000Z</time>
      </trkpt>
      <trkpt lat="45.83752" lon="4.73086">
        <ele>290.52765</ele>
        <time>2023-06-10T08:07:11.000Z</time>
      </trkpt>
      <trkpt lat="45.83753" lon="4.7309">
        <ele>290.29486</ele>
        <time>2023-06-10T08:07:12.000Z</time>
      </trkpt>
      <trkpt lat="45.83756" lon="4.73094">
        <ele>290.19385</ele>
        <time>2023-06-10T08:07:13.000Z</time>
      </trkpt>
      <trkpt lat="45.83757" lon="4.73097">
        <ele>290.02029</ele>
        <time>2023-06-10T08:07:14.000Z</time>
      </trkpt>
      <trkpt lat="45.83758" lon="4.73102">
        <ele>289.85834</ele>
        <time>2023-06-10T08:07:15.000Z</time>
      </trkpt>
      <trkpt lat="45.83759" lon="4.73105">
        <ele>289.71805</ele>
        <time>2023-06-10T08:07:16.000Z</time>
      </trkpt>
      <trkpt lat="45.83761" lon="4.7311">
        <ele>289.77582</ele>
        <time>2023-06-10T08:07:17.000Z</time>
      </trkpt>
      <trkpt lat="45.83763" lon="4.73114">
        <ele>289.45261</ele>
        <time>2023-06-10T08:07:18.000Z</time>
      </trkpt>
      <trkpt lat="45.83764" lon="4.73119">
        <ele>289.23883</ele>
        <time>2023-06-10T08:07:19.000Z</time>
      </trkpt>
      <trkpt lat="45.83767" lon="4.73122">
        <ele>289.07767</ele>
        <time>2023-06-10T08:07:20.000Z</time>
      </trkpt>
      <trkpt lat="45.83769" lon="4.73125">
        <ele>289.02719</ele>
        <time>2023-06-10T08:07:21.000Z</time>
      </trkpt>
      <trkpt lat="45.83771" lon="4.73129">
        <ele>288.98071</ele>
        <time>2023-06-10T08:07:22.000Z</time>
      </trkpt>
      <trkpt lat="45.83771" lon="4.73133">
        <ele>288.90524</ele>
        <time>2023-06-10T08:07:23.000Z</time>
      </trkpt>
      <trkpt lat="45.83772" lon="4.73136">
        <ele>288.92761</ele>
        <time>2023-06-10T08:07:24.000Z</time>
      </trkpt>
      <trkpt lat="45.83773" lon="4.7314">
        <ele>288.97052</ele>
        <time>2023-06-10T08:07:25.000Z</time>
      </trkpt>
      <trkpt lat="45.83775" lon="4.73143">
        <ele>289.10193</ele>
        <time>2023-06-10T08:07:26.000Z</time>
      </trkpt>
      <trkpt lat="45.83777" lon="4.73145">
        <ele>289.26651</ele>
        <time>2023-06-10T08:07:27.000Z</time>
      </trkpt>
      <trkpt lat="45.83778" lon="4.73148">
        <ele>289.55722</ele>
        <time>2023-06-10T08:07:28.000Z</time>
      </trkpt>
      <trkpt lat="45.83779" lon="4.73154">
        <ele>289.84033</ele>
        <time>2023-06-10T08:07:30.000Z</time>
      </trkpt>
      <trkpt lat="45.8378" lon="4.73158">
        <ele>290.07867</ele>
        <time>2023-06-10T08:07:31.000Z</time>
      </trkpt>
      <trkpt lat="45.8378" lon="4.73162">
        <ele>290.31961</ele>
        <time>2023-06-10T08:07:32.000Z</time>
      </trkpt>
      <trkpt lat="45.83781" lon="4.73166">
        <ele>290.55692</ele>
        <time>2023-06-10T08:07:33.000Z</time>
      </trkpt>
      <trkpt lat="45.83781" lon="4.7317">
        <ele>290.6394</ele>
        <time>2023-06-10T08:07:34.000Z</time>
      </trkpt>
      <trkpt lat="45.83782" lon="4.73174">
        <ele>290.84</ele>
        <time>2023-06-10T08:07:35.000Z</time>
      </trkpt>
      <trkpt lat="45.83781" lon="4.73178">
        <ele>290.94595</ele>
        <time>2023-06-10T08:07:36.000Z</time>
      </trkpt>
      <trkpt lat="45.83779" lon="4.73182">
        <ele>291.04971</ele>
        <time>2023-06-10T08:07:37.000Z</time>
      </trkpt>
      <trkpt lat="45.83777" lon="4.73185">
        <ele>290.93527</ele>
        <time>2023-06-10T08:07:38.000Z</time>
      </trkpt>
      <trkpt lat="45.83774" lon="4.73187">
        <ele>291.19485</ele>
        <time>2023-06-10T08:07:39.000Z</time>
      </trkpt>
      <trkpt lat="45.83771" lon="4.7319">
        <ele>291.44797</ele>
        <time>2023-06-10T08:07:40.000Z</time>
      </trkpt>
      <trkpt lat="45.83768" lon="4.73193">
        <ele>291.7171</ele>
        <time>2023-06-10T08:07:41.000Z</time>
      </trkpt>
      <trkpt lat="45.83765" lon="4.73196">
        <ele>291.69525</ele>
        <time>2023-06-10T08:07:42.000Z</time>
      </trkpt>
      <trkpt lat="45.83762" lon="4.73199">
        <ele>291.75983</ele>
        <time>2023-06-10T08:07:43.000Z</time>
      </trkpt>
      <trkpt lat="45.83759" lon="4.73202">
        <ele>291.70551</ele>
        <time>2023-06-10T08:07:44.000Z</time>
      </trkpt>
      <trkpt lat="45.83756" lon="4.73206">
        <ele>291.63977</ele>
        <time>2023-06-10T08:07:45.000Z</time>
      </trkpt>
      <trkpt lat="45.83753" lon="4.73209">
        <ele>291.52765</ele>
        <time>2023-06-10T08:07:46.000Z</time>
      </trkpt>
      <trkpt lat="45.8375" lon="4.73213">
        <ele>291.35327</ele>
        <time>2023-06-10T08:07:47.000Z</time>
      </trkpt>
      <trkpt lat="45.83747" lon="4.73216">
        <ele>291.06186</ele>
        <time>2023-06-10T08:07:48.000Z</time>
      </trkpt>
      <trkpt lat="45.83744" lon="4.73219">
        <ele>291.09973</ele>
        <time>2023-06-10T08:07:49.000Z</time>
      </trkpt>
      <trkpt lat="45.83741" lon="4.73222">
        <ele>291.04929</ele>
        <time>2023-06-10T08:07:50.000Z</time>
      </trkpt>
      <trkpt lat="45.83738" lon="4.73225">
        <ele>291.02594</ele>
        <time>2023-06-10T08:07:51.000Z</time>
      </trkpt>
      <trkpt lat="45.83736" lon="4.73229">
        <ele>291.00845</ele>
        <time>2023-06-10T08:07:52.000Z</time>
      </trkpt>
      <trkpt lat="45.83733" lon="4.73232">
        <ele>291.07419</ele>
        <time>2023-06-10T08:07:53.000Z</time>
      </trkpt>
      <trkpt lat="45.83731" lon="4.73236">
        <ele>291.14609</ele>
        <time>2023-06-10T08:07:54.000Z</time>
      </trkpt>
      <trkpt lat="45.83728" lon="4.73239">
        <ele>290.88373</ele>
        <time>2023-06-10T08:07:55.000Z</time>
      </trkpt>
      <trkpt lat="45.83726" lon="4.73242">
        <ele>290.73782</ele>
        <time>2023-06-10T08:07:56.000Z</time>
      </trkpt>
      <trkpt lat="45.83724" lon="4.73244">
        <ele>290.66946</ele>
        <time>2023-06-10T08:07:57.000Z</time>
      </trkpt>
      <trkpt lat="45.83721" lon="4.73248">
        <ele>290.61435</ele>
        <time>2023-06-10T08:07:58.000Z</time>
      </trkpt>
      <trkpt lat="45.83718" lon="4.73252">
        <ele>290.57489</ele>
        <time>2023-06-10T08:07:59.000Z</time>
      </trkpt>
      <trkpt lat="45.83715" lon="4.73255">
        <ele>290.44968</ele>
        <time>2023-06-10T08:08:00.000Z</time>
      </trkpt>
      <trkpt lat="45.83712" lon="4.73258">
        <ele>290.34821</ele>
        <time>2023-06-10T08:08:01.000Z</time>
      </trkpt>
      <trkpt lat="45.83709" lon="4.73261">
        <ele>290.49707</ele>
        <time>2023-06-10T08:08:02.000Z</time>
      </trkpt>
      <trkpt lat="45.83706" lon="4.73264">
        <ele>290.64685</ele>
        <time>2023-06-10T08:08:03.000Z</time>
      </trkpt>
      <trkpt lat="45.83704" lon="4.73268">
        <ele>290.79147</ele>
        <time>2023-06-10T08:08:04.000Z</time>
      </trkpt>
      <trkpt lat="45.83702" lon="4.73271">
        <ele>290.91632</ele>
        <time>2023-06-10T08:08:05.000Z</time>
      </trkpt>
      <trkpt lat="45.83699" lon="4.73274">
        <ele>290.99445</ele>
        <time>2023-06-10T08:08:06.000Z</time>
      </trkpt>
      <trkpt lat="45.83696" lon="4.73278">
        <ele>291.22571</ele>
        <time>2023-06-10T08:08:07.000Z</time>
      </trkpt>
      <trkpt lat="45.83693" lon="4.73282">
        <ele>291.52026</ele>
        <time>2023-06-10T08:08:08.000Z</time>
      </trkpt>
      <trkpt lat="45.8369" lon="4.73286">
        <ele>291.67874</ele>
        <time>2023-06-10T08:08:09.000Z</time>
      </trkpt>
      <trkpt lat="45.83688" lon="4.73289">
        <ele>291.85345</ele>
        <time>2023-06-10T08:08:10.000Z</time>
      </trkpt>
      <trkpt lat="45.83685" lon="4.73292">
        <ele>292.00763</ele>
        <time>2023-06-10T08:08:11.000Z</time>
      </trkpt>
      <trkpt lat="45.83683" lon="4.73295">
        <ele>292.16824</ele>
        <time>2023-06-10T08:08:12.000Z</time>
      </trkpt>
      <trkpt lat="45.8368" lon="4.73299">
        <ele>292.2742</ele>
        <time>2023-06-10T08:08:13.000Z</time>
      </trkpt>
      <trkpt lat="45.83678" lon="4.73303">
        <ele>292.30182</ele>
        <time>2023-06-10T08:08:14.000Z</time>
      </trkpt>
      <trkpt lat="45.83675" lon="4.73307">
        <ele>292.51007</ele>
        <time>2023-06-10T08:08:15.000Z</time>
      </trkpt>
      <trkpt lat="45.83673" lon="4.7331">
        <ele>292.66824</ele>
        <time>2023-06-10T08:08:16.000Z</time>
      </trkpt>
      <trkpt lat="45.8367" lon="4.73315">
        <ele>292.78369</ele>
        <time>2023-06-10T08:08:17.000Z</time>
      </trkpt>
      <trkpt lat="45.83668" lon="4.73319">
        <ele>292.92929</ele>
        <time>2023-06-10T08:08:18.000Z</time>
      </trkpt>
      <trkpt lat="45.83666" lon="4.73323">
        <ele>293.07446</ele>
        <time>2023-06-10T08:08:19.000Z</time>
      </trkpt>
      <trkpt lat="45.83663" lon="4.73327">
        <ele>293.25751</ele>
        <time>2023-06-10T08:08:20.000Z</time>
      </trkpt>
      <trkpt lat="45.83661" lon="4.73331">
        <ele>293.36792</ele>
        <time>2023-06-10T08:08:21.000Z</time>
      </trkpt>
      <trkpt lat="45.83658" lon="4.73336">
        <ele>293.48413</ele>
        <time>2023-06-10T08:08:22.000Z</time>
      </trkpt>
      <trkpt lat="45.83656" lon="4.73341">
        <ele>293.54697</ele>
        <time>2023-06-10T08:08:23.000Z</time>
      </trkpt>
      <trkpt lat="45.83654" lon="4.73346">
        <ele>293.65936</ele>
        <time>2023-06-10T08:08:24.000Z</time>
      </trkpt>
      <trkpt lat="45.83652" lon="4.73352">
        <ele>293.8479</ele>
        <time>2023-06-10T08:08:25.000Z</time>
      </trkpt>
      <trkpt lat="45.8365" lon="4.73358">
        <ele>294.00711</ele>
        <time>2023-06-10T08:08:26.000Z</time>
      </trkpt>
      <trkpt lat="45.83648" lon="4.73364">
        <ele>293.73401</ele>
        <time>2023-06-10T08:08:27.000Z</time>
      </trkpt>
      <trkpt lat="45.83647" lon="4.7337">
        <ele>293.42426</ele>
        <time>2023-06-10T08:08:28.000Z</time>
      </trkpt>
      <trkpt lat="45.83647" lon="4.73377">
        <ele>293.17145</ele>
        <time>2023-06-10T08:08:29.000Z</time>
      </trkpt>
      <trkpt lat="45.83647" lon="4.73383">
        <ele>292.97351</ele>
        <time>2023-06-10T08:08:30.000Z</time>
      </trkpt>
      <trkpt lat="45.83648" lon="4.73389">
        <ele>292.8078</ele>
        <time>2023-06-10T08:08:31.000Z</time>
      </trkpt>
      <trkpt lat="45.83649" lon="4.73394">
        <ele>292.66412</ele>
        <time>2023-06-10T08:08:32.000Z</time>
      </trkpt>
      <trkpt lat="45.8365" lon="4.73399">
        <ele>292.49408</ele>
        <time>2023-06-10T08:08:33.000Z</time>
      </trkpt>
      <trkpt lat="45.83651" lon="4.73405">
        <ele>292.42294</ele>
        <time>2023-06-10T08:08:34.000Z</time>
      </trkpt>
      <trkpt lat="45.83652" lon="4.7341">
        <ele>292.38043</ele>
        <time>2023-06-10T08:08:35.000Z</time>
      </trkpt>
      <trkpt lat="45.83653" lon="4.73415">
        <ele>292.42303</ele>
        <time>2023-06-10T08:08:36.000Z</time>
      </trkpt>
      <trkpt lat="45.83654" lon="4.7342">
        <ele>292.55429</ele>
        <time>2023-06-10T08:08:37.000Z</time>
      </trkpt>
      <trkpt lat="45.83655" lon="4.73426">
        <ele>292.51617</ele>
        <time>2023-06-10T08:08:38.000Z</time>
      </trkpt>
      <trkpt lat="45.83656" lon="4.73432">
        <ele>292.56439</ele>
        <time>2023-06-10T08:08:39.000Z</time>
      </trkpt>
      <trkpt lat="45.83657" lon="4.73438">
        <ele>292.57928</ele>
        <time>2023-06-10T08:08:40.000Z</time>
      </trkpt>
      <trkpt lat="45.83658" lon="4.73444">
        <ele>292.58188</ele>
        <time>2023-06-10T08:08:41.000Z</time>
      </trkpt>
      <trkpt lat="45.8366" lon="4.73449">
        <ele>292.54718</ele>
        <time>2023-06-10T08:08:42.000Z</time>
      </trkpt>
      <trkpt lat="45.83661" lon="4.73454">
        <ele>292.53082</ele>
        <time>2023-06-10T08:08:43.000Z</time>
      </trkpt>
      <trkpt lat="45.83662" lon="4.73459">
        <ele>292.52271</ele>
        <time>2023-06-10T08:08:44.000Z</time>
      </trkpt>
      <trkpt lat="45.83664" lon="4.73465">
        <ele>292.46063</ele>
        <time>2023-06-10T08:08:45.000Z</time>
      </trkpt>
      <trkpt lat="45.83666" lon="4.7347">
        <ele>292.49237</ele>
        <time>2023-06-10T08:08:46.000Z</time>
      </trkpt>
      <trkpt lat="45.83668" lon="4.73475">
        <ele>292.87006</ele>
        <time>2023-06-10T08:08:47.000Z</time>
      </trkpt>
      <trkpt lat="45.8367" lon="4.73479">
        <ele>293.10809</ele>
        <time>2023-06-10T08:08:48.000Z</time>
      </trkpt>
      <trkpt lat="45.83672" lon="4.73484">
        <ele>293.35281</ele>
        <time>2023-06-10T08:08:49.000Z</time>
      </trkpt>
      <trkpt lat="45.83675" lon="4.73488">
        <ele>293.53571</ele>
        <time>2023-06-10T08:08:50.000Z</time>
      </trkpt>
      <trkpt lat="45.83678" lon="4.73492">
        <ele>293.67789</ele>
        <time>2023-06-10T08:08:51.000Z</time>
      </trkpt>
      <trkpt lat="45.8368" lon="4.73496">
        <ele>293.48514</ele>
        <time>2023-06-10T08:08:52.000Z</time>
      </trkpt>
      <trkpt lat="45.83683" lon="4.73501">
        <ele>293.31073</ele>
        <time>2023-06-10T08:08:53.000Z</time>
      </trkpt>
      <trkpt lat="45.83685" lon="4.73505">
        <ele>293.10065</ele>
        <time>2023-06-10T08:08:54.000Z</time>
      </trkpt>
      <trkpt lat="45.83687" lon="4.73509">
        <ele>292.89169</ele>
        <time>2023-06-10T08:08:55.000Z</time>
      </trkpt>
      <trkpt lat="45.83689" lon="4.73514">
        <ele>292.61188</ele>
        <time>2023-06-10T08:08:56.000Z</time>
      </trkpt>
      <trkpt lat="45.83691" lon="4.73519">
        <ele>292.22406</ele>
        <time>2023-06-10T08:08:57.000Z</time>
      </trkpt>
      <trkpt lat="45.83693" lon="4.73524">
        <ele>292.06573</ele>
        <time>2023-06-10T08:08:58.000Z</time>
      </trkpt>
      <trkpt lat="45.83694" lon="4.73529">
        <ele>291.80658</ele>
        <time>2023-06-10T08:08:59.000Z</time>
      </trkpt>
      <trkpt lat="45.83696" lon="4.73534">
        <ele>291.58102</ele>
        <time>2023-06-10T08:09:00.000Z</time>
      </trkpt>
      <trkpt lat="45.83697" lon="4.73538">
        <ele>291.38443</ele>
        <time>2023-06-10T08:09:01.000Z</time>
      </trkpt>
      <trkpt lat="45.83698" lon="4.73543">
        <ele>291.18488</ele>
        <time>2023-06-10T08:09:02.000Z</time>
      </trkpt>
      <trkpt lat="45.837" lon="4.73548">
        <ele>290.94672</ele>
        <time>2023-06-10T08:09:03.000Z</time>
      </trkpt>
      <trkpt lat="45.83701" lon="4.73552">
        <ele>290.64175</ele>
        <time>2023-06-10T08:09:04.000Z</time>
      </trkpt>
      <trkpt lat="45.83702" lon="4.73557">
        <ele>290.73459</ele>
        <time>2023-06-10T08:09:05.000Z</time>
      </trkpt>
      <trkpt lat="45.83704" lon="4.73562">
        <ele>290.84488</ele>
        <time>2023-06-10T08:09:06.000Z</time>
      </trkpt>
      <trkpt lat="45.83706" lon="4.73567">
        <ele>290.901</ele>
        <time>2023-06-10T08:09:07.000Z</time>
      </trkpt>
      <trkpt lat="45.83707" lon="4.73571">
        <ele>290.91623</ele>
        <time>2023-06-10T08:09:08.000Z</time>
      </trkpt>
      <trkpt lat="45.83708" lon="4.73575">
        <ele>290.93002</ele>
        <time>2023-06-10T08:09:09.000Z</time>
      </trkpt>
      <trkpt lat="45.8371" lon="4.73578">
        <ele>290.91217</ele>
        <time>2023-06-10T08:09:10.000Z</time>
      </trkpt>
      <trkpt lat="45.83713" lon="4.73579">
        <ele>290.84598</ele>
        <time>2023-06-10T08:09:11.000Z</time>
      </trkpt>
      <trkpt lat="45.83716" lon="4.73578">
        <ele>291.09805</ele>
        <time>2023-06-10T08:09:12.000Z</time>
      </trkpt>
      <trkpt lat="45.83719" lon="4.73577">
        <ele>291.34467</ele>
        <time>2023-06-10T08:09:13.000Z</time>
      </trkpt>
      <trkpt lat="45.83723" lon="4.73575">
        <ele>291.59528</ele>
        <time>2023-06-10T08:09:14.000Z</time>
      </trkpt>
      <trkpt lat="45.83727" lon="4.73574">
        <ele>291.84637</ele>
        <time>2023-06-10T08:09:15.000Z</time>
      </trkpt>
      <trkpt lat="45.8373" lon="4.73573">
        <ele>292.11285</ele>
        <time>2023-06-10T08:09:16.000Z</time>
      </trkpt>
      <trkpt lat="45.83735" lon="4.73572">
        <ele>292.42133</ele>
        <time>2023-06-10T08:09:17.000Z</time>
      </trkpt>
      <trkpt lat="45.83739" lon="4.73571">
        <ele>292.74106</ele>
        <time>2023-06-10T08:09:18.000Z</time>
      </trkpt>
      <trkpt lat="45.83743" lon="4.73572">
        <ele>293.05542</ele>
        <time>2023-06-10T08:09:19.000Z</time>
      </trkpt>
      <trkpt lat="45.83747" lon="4.73573">
        <ele>293.17841</ele>
        <time>2023-06-10T08:09:20.000Z</time>
      </trkpt>
      <trkpt lat="45.83751" lon="4.73578">
        <ele>293.34763</ele>
        <time>2023-06-10T08:09:21.000Z</time>
      </trkpt>
      <trkpt lat="45.83755" lon="4.73582">
        <ele>293.45523</ele>
        <time>2023-06-10T08:09:22.000Z</time>
      </trkpt>
      <trkpt lat="45.83758" lon="4.73584">
        <ele>293.5835</ele>
        <time>2023-06-10T08:09:23.000Z</time>
      </trkpt>
      <trkpt lat="45.83762" lon="4.73586">
        <ele>293.72076</ele>
        <time>2023-06-10T08:09:24.000Z</time>
      </trkpt>
      <trkpt lat="45.83765" lon="4.73587">
        <ele>293.47351</ele>
        <time>2023-06-10T08:09:25.000Z</time>
      </trkpt>
      <trkpt lat="45.8377" lon="4.73587">
        <ele>293.19754</ele>
        <time>2023-06-10T08:09:26.000Z</time>
      </trkpt>
      <trkpt lat="45.83774" lon="4.73586">
        <ele>292.91779</ele>
        <time>2023-06-10T08:09:27.000Z</time>
      </trkpt>
      <trkpt lat="45.83779" lon="4.73583">
        <ele>292.82819</ele>
        <time>2023-06-10T08:09:28.000Z</time>
      </trkpt>
      <trkpt lat="45.83783" lon="4.7358">
        <ele>292.72784</ele>
        <time>2023-06-10T08:09:29.000Z</time>
      </trkpt>
      <trkpt lat="45.83788" lon="4.73578">
        <ele>292.68292</ele>
        <time>2023-06-10T08:09:30.000Z</time>
      </trkpt>
      <trkpt lat="45.83793" lon="4.73576">
        <ele>292.71796</ele>
        <time>2023-06-10T08:09:31.000Z</time>
      </trkpt>
      <trkpt lat="45.83798" lon="4.73576">
        <ele>292.72495</ele>
        <time>2023-06-10T08:09:32.000Z</time>
      </trkpt>
      <trkpt lat="45.83803" lon="4.73574">
        <ele>292.66568</ele>
        <time>2023-06-10T08:09:33.000Z</time>
      </trkpt>
      <trkpt lat="45.83808" lon="4.73573">
        <ele>292.63516</ele>
        <time>2023-06-10T08:09:34.000Z</time>
      </trkpt>
      <trkpt lat="45.83812" lon="4.73572">
        <ele>292.61661</ele>
        <time>2023-06-10T08:09:35.000Z</time>
      </trkpt>
      <trkpt lat="45.83816" lon="4.73571">
        <ele>292.57416</ele>
        <time>2023-06-10T08:09:36.000Z</time>
      </trkpt>
      <trkpt lat="45.83823" lon="4.7357">
        <ele>292.50351</ele>
        <time>2023-06-10T08:09:37.000Z</time>
      </trkpt>
      <trkpt lat="45.83829" lon="4.7357">
        <ele>292.43546</ele>
        <time>2023-06-10T08:09:38.000Z</time>
      </trkpt>
      <trkpt lat="45.83835" lon="4.73567">
        <ele>292.31107</ele>
        <time>2023-06-10T08:09:39.000Z</time>
      </trkpt>
      <trkpt lat="45.8384" lon="4.73563">
        <ele>292.13995</ele>
        <time>2023-06-10T08:09:40.000Z</time>
      </trkpt>
      <trkpt lat="45.83844" lon="4.73556">
        <ele>291.94708</ele>
        <time>2023-06-10T08:09:41.000Z</time>
      </trkpt>
      <trkpt lat="45.83848" lon="4.7355">
        <ele>291.8317</ele>
        <time>2023-06-10T08:09:42.000Z</time>
      </trkpt>
      <trkpt lat="45.83853" lon="4.73544">
        <ele>291.75488</ele>
        <time>2023-06-10T08:09:43.000Z</time>
      </trkpt>
      <trkpt lat="45.83858" lon="4.73539">
        <ele>291.6701</ele>
        <time>2023-06-10T08:09:44.000Z</time>
      </trkpt>
      <trkpt lat="45.83862" lon="4.73532">
        <ele>291.53009</ele>
        <time>2023-06-10T08:09:45.000Z</time>
      </trkpt>
      <trkpt lat="45.83866" lon="4.73525">
        <ele>291.34515</ele>
        <time>2023-06-10T08:09:46.000Z</time>
      </trkpt>
      <trkpt lat="45.8387" lon="4.73519">
        <ele>291.18481</ele>
        <time>2023-06-10T08:09:47.000Z</time>
      </trkpt>
      <trkpt lat="45.83876" lon="4.73513">
        <ele>290.99295</ele>
        <time>2023-06-10T08:09:48.000Z</time>
      </trkpt>
      <trkpt lat="45.8388" lon="4.73509">
        <ele>290.82318</ele>
        <time>2023-06-10T08:09:49.000Z</time>
      </trkpt>
      <trkpt lat="45.83884" lon="4.73506">
        <ele>290.64011</ele>
        <time>2023-06-10T08:09:50.000Z</time>
      </trkpt>
      <trkpt lat="45.83886" lon="4.73504">
        <ele>290.44034</ele>
        <time>2023-06-10T08:09:51.000Z</time>
      </trkpt>
      <trkpt lat="45.8389" lon="4.73501">
        <ele>290.22693</ele>
        <time>2023-06-10T08:09:52.000Z</time>
      </trkpt>
      <trkpt lat="45.83895" lon="4.73501">
        <ele>290.0462</ele>
        <time>2023-06-10T08:09:54.000Z</time>
      </trkpt>
      <trkpt lat="45.83896" lon="4.73503">
        <ele>289.83252</ele>
        <time>2023-06-10T08:09:56.000Z</time>
      </trkpt>
      <trkpt lat="45.83897" lon="4.73506">
        <ele>289.57202</ele>
        <time>2023-06-10T08:09:58.000Z</time>
      </trkpt>
      <trkpt lat="45.83896" lon="4.73509">
        <ele>289.40097</ele>
        <time>2023-06-10T08:10:00.000Z</time>
      </trkpt>
      <trkpt lat="45.83895" lon="4.73512">
        <ele>289.28619</ele>
        <time>2023-06-10T08:10:02.000Z</time>
      </trkpt>
      <trkpt lat="45.83893" lon="4.73515">
        <ele>288.98141</ele>
        <time>2023-06-10T08:10:07.000Z</time>
      </trkpt>
      <trkpt lat="45.83892" lon="4.73518">
        <ele>288.71185</ele>
        <time>2023-06-10T08:10:08.000Z</time>
      </trkpt>
      <trkpt lat="45.83891" lon="4.73521">
        <ele>288.66904</ele>
        <time>2023-06-10T08:10:09.000Z</time>
      </trkpt>
      <trkpt lat="45.83889" lon="4.73523">
        <ele>288.7049</ele>
        <time>2023-06-10T08:10:10.000Z</time>
      </trkpt>
      <trkpt lat="45.83887" lon="4.73525">
        <ele>288.76038</ele>
        <time>2023-06-10T08:10:11.000Z</time>
      </trkpt>
      <trkpt lat="45.83886" lon="4.73527">
        <ele>288.79239</ele>
        <time>2023-06-10T08:10:12.000Z</time>
      </trkpt>
      <trkpt lat="45.83884" lon="4.73529">
        <ele>288.79007</ele>
        <time>2023-06-10T08:10:13.000Z</time>
      </trkpt>
      <trkpt lat="45.83882" lon="4.73532">
        <ele>288.82974</ele>
        <time>2023-06-10T08:10:14.000Z</time>
      </trkpt>
      <trkpt lat="45.83881" lon="4.73534">
        <ele>288.9137</ele>
        <time>2023-06-10T08:10:15.000Z</time>
      </trkpt>
      <trkpt lat="45.83879" lon="4.73536">
        <ele>288.99121</ele>
        <time>2023-06-10T08:10:16.000Z</time>
      </trkpt>
      <trkpt lat="45.83877" lon="4.73538">
        <ele>288.83112</ele>
        <time>2023-06-10T08:10:17.000Z</time>
      </trkpt>
      <trkpt lat="45.83876" lon="4.73539">
        <ele>288.7027</ele>
        <time>2023-06-10T08:10:18.000Z</time>
      </trkpt>
      <trkpt lat="45.83874" lon="4.73542">
        <ele>288.5712</ele>
        <time>2023-06-10T08:10:19.000Z</time>
      </trkpt>
      <trkpt lat="45.83872" lon="4.73544">
        <ele>288.40439</ele>
        <time>2023-06-10T08:10:20.000Z</time>
      </trkpt>
      <trkpt lat="45.83871" lon="4.73547">
        <ele>288.27911</ele>
        <time>2023-06-10T08:10:21.000Z</time>
      </trkpt>
      <trkpt lat="45.8387" lon="4.73549">
        <ele>288.15192</ele>
        <time>2023-06-10T08:10:22.000Z</time>
      </trkpt>
      <trkpt lat="45.8387" lon="4.73552">
        <ele>288.0831</ele>
        <time>2023-06-10T08:10:28.000Z</time>
      </trkpt>
      <trkpt lat="45.83871" lon="4.73554">
        <ele>288.08932</ele>
        <time>2023-06-10T08:10:32.000Z</time>
      </trkpt>
      <trkpt lat="45.83873" lon="4.73552">
        <ele>287.99927</ele>
        <time>2023-06-10T08:10:35.000Z</time>
      </trkpt>
      <trkpt lat="45.83875" lon="4.7355">
        <ele>287.95599</ele>
        <time>2023-06-10T08:10:38.000Z</time>
      </trkpt>
      <trkpt lat="45.83877" lon="4.73548">
        <ele>287.95807</ele>
        <time>2023-06-10T08:10:41.000Z</time>
      </trkpt>
      <trkpt lat="45.83878" lon="4.73546">
        <ele>287.9787</ele>
        <time>2023-06-10T08:10:43.000Z</time>
      </trkpt>
      <trkpt lat="45.83879" lon="4.73544">
        <ele>287.97791</ele>
        <time>2023-06-10T08:10:45.000Z</time>
      </trkpt>
      <trkpt lat="45.8388" lon="4.73542">
        <ele>287.85181</ele>
        <time>2023-06-10T08:10:47.000Z</time>
      </trkpt>
      <trkpt lat="45.83882" lon="4.73539">
        <ele>287.62863</ele>
        <time>2023-06-10T08:10:49.000Z</time>
      </trkpt>
      <trkpt lat="45.83883" lon="4.73537">
        <ele>287.4176</ele>
        <time>2023-06-10T08:10:51.000Z</time>
      </trkpt>
      <trkpt lat="45.83885" lon="4.73535">
        <ele>287.25391</ele>
        <time>2023-06-10T08:10:53.000Z</time>
      </trkpt>
      <trkpt lat="45.83886" lon="4.73533">
        <ele>287.11566</ele>
        <time>2023-06-10T08:10:55.000Z</time>
      </trkpt>
      <trkpt lat="45.83888" lon="4.73531">
        <ele>286.91974</ele>
        <time>2023-06-10T08:10:57.000Z</time>
      </trkpt>
      <trkpt lat="45.83889" lon="4.73529">
        <ele>286.7319</ele>
        <time>2023-06-10T08:10:59.000Z</time>
      </trkpt>
      <trkpt lat="45.83891" lon="4.73527">
        <ele>286.77258</ele>
        <time>2023-06-10T08:11:01.000Z</time>
      </trkpt>
      <trkpt lat="45.83893" lon="4.73524">
        <ele>286.82462</ele>
        <time>2023-06-10T08:11:04.000Z</time>
      </trkpt>
      <trkpt lat="45.83895" lon="4.73523">
        <ele>286.83606</ele>
        <time>2023-06-10T08:11:06.000Z</time>
      </trkpt>
      <trkpt lat="45.83896" lon="4.7352">
        <ele>286.86642</ele>
        <time>2023-06-10T08:11:08.000Z</time>
      </trkpt>
      <trkpt lat="45.83897" lon="4.73518">
        <ele>286.88791</ele>
        <time>2023-06-10T08:11:10.000Z</time>
      </trkpt>
      <trkpt lat="45.83899" lon="4.73517">
        <ele>286.95316</ele>
        <time>2023-06-10T08:11:14.000Z</time>
      </trkpt>
      <trkpt lat="45.839" lon="4.73516">
        <ele>287.14297</ele>
        <time>2023-06-10T08:11:26.000Z</time>
      </trkpt>
      <trkpt lat="45.83902" lon="4.73517">
        <ele>287.15771</ele>
        <time>2023-06-10T08:11:43.000Z</time>
      </trkpt>
      <trkpt lat="45.83904" lon="4.73517">
        <ele>287.17584</ele>
        <time>2023-06-10T08:11:53.000Z</time>
      </trkpt>
      <trkpt lat="45.83906" lon="4.73516">
        <ele>287.0546</ele>
        <time>2023-06-10T08:12:31.000Z</time>
      </trkpt>
      <trkpt lat="45.83908" lon="4.73516">
        <ele>287.22302</ele>
        <time>2023-06-10T08:12:37.000Z</time>
      </trkpt>
      <trkpt lat="45.8391" lon="4.73515">
        <ele>287.43774</ele>
        <time>2023-06-10T08:12:39.000Z</time>
      </trkpt>
      <trkpt lat="45.83911" lon="4.73511">
        <ele>287.74985</ele>
        <time>2023-06-10T08:12:44.000Z</time>
      </trkpt>
      <trkpt lat="45.83914" lon="4.73507">
        <ele>287.89505</ele>
        <time>2023-06-10T08:12:46.000Z</time>
      </trkpt>
      <trkpt lat="45.83915" lon="4.73505">
        <ele>288.11371</ele>
        <time>2023-06-10T08:12:47.000Z</time>
      </trkpt>
      <trkpt lat="45.83918" lon="4.73503">
        <ele>288.32254</ele>
        <time>2023-06-10T08:12:48.000Z</time>
      </trkpt>
      <trkpt lat="45.8392" lon="4.73501">
        <ele>288.48749</ele>
        <time>2023-06-10T08:12:49.000Z</time>
      </trkpt>
      <trkpt lat="45.83923" lon="4.73499">
        <ele>288.62662</ele>
        <time>2023-06-10T08:12:50.000Z</time>
      </trkpt>
      <trkpt lat="45.83926" lon="4.73496">
        <ele>288.80133</ele>
        <time>2023-06-10T08:12:51.000Z</time>
      </trkpt>
      <trkpt lat="45.83929" lon="4.73493">
        <ele>288.93573</ele>
        <time>2023-06-10T08:12:52.000Z</time>
      </trkpt>
      <trkpt lat="45.83932" lon="4.7349">
        <ele>289.09406</ele>
        <time>2023-06-10T08:12:53.000Z</time>
      </trkpt>
      <trkpt lat="45.83935" lon="4.73486">
        <ele>289.1499</ele>
        <time>2023-06-10T08:12:54.000Z</time>
      </trkpt>
      <trkpt lat="45.83939" lon="4.73483">
        <ele>289.22488</ele>
        <time>2023-06-10T08:12:55.000Z</time>
      </trkpt>
      <trkpt lat="45.83942" lon="4.7348">
        <ele>289.40924</ele>
        <time>2023-06-10T08:12:56.000Z</time>
      </trkpt>
      <trkpt lat="45.83946" lon="4.73476">
        <ele>289.66422</ele>
        <time>2023-06-10T08:12:57.000Z</time>
      </trkpt>
      <trkpt lat="45.8395" lon="4.73472">
        <ele>289.88141</ele>
        <time>2023-06-10T08:12:58.000Z</time>
      </trkpt>
      <trkpt lat="45.83953" lon="4.73468">
        <ele>289.91107</ele>
        <time>2023-06-10T08:12:59.000Z</time>
      </trkpt>
      <trkpt lat="45.83957" lon="4.73464">
        <ele>289.83612</ele>
        <time>2023-06-10T08:13:00.000Z</time>
      </trkpt>
      <trkpt lat="45.8396" lon="4.73461">
        <ele>289.82196</ele>
        <time>2023-06-10T08:13:01.000Z</time>
      </trkpt>
      <trkpt lat="45.83964" lon="4.73459">
        <ele>289.81497</ele>
        <time>2023-06-10T08:13:02.000Z</time>
      </trkpt>
      <trkpt lat="45.83968" lon="4.73458">
        <ele>289.64401</ele>
        <time>2023-06-10T08:13:03.000Z</time>
      </trkpt>
      <trkpt lat="45.83971" lon="4.73459">
        <ele>289.41174</ele>
        <time>2023-06-10T08:13:04.000Z</time>
      </trkpt>
      <trkpt lat="45.83975" lon="4.73463">
        <ele>289.11932</ele>
        <time>2023-06-10T08:13:05.000Z</time>
      </trkpt>
      <trkpt lat="45.83977" lon="4.73473">
        <ele>288.97601</ele>
        <time>2023-06-10T08:13:06.000Z</time>
      </trkpt>
      <trkpt lat="45.8398" lon="4.73478">
        <ele>288.83148</ele>
        <time>2023-06-10T08:13:07.000Z</time>
      </trkpt>
      <trkpt lat="45.83982" lon="4.73483">
        <ele>288.6264</ele>
        <time>2023-06-10T08:13:08.000Z</time>
      </trkpt>
      <trkpt lat="45.83984" lon="4.7349">
        <ele>288.39664</ele>
        <time>2023-06-10T08:13:09.000Z</time>
      </trkpt>
      <trkpt lat="45.83986" lon="4.73496">
        <ele>288.13147</ele>
        <time>2023-06-10T08:13:10.000Z</time>
      </trkpt>
      <trkpt lat="45.83989" lon="4.73503">
        <ele>287.85443</ele>
        <time>2023-06-10T08:13:11.000Z</time>
      </trkpt>
      <trkpt lat="45.83993" lon="4.73509">
        <ele>287.73981</ele>
        <time>2023-06-10T08:13:12.000Z</time>
      </trkpt>
      <trkpt lat="45.83996" lon="4.73515">
        <ele>287.24289</ele>
        <time>2023-06-10T08:13:13.000Z</time>
      </trkpt>
      <trkpt lat="45.84" lon="4.73522">
        <ele>286.63312</ele>
        <time>2023-06-10T08:13:14.000Z</time>
      </trkpt>
      <trkpt lat="45.84003" lon="4.73531">
        <ele>285.97272</ele>
        <time>2023-06-10T08:13:15.000Z</time>
      </trkpt>
      <trkpt lat="45.84006" lon="4.73539">
        <ele>285.18616</ele>
        <time>2023-06-10T08:13:16.000Z</time>
      </trkpt>
      <trkpt lat="45.84008" lon="4.73547">
        <ele>284.33096</ele>
        <time>2023-06-10T08:13:17.000Z</time>
      </trkpt>
      <trkpt lat="45.84009" lon="4.73556">
        <ele>283.5202</ele>
        <time>2023-06-10T08:13:18.000Z</time>
      </trkpt>
      <trkpt lat="45.84012" lon="4.73564">
        <ele>282.7457</ele>
        <time>2023-06-10T08:13:19.000Z</time>
      </trkpt>
      <trkpt lat="45.84015" lon="4.73571">
        <ele>282.15985</ele>
        <time>2023-06-10T08:13:20.000Z</time>
      </trkpt>
      <trkpt lat="45.84018" lon="4.73577">
        <ele>281.5369</ele>
        <time>2023-06-10T08:13:21.000Z</time>
      </trkpt>
      <trkpt lat="45.84019" lon="4.73584">
        <ele>280.9357</ele>
        <time>2023-06-10T08:13:22.000Z</time>
      </trkpt>
      <trkpt lat="45.8402" lon="4.7359">
        <ele>280.29315</ele>
        <time>2023-06-10T08:13:23.000Z</time>
      </trkpt>
      <trkpt lat="45.84018" lon="4.73597">
        <ele>279.65973</ele>
        <time>2023-06-10T08:13:24.000Z</time>
      </trkpt>
      <trkpt lat="45.84016" lon="4.73604">
        <ele>279.64438</ele>
        <time>2023-06-10T08:13:25.000Z</time>
      </trkpt>
      <trkpt lat="45.84013" lon="4.73611">
        <ele>279.4736</ele>
        <time>2023-06-10T08:13:26.000Z</time>
      </trkpt>
      <trkpt lat="45.8401" lon="4.73617">
        <ele>279.28555</ele>
        <time>2023-06-10T08:13:27.000Z</time>
      </trkpt>
      <trkpt lat="45.84006" lon="4.73623">
        <ele>279.15997</ele>
        <time>2023-06-10T08:13:28.000Z</time>
      </trkpt>
      <trkpt lat="45.84002" lon="4.73628">
        <ele>279.0647</ele>
        <time>2023-06-10T08:13:29.000Z</time>
      </trkpt>
      <trkpt lat="45.83996" lon="4.7363">
        <ele>279.01276</ele>
        <time>2023-06-10T08:13:30.000Z</time>
      </trkpt>
      <trkpt lat="45.8399" lon="4.73633">
        <ele>278.90793</ele>
        <time>2023-06-10T08:13:31.000Z</time>
      </trkpt>
      <trkpt lat="45.83984" lon="4.73635">
        <ele>278.64798</ele>
        <time>2023-06-10T08:13:32.000Z</time>
      </trkpt>
      <trkpt lat="45.83978" lon="4.7364">
        <ele>278.75507</ele>
        <time>2023-06-10T08:13:33.000Z</time>
      </trkpt>
      <trkpt lat="45.83974" lon="4.73643">
        <ele>278.98273</ele>
        <time>2023-06-10T08:13:34.000Z</time>
      </trkpt>
      <trkpt lat="45.83969" lon="4.73647">
        <ele>279.25012</ele>
        <time>2023-06-10T08:13:35.000Z</time>
      </trkpt>
      <trkpt lat="45.83965" lon="4.73653">
        <ele>279.5303</ele>
        <time>2023-06-10T08:13:36.000Z</time>
      </trkpt>
      <trkpt lat="45.83963" lon="4.73658">
        <ele>279.78085</ele>
        <time>2023-06-10T08:13:37.000Z</time>
      </trkpt>
      <trkpt lat="45.83962" lon="4.73661">
        <ele>279.98898</ele>
        <time>2023-06-10T08:13:38.000Z</time>
      </trkpt>
      <trkpt lat="45.83964" lon="4.73662">
        <ele>280.16632</ele>
        <time>2023-06-10T08:13:39.000Z</time>
      </trkpt>
      <trkpt lat="45.83969" lon="4.73662">
        <ele>280.39276</ele>
        <time>2023-06-10T08:13:41.000Z</time>
      </trkpt>
      <trkpt lat="45.83972" lon="4.73663">
        <ele>280.62961</ele>
        <time>2023-06-10T08:13:42.000Z</time>
      </trkpt>
      <trkpt lat="45.83974" lon="4.73665">
        <ele>280.85803</ele>
        <time>2023-06-10T08:13:43.000Z</time>
      </trkpt>
      <trkpt lat="45.83976" lon="4.73668">
        <ele>281.08282</ele>
        <time>2023-06-10T08:13:44.000Z</time>
      </trkpt>
      <trkpt lat="45.83972" lon="4.73675">
        <ele>280.99835</ele>
        <time>2023-06-10T08:13:46.000Z</time>
      </trkpt>
      <trkpt lat="45.83971" lon="4.73678">
        <ele>280.27805</ele>
        <time>2023-06-10T08:13:47.000Z</time>
      </trkpt>
      <trkpt lat="45.8397" lon="4.73682">
        <ele>280.36176</ele>
        <time>2023-06-10T08:13:48.000Z</time>
      </trkpt>
      <trkpt lat="45.83968" lon="4.73686">
        <ele>280.13763</ele>
        <time>2023-06-10T08:13:49.000Z</time>
      </trkpt>
      <trkpt lat="45.83965" lon="4.73689">
        <ele>279.98517</ele>
        <time>2023-06-10T08:13:50.000Z</time>
      </trkpt>
      <trkpt lat="45.83961" lon="4.73691">
        <ele>279.85318</ele>
        <time>2023-06-10T08:13:51.000Z</time>
      </trkpt>
      <trkpt lat="45.83957" lon="4.73693">
        <ele>279.90973</ele>
        <time>2023-06-10T08:13:52.000Z</time>
      </trkpt>
      <trkpt lat="45.83954" lon="4.73696">
        <ele>280.09036</ele>
        <time>2023-06-10T08:13:53.000Z</time>
      </trkpt>
      <trkpt lat="45.83951" lon="4.73701">
        <ele>280.28488</ele>
        <time>2023-06-10T08:13:54.000Z</time>
      </trkpt>
      <trkpt lat="45.8395" lon="4.73707">
        <ele>280.13693</ele>
        <time>2023-06-10T08:13:55.000Z</time>
      </trkpt>
      <trkpt lat="45.83948" lon="4.73712">
        <ele>280.02151</ele>
        <time>2023-06-10T08:13:56.000Z</time>
      </trkpt>
      <trkpt lat="45.83945" lon="4.73717">
        <ele>279.93204</ele>
        <time>2023-06-10T08:13:57.000Z</time>
      </trkpt>
      <trkpt lat="45.83941" lon="4.73723">
        <ele>279.40152</ele>
        <time>2023-06-10T08:13:58.000Z</time>
      </trkpt>
      <trkpt lat="45.83938" lon="4.7373">
        <ele>278.90204</ele>
        <time>2023-06-10T08:13:59.000Z</time>
      </trkpt>
      <trkpt lat="45.83934" lon="4.73737">
        <ele>278.38272</ele>
        <time>2023-06-10T08:14:00.000Z</time>
      </trkpt>
      <trkpt lat="45.83931" lon="4.73745">
        <ele>278.32187</ele>
        <time>2023-06-10T08:14:01.000Z</time>
      </trkpt>
      <trkpt lat="45.8393" lon="4.73754">
        <ele>278.21945</ele>
        <time>2023-06-10T08:14:02.000Z</time>
      </trkpt>
      <trkpt lat="45.8393" lon="4.73763">
        <ele>278.09247</ele>
        <time>2023-06-10T08:14:03.000Z</time>
      </trkpt>
      <trkpt lat="45.83931" lon="4.73773">
        <ele>277.94739</ele>
        <time>2023-06-10T08:14:04.000Z</time>
      </trkpt>
      <trkpt lat="45.83933" lon="4.73783">
        <ele>277.81009</ele>
        <time>2023-06-10T08:14:05.000Z</time>
      </trkpt>
      <trkpt lat="45.83937" lon="4.73792">
        <ele>277.99658</ele>
        <time>2023-06-10T08:14:06.000Z</time>
      </trkpt>
      <trkpt lat="45.83941" lon="4.73798">
        <ele>278.17996</ele>
        <time>2023-06-10T08:14:07.000Z</time>
      </trkpt>
      <trkpt lat="45.83946" lon="4.73805">
        <ele>277.76389</ele>
        <time>2023-06-10T08:14:08.000Z</time>
      </trkpt>
      <trkpt lat="45.83953" lon="4.73811">
        <ele>277.64185</ele>
        <time>2023-06-10T08:14:09.000Z</time>
      </trkpt>
      <trkpt lat="45.83959" lon="4.7382">
        <ele>277.40842</ele>
        <time>2023-06-10T08:14:10.000Z</time>
      </trkpt>
      <trkpt lat="45.83965" lon="4.73827">
        <ele>277.17673</ele>
        <time>2023-06-10T08:14:11.000Z</time>
      </trkpt>
      <trkpt lat="45.8397" lon="4.73834">
        <ele>276.91605</ele>
        <time>2023-06-10T08:14:12.000Z</time>
      </trkpt>
      <trkpt lat="45.83976" lon="4.7384">
        <ele>276.483</ele>
        <time>2023-06-10T08:14:13.000Z</time>
      </trkpt>
      <trkpt lat="45.83971" lon="4.73837">
        <ele>276.60229</ele>
        <time>2023-06-10T08:14:14.000Z</time>
      </trkpt>
      <trkpt lat="45.83983" lon="4.73841">
        <ele>277.15845</ele>
        <time>2023-06-10T08:14:15.000Z</time>
      </trkpt>
      <trkpt lat="45.83992" lon="4.73843">
        <ele>277.71027</ele>
        <time>2023-06-10T08:14:16.000Z</time>
      </trkpt>
      <trkpt lat="45.84" lon="4.73844">
        <ele>278.3421</ele>
        <time>2023-06-10T08:14:17.000Z</time>
      </trkpt>
      <trkpt lat="45.84011" lon="4.73846">
        <ele>279.47995</ele>
        <time>2023-06-10T08:14:18.000Z</time>
      </trkpt>
      <trkpt lat="45.84018" lon="4.73841">
        <ele>280.62415</ele>
        <time>2023-06-10T08:14:19.000Z</time>
      </trkpt>
      <trkpt lat="45.84026" lon="4.7384">
        <ele>281.90729</ele>
        <time>2023-06-10T08:14:20.000Z</time>
      </trkpt>
      <trkpt lat="45.84037" lon="4.73836">
        <ele>282.74057</ele>
        <time>2023-06-10T08:14:21.000Z</time>
      </trkpt>
      <trkpt lat="45.84044" lon="4.73835">
        <ele>283.60455</ele>
        <time>2023-06-10T08:14:22.000Z</time>
      </trkpt>
      <trkpt lat="45.8405" lon="4.73833">
        <ele>284.45953</ele>
        <time>2023-06-10T08:14:23.000Z</time>
      </trkpt>
      <trkpt lat="45.84058" lon="4.73829">
        <ele>285.32495</ele>
        <time>2023-06-10T08:14:24.000Z</time>
      </trkpt>
      <trkpt lat="45.84064" lon="4.73827">
        <ele>286.23868</ele>
        <time>2023-06-10T08:14:25.000Z</time>
      </trkpt>
      <trkpt lat="45.84071" lon="4.73826">
        <ele>286.15457</ele>
        <time>2023-06-10T08:14:26.000Z</time>
      </trkpt>
      <trkpt lat="45.84077" lon="4.73824">
        <ele>285.7196</ele>
        <time>2023-06-10T08:14:27.000Z</time>
      </trkpt>
      <trkpt lat="45.84083" lon="4.73822">
        <ele>285.25616</ele>
        <time>2023-06-10T08:14:28.000Z</time>
      </trkpt>
      <trkpt lat="45.84088" lon="4.73819">
        <ele>284.78561</ele>
        <time>2023-06-10T08:14:29.000Z</time>
      </trkpt>
      <trkpt lat="45.84094" lon="4.73818">
        <ele>284.32257</ele>
        <time>2023-06-10T08:14:30.000Z</time>
      </trkpt>
      <trkpt lat="45.841" lon="4.73817">
        <ele>283.83032</ele>
        <time>2023-06-10T08:14:31.000Z</time>
      </trkpt>
      <trkpt lat="45.84105" lon="4.73816">
        <ele>283.16449</ele>
        <time>2023-06-10T08:14:32.000Z</time>
      </trkpt>
      <trkpt lat="45.8411" lon="4.73816">
        <ele>282.5885</ele>
        <time>2023-06-10T08:14:33.000Z</time>
      </trkpt>
      <trkpt lat="45.84115" lon="4.73816">
        <ele>281.45258</ele>
        <time>2023-06-10T08:14:34.000Z</time>
      </trkpt>
      <trkpt lat="45.8412" lon="4.73816">
        <ele>280.24359</ele>
        <time>2023-06-10T08:14:35.000Z</time>
      </trkpt>
      <trkpt lat="45.84124" lon="4.73816">
        <ele>279.0528</ele>
        <time>2023-06-10T08:14:36.000Z</time>
      </trkpt>
      <trkpt lat="45.84128" lon="4.73818">
        <ele>277.84753</ele>
        <time>2023-06-10T08:14:37.000Z</time>
      </trkpt>
      <trkpt lat="45.84133" lon="4.73818">
        <ele>276.58716</ele>
        <time>2023-06-10T08:14:38.000Z</time>
      </trkpt>
      <trkpt lat="45.84138" lon="4.73819">
        <ele>275.21014</ele>
        <time>2023-06-10T08:14:39.000Z</time>
      </trkpt>
      <trkpt lat="45.84142" lon="4.73819">
        <ele>273.7738</ele>
        <time>2023-06-10T08:14:40.000Z</time>
      </trkpt>
      <trkpt lat="45.84146" lon="4.73819">
        <ele>272.37115</ele>
        <time>2023-06-10T08:14:41.000Z</time>
      </trkpt>
      <trkpt lat="45.8415" lon="4.7382">
        <ele>270.99338</ele>
        <time>2023-06-10T08:14:42.000Z</time>
      </trkpt>
      <trkpt lat="45.84153" lon="4.7382">
        <ele>269.70947</ele>
        <time>2023-06-10T08:14:43.000Z</time>
      </trkpt>
      <trkpt lat="45.84157" lon="4.73822">
        <ele>268.44754</ele>
        <time>2023-06-10T08:14:44.000Z</time>
      </trkpt>
      <trkpt lat="45.8416" lon="4.73824">
        <ele>267.14227</ele>
        <time>2023-06-10T08:14:45.000Z</time>
      </trkpt>
      <trkpt lat="45.84163" lon="4.73825">
        <ele>266.73395</ele>
        <time>2023-06-10T08:14:46.000Z</time>
      </trkpt>
      <trkpt lat="45.84166" lon="4.73826">
        <ele>266.68976</ele>
        <time>2023-06-10T08:14:47.000Z</time>
      </trkpt>
      <trkpt lat="45.84169" lon="4.73828">
        <ele>266.68549</ele>
        <time>2023-06-10T08:14:48.000Z</time>
      </trkpt>
      <trkpt lat="45.84171" lon="4.7383">
        <ele>266.75592</ele>
        <time>2023-06-10T08:14:49.000Z</time>
      </trkpt>
      <trkpt lat="45.84172" lon="4.73833">
        <ele>266.85065</ele>
        <time>2023-06-10T08:14:50.000Z</time>
      </trkpt>
      <trkpt lat="45.84171" lon="4.73836">
        <ele>266.92581</ele>
        <time>2023-06-10T08:14:51.000Z</time>
      </trkpt>
      <trkpt lat="45.84169" lon="4.7384">
        <ele>266.98135</ele>
        <time>2023-06-10T08:14:52.000Z</time>
      </trkpt>
      <trkpt lat="45.84166" lon="4.73843">
        <ele>267.07422</ele>
        <time>2023-06-10T08:14:53.000Z</time>
      </trkpt>
      <trkpt lat="45.84163" lon="4.73846">
        <ele>267.16049</ele>
        <time>2023-06-10T08:14:54.000Z</time>
      </trkpt>
      <trkpt lat="45.8416" lon="4.73848">
        <ele>267.23895</ele>
        <time>2023-06-10T08:14:55.000Z</time>
      </trkpt>
      <trkpt lat="45.84159" lon="4.7385">
        <ele>267.2655</ele>
        <time>2023-06-10T08:14:56.000Z</time>
      </trkpt>
      <trkpt lat="45.84157" lon="4.73853">
        <ele>267.18073</ele>
        <time>2023-06-10T08:14:57.000Z</time>
      </trkpt>
      <trkpt lat="45.84154" lon="4.73857">
        <ele>267.11505</ele>
        <time>2023-06-10T08:14:58.000Z</time>
      </trkpt>
      <trkpt lat="45.84153" lon="4.7386">
        <ele>267.16357</ele>
        <time>2023-06-10T08:14:59.000Z</time>
      </trkpt>
      <trkpt lat="45.8415" lon="4.73863">
        <ele>267.19223</ele>
        <time>2023-06-10T08:15:00.000Z</time>
      </trkpt>
      <trkpt lat="45.84148" lon="4.73867">
        <ele>267.18649</ele>
        <time>2023-06-10T08:15:01.000Z</time>
      </trkpt>
      <trkpt lat="45.84146" lon="4.7387">
        <ele>267.15698</ele>
        <time>2023-06-10T08:15:02.000Z</time>
      </trkpt>
      <trkpt lat="45.84144" lon="4.73873">
        <ele>267.06146</ele>
        <time>2023-06-10T08:15:03.000Z</time>
      </trkpt>
      <trkpt lat="45.84142" lon="4.73877">
        <ele>266.9454</ele>
        <time>2023-06-10T08:15:04.000Z</time>
      </trkpt>
      <trkpt lat="45.84139" lon="4.7388">
        <ele>266.7973</ele>
        <time>2023-06-10T08:15:05.000Z</time>
      </trkpt>
      <trkpt lat="45.84137" lon="4.73883">
        <ele>266.72357</ele>
        <time>2023-06-10T08:15:06.000Z</time>
      </trkpt>
      <trkpt lat="45.84135" lon="4.73886">
        <ele>266.64594</ele>
        <time>2023-06-10T08:15:07.000Z</time>
      </trkpt>
      <trkpt lat="45.84132" lon="4.7389">
        <ele>266.53195</ele>
        <time>2023-06-10T08:15:08.000Z</time>
      </trkpt>
      <trkpt lat="45.84131" lon="4.73894">
        <ele>266.40985</ele>
        <time>2023-06-10T08:15:09.000Z</time>
      </trkpt>
      <trkpt lat="45.84129" lon="4.73898">
        <ele>266.30038</ele>
        <time>2023-06-10T08:15:10.000Z</time>
      </trkpt>
      <trkpt lat="45.84127" lon="4.73901">
        <ele>266.23581</ele>
        <time>2023-06-10T08:15:11.000Z</time>
      </trkpt>
      <trkpt lat="45.84125" lon="4.73904">
        <ele>266.1795</ele>
        <time>2023-06-10T08:15:12.000Z</time>
      </trkpt>
      <trkpt lat="45.84123" lon="4.73908">
        <ele>266.12897</ele>
        <time>2023-06-10T08:15:13.000Z</time>
      </trkpt>
      <trkpt lat="45.84121" lon="4.73911">
        <ele>266.11374</ele>
        <time>2023-06-10T08:15:14.000Z</time>
      </trkpt>
      <trkpt lat="45.84118" lon="4.73916">
        <ele>266.07263</ele>
        <time>2023-06-10T08:15:15.000Z</time>
      </trkpt>
      <trkpt lat="45.84116" lon="4.7392">
        <ele>266.03857</ele>
        <time>2023-06-10T08:15:16.000Z</time>
      </trkpt>
      <trkpt lat="45.84113" lon="4.73924">
        <ele>266.05182</ele>
        <time>2023-06-10T08:15:17.000Z</time>
      </trkpt>
      <trkpt lat="45.84111" lon="4.73928">
        <ele>266.02557</ele>
        <time>2023-06-10T08:15:18.000Z</time>
      </trkpt>
      <trkpt lat="45.84108" lon="4.73931">
        <ele>266.02261</ele>
        <time>2023-06-10T08:15:19.000Z</time>
      </trkpt>
      <trkpt lat="45.84106" lon="4.73934">
        <ele>265.98337</ele>
        <time>2023-06-10T08:15:20.000Z</time>
      </trkpt>
      <trkpt lat="45.84104" lon="4.73936">
        <ele>265.97168</ele>
        <time>2023-06-10T08:15:21.000Z</time>
      </trkpt>
      <trkpt lat="45.84101" lon="4.73939">
        <ele>265.98212</ele>
        <time>2023-06-10T08:15:22.000Z</time>
      </trkpt>
      <trkpt lat="45.84099" lon="4.73942">
        <ele>265.94965</ele>
        <time>2023-06-10T08:15:23.000Z</time>
      </trkpt>
      <trkpt lat="45.84097" lon="4.73946">
        <ele>265.8631</ele>
        <time>2023-06-10T08:15:24.000Z</time>
      </trkpt>
      <trkpt lat="45.84096" lon="4.7395">
        <ele>265.72769</ele>
        <time>2023-06-10T08:15:25.000Z</time>
      </trkpt>
      <trkpt lat="45.84094" lon="4.73954">
        <ele>265.67639</ele>
        <time>2023-06-10T08:15:26.000Z</time>
      </trkpt>
      <trkpt lat="45.84092" lon="4.73958">
        <ele>265.63297</ele>
        <time>2023-06-10T08:15:27.000Z</time>
      </trkpt>
      <trkpt lat="45.84089" lon="4.73962">
        <ele>265.6264</ele>
        <time>2023-06-10T08:15:28.000Z</time>
      </trkpt>
      <trkpt lat="45.84085" lon="4.73966">
        <ele>265.57718</ele>
        <time>2023-06-10T08:15:29.000Z</time>
      </trkpt>
      <trkpt lat="45.84082" lon="4.7397">
        <ele>265.52899</ele>
        <time>2023-06-10T08:15:30.000Z</time>
      </trkpt>
      <trkpt lat="45.84079" lon="4.73974">
        <ele>265.48642</ele>
        <time>2023-06-10T08:15:31.000Z</time>
      </trkpt>
      <trkpt lat="45.84076" lon="4.73978">
        <ele>265.47003</ele>
        <time>2023-06-10T08:15:32.000Z</time>
      </trkpt>
      <trkpt lat="45.84073" lon="4.73982">
        <ele>265.49042</ele>
        <time>2023-06-10T08:15:33.000Z</time>
      </trkpt>
      <trkpt lat="45.8407" lon="4.73987">
        <ele>265.46701</ele>
        <time>2023-06-10T08:15:34.000Z</time>
      </trkpt>
      <trkpt lat="45.84067" lon="4.73991">
        <ele>265.48819</ele>
        <time>2023-06-10T08:15:35.000Z</time>
      </trkpt>
      <trkpt lat="45.84064" lon="4.73995">
        <ele>265.52045</ele>
        <time>2023-06-10T08:15:36.000Z</time>
      </trkpt>
      <trkpt lat="45.84062" lon="4.73999">
        <ele>265.52856</ele>
        <time>2023-06-10T08:15:37.000Z</time>
      </trkpt>
      <trkpt lat="45.84059" lon="4.74002">
        <ele>265.56467</ele>
        <time>2023-06-10T08:15:38.000Z</time>
      </trkpt>
      <trkpt lat="45.84054" lon="4.74007">
        <ele>265.60571</ele>
        <time>2023-06-10T08:15:39.000Z</time>
      </trkpt>
      <trkpt lat="45.84051" lon="4.74011">
        <ele>265.67252</ele>
        <time>2023-06-10T08:15:40.000Z</time>
      </trkpt>
      <trkpt lat="45.84049" lon="4.74014">
        <ele>265.68927</ele>
        <time>2023-06-10T08:15:41.000Z</time>
      </trkpt>
      <trkpt lat="45.84048" lon="4.74019">
        <ele>265.72278</ele>
        <time>2023-06-10T08:15:42.000Z</time>
      </trkpt>
      <trkpt lat="45.84046" lon="4.74024">
        <ele>265.79202</ele>
        <time>2023-06-10T08:15:43.000Z</time>
      </trkpt>
      <trkpt lat="45.84043" lon="4.74029">
        <ele>265.95279</ele>
        <time>2023-06-10T08:15:44.000Z</time>
      </trkpt>
      <trkpt lat="45.84041" lon="4.74034">
        <ele>266.21255</ele>
        <time>2023-06-10T08:15:45.000Z</time>
      </trkpt>
      <trkpt lat="45.84038" lon="4.74038">
        <ele>266.42667</ele>
        <time>2023-06-10T08:15:46.000Z</time>
      </trkpt>
      <trkpt lat="45.84037" lon="4.74042">
        <ele>266.62799</ele>
        <time>2023-06-10T08:15:47.000Z</time>
      </trkpt>
      <trkpt lat="45.84035" lon="4.74046">
        <ele>266.8056</ele>
        <time>2023-06-10T08:15:48.000Z</time>
      </trkpt>
      <trkpt lat="45.84032" lon="4.74052">
        <ele>266.97675</ele>
        <time>2023-06-10T08:15:49.000Z</time>
      </trkpt>
      <trkpt lat="45.84031" lon="4.74057">
        <ele>267.10333</ele>
        <time>2023-06-10T08:15:50.000Z</time>
      </trkpt>
      <trkpt lat="45.8403" lon="4.74063">
        <ele>267.22275</ele>
        <time>2023-06-10T08:15:51.000Z</time>
      </trkpt>
      <trkpt lat="45.84026" lon="4.74067">
        <ele>268.14655</ele>
        <time>2023-06-10T08:15:52.000Z</time>
      </trkpt>
      <trkpt lat="45.84024" lon="4.74071">
        <ele>269.13992</ele>
        <time>2023-06-10T08:15:53.000Z</time>
      </trkpt>
      <trkpt lat="45.84021" lon="4.74077">
        <ele>270.22162</ele>
        <time>2023-06-10T08:15:54.000Z</time>
      </trkpt>
      <trkpt lat="45.8402" lon="4.74082">
        <ele>271.34015</ele>
        <time>2023-06-10T08:15:55.000Z</time>
      </trkpt>
      <trkpt lat="45.84016" lon="4.74087">
        <ele>272.69275</ele>
        <time>2023-06-10T08:15:56.000Z</time>
      </trkpt>
      <trkpt lat="45.84014" lon="4.74094">
        <ele>274.14853</ele>
        <time>2023-06-10T08:15:57.000Z</time>
      </trkpt>
      <trkpt lat="45.84013" lon="4.741">
        <ele>275.92999</ele>
        <time>2023-06-10T08:15:58.000Z</time>
      </trkpt>
      <trkpt lat="45.84009" lon="4.74102">
        <ele>276.37286</ele>
        <time>2023-06-10T08:15:59.000Z</time>
      </trkpt>
      <trkpt lat="45.84006" lon="4.74104">
        <ele>276.83505</ele>
        <time>2023-06-10T08:16:00.000Z</time>
      </trkpt>
      <trkpt lat="45.84004" lon="4.74107">
        <ele>278.42255</ele>
        <time>2023-06-10T08:16:01.000Z</time>
      </trkpt>
      <trkpt lat="45.84001" lon="4.74111">
        <ele>279.979</ele>
        <time>2023-06-10T08:16:02.000Z</time>
      </trkpt>
      <trkpt lat="45.83998" lon="4.74115">
        <ele>281.53937</ele>
        <time>2023-06-10T08:16:03.000Z</time>
      </trkpt>
      <trkpt lat="45.83995" lon="4.74119">
        <ele>283.03717</ele>
        <time>2023-06-10T08:16:04.000Z</time>
      </trkpt>
      <trkpt lat="45.83993" lon="4.74123">
        <ele>284.60083</ele>
        <time>2023-06-10T08:16:05.000Z</time>
      </trkpt>
      <trkpt lat="45.8399" lon="4.74127">
        <ele>286.02509</ele>
        <time>2023-06-10T08:16:06.000Z</time>
      </trkpt>
      <trkpt lat="45.83988" lon="4.74132">
        <ele>287.31421</ele>
        <time>2023-06-10T08:16:07.000Z</time>
      </trkpt>
      <trkpt lat="45.83987" lon="4.74135">
        <ele>288.51605</ele>
        <time>2023-06-10T08:16:08.000Z</time>
      </trkpt>
      <trkpt lat="45.83986" lon="4.7414">
        <ele>289.59351</ele>
        <time>2023-06-10T08:16:09.000Z</time>
      </trkpt>
      <trkpt lat="45.83985" lon="4.74145">
        <ele>290.69943</ele>
        <time>2023-06-10T08:16:10.000Z</time>
      </trkpt>
      <trkpt lat="45.83984" lon="4.7415">
        <ele>291.7233</ele>
        <time>2023-06-10T08:16:11.000Z</time>
      </trkpt>
      <trkpt lat="45.83983" lon="4.74155">
        <ele>291.99319</ele>
        <time>2023-06-10T08:16:12.000Z</time>
      </trkpt>
      <trkpt lat="45.83982" lon="4.74159">
        <ele>292.40799</ele>
        <time>2023-06-10T08:16:13.000Z</time>
      </trkpt>
      <trkpt lat="45.83981" lon="4.74164">
        <ele>292.91345</ele>
        <time>2023-06-10T08:16:14.000Z</time>
      </trkpt>
      <trkpt lat="45.8398" lon="4.74168">
        <ele>293.4996</ele>
        <time>2023-06-10T08:16:15.000Z</time>
      </trkpt>
      <trkpt lat="45.83978" lon="4.74173">
        <ele>293.13394</ele>
        <time>2023-06-10T08:16:16.000Z</time>
      </trkpt>
      <trkpt lat="45.83977" lon="4.74179">
        <ele>292.77802</ele>
        <time>2023-06-10T08:16:17.000Z</time>
      </trkpt>
      <trkpt lat="45.83975" lon="4.74183">
        <ele>292.17505</ele>
        <time>2023-06-10T08:16:18.000Z</time>
      </trkpt>
      <trkpt lat="45.83974" lon="4.74187">
        <ele>292.94772</ele>
        <time>2023-06-10T08:16:19.000Z</time>
      </trkpt>
      <trkpt lat="45.83973" lon="4.74192">
        <ele>293.55685</ele>
        <time>2023-06-10T08:16:20.000Z</time>
      </trkpt>
      <trkpt lat="45.83972" lon="4.74196">
        <ele>293.08234</ele>
        <time>2023-06-10T08:16:21.000Z</time>
      </trkpt>
      <trkpt lat="45.8397" lon="4.74201">
        <ele>293.01404</ele>
        <time>2023-06-10T08:16:22.000Z</time>
      </trkpt>
      <trkpt lat="45.83968" lon="4.74207">
        <ele>293.07233</ele>
        <time>2023-06-10T08:16:23.000Z</time>
      </trkpt>
      <trkpt lat="45.83967" lon="4.74213">
        <ele>292.50562</ele>
        <time>2023-06-10T08:16:24.000Z</time>
      </trkpt>
      <trkpt lat="45.83966" lon="4.74219">
        <ele>291.93256</ele>
        <time>2023-06-10T08:16:25.000Z</time>
      </trkpt>
      <trkpt lat="45.83965" lon="4.74225">
        <ele>291.46716</ele>
        <time>2023-06-10T08:16:26.000Z</time>
      </trkpt>
      <trkpt lat="45.83963" lon="4.74231">
        <ele>291.26205</ele>
        <time>2023-06-10T08:16:27.000Z</time>
      </trkpt>
      <trkpt lat="45.83962" lon="4.74237">
        <ele>291.138</ele>
        <time>2023-06-10T08:16:28.000Z</time>
      </trkpt>
      <trkpt lat="45.8396" lon="4.74242">
        <ele>291.15326</ele>
        <time>2023-06-10T08:16:29.000Z</time>
      </trkpt>
      <trkpt lat="45.83959" lon="4.74246">
        <ele>291.20151</ele>
        <time>2023-06-10T08:16:30.000Z</time>
      </trkpt>
      <trkpt lat="45.83959" lon="4.7425">
        <ele>291.44501</ele>
        <time>2023-06-10T08:16:31.000Z</time>
      </trkpt>
      <trkpt lat="45.83959" lon="4.74253">
        <ele>291.8118</ele>
        <time>2023-06-10T08:16:32.000Z</time>
      </trkpt>
      <trkpt lat="45.8396" lon="4.74258">
        <ele>291.94284</ele>
        <time>2023-06-10T08:16:33.000Z</time>
      </trkpt>
      <trkpt lat="45.8396" lon="4.74262">
        <ele>291.89923</ele>
        <time>2023-06-10T08:16:34.000Z</time>
      </trkpt>
      <trkpt lat="45.8396" lon="4.74266">
        <ele>291.99936</ele>
        <time>2023-06-10T08:16:35.000Z</time>
      </trkpt>
      <trkpt lat="45.8396" lon="4.74271">
        <ele>292.75723</ele>
        <time>2023-06-10T08:16:36.000Z</time>
      </trkpt>
      <trkpt lat="45.8396" lon="4.74275">
        <ele>292.85919</ele>
        <time>2023-06-10T08:16:37.000Z</time>
      </trkpt>
      <trkpt lat="45.8396" lon="4.74279">
        <ele>293.04517</ele>
        <time>2023-06-10T08:16:38.000Z</time>
      </trkpt>
      <trkpt lat="45.8396" lon="4.74282">
        <ele>293.34229</ele>
        <time>2023-06-10T08:16:39.000Z</time>
      </trkpt>
      <trkpt lat="45.83959" lon="4.74285">
        <ele>293.91693</ele>
        <time>2023-06-10T08:16:40.000Z</time>
      </trkpt>
      <trkpt lat="45.83957" lon="4.74288">
        <ele>294.28427</ele>
        <time>2023-06-10T08:16:41.000Z</time>
      </trkpt>
      <trkpt lat="45.83954" lon="4.7429">
        <ele>294.3725</ele>
        <time>2023-06-10T08:16:42.000Z</time>
      </trkpt>
      <trkpt lat="45.83952" lon="4.74293">
        <ele>294.26828</ele>
        <time>2023-06-10T08:16:43.000Z</time>
      </trkpt>
      <trkpt lat="45.83949" lon="4.74297">
        <ele>294.97845</ele>
        <time>2023-06-10T08:16:44.000Z</time>
      </trkpt>
      <trkpt lat="45.83947" lon="4.74302">
        <ele>295.5824</ele>
        <time>2023-06-10T08:16:45.000Z</time>
      </trkpt>
      <trkpt lat="45.83946" lon="4.74307">
        <ele>296.11395</ele>
        <time>2023-06-10T08:16:46.000Z</time>
      </trkpt>
      <trkpt lat="45.83946" lon="4.74312">
        <ele>296.36172</ele>
        <time>2023-06-10T08:16:47.000Z</time>
      </trkpt>
      <trkpt lat="45.83946" lon="4.74318">
        <ele>296.50507</ele>
        <time>2023-06-10T08:16:48.000Z</time>
      </trkpt>
      <trkpt lat="45.83945" lon="4.74322">
        <ele>296.80054</ele>
        <time>2023-06-10T08:16:49.000Z</time>
      </trkpt>
      <trkpt lat="45.83944" lon="4.74327">
        <ele>297.08447</ele>
        <time>2023-06-10T08:16:50.000Z</time>
      </trkpt>
      <trkpt lat="45.83944" lon="4.74332">
        <ele>296.71771</ele>
        <time>2023-06-10T08:16:51.000Z</time>
      </trkpt>
      <trkpt lat="45.83944" lon="4.74337">
        <ele>296.24527</ele>
        <time>2023-06-10T08:16:52.000Z</time>
      </trkpt>
      <trkpt lat="45.83945" lon="4.74342">
        <ele>295.72845</ele>
        <time>2023-06-10T08:16:53.000Z</time>
      </trkpt>
      <trkpt lat="45.83945" lon="4.74346">
        <ele>295.22455</ele>
        <time>2023-06-10T08:16:54.000Z</time>
      </trkpt>
      <trkpt lat="45.83946" lon="4.74349">
        <ele>294.4613</ele>
        <time>2023-06-10T08:16:55.000Z</time>
      </trkpt>
      <trkpt lat="45.83946" lon="4.74354">
        <ele>293.78568</ele>
        <time>2023-06-10T08:16:56.000Z</time>
      </trkpt>
      <trkpt lat="45.83947" lon="4.74358">
        <ele>293.62503</ele>
        <time>2023-06-10T08:16:57.000Z</time>
      </trkpt>
      <trkpt lat="45.83948" lon="4.74362">
        <ele>293.54025</ele>
        <time>2023-06-10T08:16:58.000Z</time>
      </trkpt>
      <trkpt lat="45.83948" lon="4.74366">
        <ele>293.46356</ele>
        <time>2023-06-10T08:16:59.000Z</time>
      </trkpt>
      <trkpt lat="45.83948" lon="4.74371">
        <ele>293.27826</ele>
        <time>2023-06-10T08:17:00.000Z</time>
      </trkpt>
      <trkpt lat="45.83947" lon="4.74375">
        <ele>292.71991</ele>
        <time>2023-06-10T08:17:01.000Z</time>
      </trkpt>
      <trkpt lat="45.83946" lon="4.74379">
        <ele>292.13358</ele>
        <time>2023-06-10T08:17:02.000Z</time>
      </trkpt>
      <trkpt lat="45.83945" lon="4.74383">
        <ele>291.60703</ele>
        <time>2023-06-10T08:17:03.000Z</time>
      </trkpt>
      <trkpt lat="45.83944" lon="4.74387">
        <ele>290.92593</ele>
        <time>2023-06-10T08:17:04.000Z</time>
      </trkpt>
      <trkpt lat="45.83943" lon="4.74393">
        <ele>290.27045</ele>
        <time>2023-06-10T08:17:05.000Z</time>
      </trkpt>
      <trkpt lat="45.83942" lon="4.74398">
        <ele>289.94608</ele>
        <time>2023-06-10T08:17:06.000Z</time>
      </trkpt>
      <trkpt lat="45.8394" lon="4.74403">
        <ele>289.77945</ele>
        <time>2023-06-10T08:17:07.000Z</time>
      </trkpt>
      <trkpt lat="45.83939" lon="4.74409">
        <ele>289.74011</ele>
        <time>2023-06-10T08:17:08.000Z</time>
      </trkpt>
      <trkpt lat="45.83937" lon="4.74414">
        <ele>289.71124</ele>
        <time>2023-06-10T08:17:09.000Z</time>
      </trkpt>
      <trkpt lat="45.83935" lon="4.74419">
        <ele>289.65244</ele>
        <time>2023-06-10T08:17:10.000Z</time>
      </trkpt>
      <trkpt lat="45.83933" lon="4.74424">
        <ele>289.58478</ele>
        <time>2023-06-10T08:17:11.000Z</time>
      </trkpt>
      <trkpt lat="45.83931" lon="4.74429">
        <ele>289.49817</ele>
        <time>2023-06-10T08:17:12.000Z</time>
      </trkpt>
      <trkpt lat="45.83929" lon="4.74434">
        <ele>289.42502</ele>
        <time>2023-06-10T08:17:13.000Z</time>
      </trkpt>
      <trkpt lat="45.83927" lon="4.74438">
        <ele>289.35223</ele>
        <time>2023-06-10T08:17:14.000Z</time>
      </trkpt>
      <trkpt lat="45.83925" lon="4.74443">
        <ele>289.25586</ele>
        <time>2023-06-10T08:17:15.000Z</time>
      </trkpt>
      <trkpt lat="45.83922" lon="4.74447">
        <ele>289.12256</ele>
        <time>2023-06-10T08:17:16.000Z</time>
      </trkpt>
      <trkpt lat="45.8392" lon="4.74452">
        <ele>289.06039</ele>
        <time>2023-06-10T08:17:17.000Z</time>
      </trkpt>
      <trkpt lat="45.83918" lon="4.74457">
        <ele>289.02261</ele>
        <time>2023-06-10T08:17:18.000Z</time>
      </trkpt>
      <trkpt lat="45.83916" lon="4.74462">
        <ele>288.96725</ele>
        <time>2023-06-10T08:17:19.000Z</time>
      </trkpt>
      <trkpt lat="45.83914" lon="4.74466">
        <ele>288.89896</ele>
        <time>2023-06-10T08:17:20.000Z</time>
      </trkpt>
      <trkpt lat="45.83912" lon="4.74471">
        <ele>288.83014</ele>
        <time>2023-06-10T08:17:21.000Z</time>
      </trkpt>
      <trkpt lat="45.8391" lon="4.74475">
        <ele>288.77426</ele>
        <time>2023-06-10T08:17:22.000Z</time>
      </trkpt>
      <trkpt lat="45.83908" lon="4.7448">
        <ele>288.71918</ele>
        <time>2023-06-10T08:17:23.000Z</time>
      </trkpt>
      <trkpt lat="45.83906" lon="4.74484">
        <ele>288.664</ele>
        <time>2023-06-10T08:17:24.000Z</time>
      </trkpt>
      <trkpt lat="45.83903" lon="4.74489">
        <ele>288.61935</ele>
        <time>2023-06-10T08:17:25.000Z</time>
      </trkpt>
      <trkpt lat="45.83901" lon="4.74494">
        <ele>288.61606</ele>
        <time>2023-06-10T08:17:26.000Z</time>
      </trkpt>
      <trkpt lat="45.839" lon="4.74499">
        <ele>288.77582</ele>
        <time>2023-06-10T08:17:27.000Z</time>
      </trkpt>
      <trkpt lat="45.83898" lon="4.74503">
        <ele>288.94498</ele>
        <time>2023-06-10T08:17:28.000Z</time>
      </trkpt>
      <trkpt lat="45.83897" lon="4.74509">
        <ele>288.3931</ele>
        <time>2023-06-10T08:17:29.000Z</time>
      </trkpt>
      <trkpt lat="45.83896" lon="4.74514">
        <ele>287.95001</ele>
        <time>2023-06-10T08:17:30.000Z</time>
      </trkpt>
      <trkpt lat="45.83895" lon="4.74519">
        <ele>288.07413</ele>
        <time>2023-06-10T08:17:31.000Z</time>
      </trkpt>
      <trkpt lat="45.83895" lon="4.74525">
        <ele>288.14185</ele>
        <time>2023-06-10T08:17:32.000Z</time>
      </trkpt>
      <trkpt lat="45.83895" lon="4.7453">
        <ele>288.2403</ele>
        <time>2023-06-10T08:17:33.000Z</time>
      </trkpt>
      <trkpt lat="45.83895" lon="4.74535">
        <ele>288.35037</ele>
        <time>2023-06-10T08:17:34.000Z</time>
      </trkpt>
      <trkpt lat="45.83895" lon="4.7454">
        <ele>288.45465</ele>
        <time>2023-06-10T08:17:35.000Z</time>
      </trkpt>
      <trkpt lat="45.83896" lon="4.74545">
        <ele>288.80856</ele>
        <time>2023-06-10T08:17:36.000Z</time>
      </trkpt>
      <trkpt lat="45.83897" lon="4.74551">
        <ele>289.14932</ele>
        <time>2023-06-10T08:17:37.000Z</time>
      </trkpt>
      <trkpt lat="45.83899" lon="4.74557">
        <ele>289.21094</ele>
        <time>2023-06-10T08:17:38.000Z</time>
      </trkpt>
      <trkpt lat="45.83901" lon="4.74562">
        <ele>289.27048</ele>
        <time>2023-06-10T08:17:39.000Z</time>
      </trkpt>
      <trkpt lat="45.83902" lon="4.74567">
        <ele>289.33728</ele>
        <time>2023-06-10T08:17:40.000Z</time>
      </trkpt>
      <trkpt lat="45.83905" lon="4.74573">
        <ele>289.40192</ele>
        <time>2023-06-10T08:17:41.000Z</time>
      </trkpt>
      <trkpt lat="45.83907" lon="4.7458">
        <ele>289.42181</ele>
        <time>2023-06-10T08:17:42.000Z</time>
      </trkpt>
      <trkpt lat="45.83908" lon="4.74587">
        <ele>289.4476</ele>
        <time>2023-06-10T08:17:43.000Z</time>
      </trkpt>
      <trkpt lat="45.83908" lon="4.74593">
        <ele>289.49966</ele>
        <time>2023-06-10T08:17:44.000Z</time>
      </trkpt>
      <trkpt lat="45.83907" lon="4.74599">
        <ele>289.56659</ele>
        <time>2023-06-10T08:17:45.000Z</time>
      </trkpt>
      <trkpt lat="45.83907" lon="4.74604">
        <ele>289.31433</ele>
        <time>2023-06-10T08:17:46.000Z</time>
      </trkpt>
      <trkpt lat="45.83905" lon="4.74611">
        <ele>288.95734</ele>
        <time>2023-06-10T08:17:47.000Z</time>
      </trkpt>
      <trkpt lat="45.83903" lon="4.74616">
        <ele>288.62732</ele>
        <time>2023-06-10T08:17:48.000Z</time>
      </trkpt>
      <trkpt lat="45.83901" lon="4.74621">
        <ele>288.75085</ele>
        <time>2023-06-10T08:17:49.000Z</time>
      </trkpt>
      <trkpt lat="45.83899" lon="4.74626">
        <ele>288.75122</ele>
        <time>2023-06-10T08:17:50.000Z</time>
      </trkpt>
      <trkpt lat="45.83897" lon="4.74631">
        <ele>288.7265</ele>
        <time>2023-06-10T08:17:51.000Z</time>
      </trkpt>
      <trkpt lat="45.83896" lon="4.74635">
        <ele>288.9368</ele>
        <time>2023-06-10T08:17:52.000Z</time>
      </trkpt>
      <trkpt lat="45.83893" lon="4.74639">
        <ele>289.11786</ele>
        <time>2023-06-10T08:17:53.000Z</time>
      </trkpt>
      <trkpt lat="45.83891" lon="4.74642">
        <ele>289.40585</ele>
        <time>2023-06-10T08:17:54.000Z</time>
      </trkpt>
      <trkpt lat="45.83889" lon="4.74646">
        <ele>289.98325</ele>
        <time>2023-06-10T08:17:55.000Z</time>
      </trkpt>
      <trkpt lat="45.83886" lon="4.74649">
        <ele>289.75995</ele>
        <time>2023-06-10T08:17:56.000Z</time>
      </trkpt>
      <trkpt lat="45.83882" lon="4.74653">
        <ele>289.66769</ele>
        <time>2023-06-10T08:17:57.000Z</time>
      </trkpt>
      <trkpt lat="45.83879" lon="4.74656">
        <ele>289.5379</ele>
        <time>2023-06-10T08:17:58.000Z</time>
      </trkpt>
      <trkpt lat="45.83876" lon="4.74658">
        <ele>289.2352</ele>
        <time>2023-06-10T08:17:59.000Z</time>
      </trkpt>
      <trkpt lat="45.83873" lon="4.7466">
        <ele>289.0697</ele>
        <time>2023-06-10T08:18:00.000Z</time>
      </trkpt>
      <trkpt lat="45.83871" lon="4.74663">
        <ele>289.3996</ele>
        <time>2023-06-10T08:18:01.000Z</time>
      </trkpt>
      <trkpt lat="45.83869" lon="4.74666">
        <ele>289.39819</ele>
        <time>2023-06-10T08:18:02.000Z</time>
      </trkpt>
      <trkpt lat="45.83868" lon="4.74669">
        <ele>289.38287</ele>
        <time>2023-06-10T08:18:03.000Z</time>
      </trkpt>
      <trkpt lat="45.83867" lon="4.74673">
        <ele>289.3161</ele>
        <time>2023-06-10T08:18:04.000Z</time>
      </trkpt>
      <trkpt lat="45.83865" lon="4.74678">
        <ele>289.42484</ele>
        <time>2023-06-10T08:18:05.000Z</time>
      </trkpt>
      <trkpt lat="45.83863" lon="4.74683">
        <ele>289.6048</ele>
        <time>2023-06-10T08:18:06.000Z</time>
      </trkpt>
      <trkpt lat="45.83861" lon="4.74687">
        <ele>289.67505</ele>
        <time>2023-06-10T08:18:07.000Z</time>
      </trkpt>
      <trkpt lat="45.83859" lon="4.7469">
        <ele>289.84985</ele>
        <time>2023-06-10T08:18:08.000Z</time>
      </trkpt>
      <trkpt lat="45.83857" lon="4.74694">
        <ele>289.74023</ele>
        <time>2023-06-10T08:18:09.000Z</time>
      </trkpt>
      <trkpt lat="45.83854" lon="4.74697">
        <ele>289.43448</ele>
        <time>2023-06-10T08:18:10.000Z</time>
      </trkpt>
      <trkpt lat="45.83852" lon="4.747">
        <ele>289.18323</ele>
        <time>2023-06-10T08:18:11.000Z</time>
      </trkpt>
      <trkpt lat="45.83849" lon="4.74703">
        <ele>288.64325</ele>
        <time>2023-06-10T08:18:12.000Z</time>
      </trkpt>
      <trkpt lat="45.83845" lon="4.74706">
        <ele>288.06955</ele>
        <time>2023-06-10T08:18:13.000Z</time>
      </trkpt>
      <trkpt lat="45.83842" lon="4.74708">
        <ele>287.47458</ele>
        <time>2023-06-10T08:18:14.000Z</time>
      </trkpt>
      <trkpt lat="45.8384" lon="4.74709">
        <ele>286.6434</ele>
        <time>2023-06-10T08:18:15.000Z</time>
      </trkpt>
      <trkpt lat="45.83837" lon="4.7471">
        <ele>286.33328</ele>
        <time>2023-06-10T08:18:16.000Z</time>
      </trkpt>
      <trkpt lat="45.83834" lon="4.74711">
        <ele>285.95663</ele>
        <time>2023-06-10T08:18:17.000Z</time>
      </trkpt>
      <trkpt lat="45.8383" lon="4.74713">
        <ele>285.66132</ele>
        <time>2023-06-10T08:18:18.000Z</time>
      </trkpt>
      <trkpt lat="45.83826" lon="4.74716">
        <ele>285.39325</ele>
        <time>2023-06-10T08:18:19.000Z</time>
      </trkpt>
      <trkpt lat="45.83823" lon="4.74719">
        <ele>284.90826</ele>
        <time>2023-06-10T08:18:20.000Z</time>
      </trkpt>
      <trkpt lat="45.83819" lon="4.74722">
        <ele>284.39227</ele>
        <time>2023-06-10T08:18:21.000Z</time>
      </trkpt>
      <trkpt lat="45.83815" lon="4.74724">
        <ele>284.18903</ele>
        <time>2023-06-10T08:18:22.000Z</time>
      </trkpt>
      <trkpt lat="45.83813" lon="4.74726">
        <ele>284.02289</ele>
        <time>2023-06-10T08:18:23.000Z</time>
      </trkpt>
      <trkpt lat="45.8381" lon="4.74728">
        <ele>283.88196</ele>
        <time>2023-06-10T08:18:24.000Z</time>
      </trkpt>
      <trkpt lat="45.83807" lon="4.74731">
        <ele>283.57782</ele>
        <time>2023-06-10T08:18:25.000Z</time>
      </trkpt>
      <trkpt lat="45.83803" lon="4.74733">
        <ele>283.31879</ele>
        <time>2023-06-10T08:18:26.000Z</time>
      </trkpt>
      <trkpt lat="45.838" lon="4.74737">
        <ele>283.17047</ele>
        <time>2023-06-10T08:18:27.000Z</time>
      </trkpt>
      <trkpt lat="45.83797" lon="4.7474">
        <ele>282.81918</ele>
        <time>2023-06-10T08:18:28.000Z</time>
      </trkpt>
      <trkpt lat="45.83794" lon="4.74744">
        <ele>282.78098</ele>
        <time>2023-06-10T08:18:29.000Z</time>
      </trkpt>
      <trkpt lat="45.83791" lon="4.74748">
        <ele>282.84674</ele>
        <time>2023-06-10T08:18:30.000Z</time>
      </trkpt>
      <trkpt lat="45.83789" lon="4.74751">
        <ele>282.91498</ele>
        <time>2023-06-10T08:18:31.000Z</time>
      </trkpt>
      <trkpt lat="45.83787" lon="4.74754">
        <ele>282.93442</ele>
        <time>2023-06-10T08:18:32.000Z</time>
      </trkpt>
      <trkpt lat="45.83785" lon="4.74757">
        <ele>283.17242</ele>
        <time>2023-06-10T08:18:33.000Z</time>
      </trkpt>
      <trkpt lat="45.83783" lon="4.74762">
        <ele>283.29828</ele>
        <time>2023-06-10T08:18:34.000Z</time>
      </trkpt>
      <trkpt lat="45.83781" lon="4.74766">
        <ele>283.32184</ele>
        <time>2023-06-10T08:18:35.000Z</time>
      </trkpt>
      <trkpt lat="45.83778" lon="4.74771">
        <ele>283.43991</ele>
        <time>2023-06-10T08:18:36.000Z</time>
      </trkpt>
      <trkpt lat="45.83776" lon="4.74777">
        <ele>283.44855</ele>
        <time>2023-06-10T08:18:37.000Z</time>
      </trkpt>
      <trkpt lat="45.83774" lon="4.74782">
        <ele>283.43121</ele>
        <time>2023-06-10T08:18:38.000Z</time>
      </trkpt>
      <trkpt lat="45.83771" lon="4.74787">
        <ele>283.37344</ele>
        <time>2023-06-10T08:18:39.000Z</time>
      </trkpt>
      <trkpt lat="45.83768" lon="4.74796">
        <ele>283.32886</ele>
        <time>2023-06-10T08:18:40.000Z</time>
      </trkpt>
      <trkpt lat="45.83765" lon="4.74801">
        <ele>283.41422</ele>
        <time>2023-06-10T08:18:41.000Z</time>
      </trkpt>
      <trkpt lat="45.83763" lon="4.74806">
        <ele>283.38983</ele>
        <time>2023-06-10T08:18:42.000Z</time>
      </trkpt>
      <trkpt lat="45.8376" lon="4.74811">
        <ele>283.28729</ele>
        <time>2023-06-10T08:18:43.000Z</time>
      </trkpt>
      <trkpt lat="45.83757" lon="4.74816">
        <ele>283.18134</ele>
        <time>2023-06-10T08:18:44.000Z</time>
      </trkpt>
      <trkpt lat="45.83753" lon="4.74821">
        <ele>283.0889</ele>
        <time>2023-06-10T08:18:45.000Z</time>
      </trkpt>
      <trkpt lat="45.8375" lon="4.74824">
        <ele>283.04053</ele>
        <time>2023-06-10T08:18:46.000Z</time>
      </trkpt>
      <trkpt lat="45.83747" lon="4.74828">
        <ele>282.97513</ele>
        <time>2023-06-10T08:18:47.000Z</time>
      </trkpt>
      <trkpt lat="45.83743" lon="4.74831">
        <ele>282.91968</ele>
        <time>2023-06-10T08:18:48.000Z</time>
      </trkpt>
      <trkpt lat="45.83739" lon="4.74834">
        <ele>282.81128</ele>
        <time>2023-06-10T08:18:49.000Z</time>
      </trkpt>
      <trkpt lat="45.83736" lon="4.74839">
        <ele>282.82645</ele>
        <time>2023-06-10T08:18:50.000Z</time>
      </trkpt>
      <trkpt lat="45.83732" lon="4.74842">
        <ele>282.8024</ele>
        <time>2023-06-10T08:18:51.000Z</time>
      </trkpt>
      <trkpt lat="45.83729" lon="4.74844">
        <ele>282.80682</ele>
        <time>2023-06-10T08:18:52.000Z</time>
      </trkpt>
      <trkpt lat="45.83725" lon="4.74847">
        <ele>282.58957</ele>
        <time>2023-06-10T08:18:53.000Z</time>
      </trkpt>
      <trkpt lat="45.83721" lon="4.74851">
        <ele>282.41046</ele>
        <time>2023-06-10T08:18:54.000Z</time>
      </trkpt>
      <trkpt lat="45.83717" lon="4.74853">
        <ele>282.30063</ele>
        <time>2023-06-10T08:18:55.000Z</time>
      </trkpt>
      <trkpt lat="45.83712" lon="4.74857">
        <ele>282.16666</ele>
        <time>2023-06-10T08:18:56.000Z</time>
      </trkpt>
      <trkpt lat="45.83709" lon="4.74859">
        <ele>282.08771</ele>
        <time>2023-06-10T08:18:57.000Z</time>
      </trkpt>
      <trkpt lat="45.83704" lon="4.74861">
        <ele>282.09088</ele>
        <time>2023-06-10T08:18:58.000Z</time>
      </trkpt>
      <trkpt lat="45.837" lon="4.74864">
        <ele>282.09415</ele>
        <time>2023-06-10T08:18:59.000Z</time>
      </trkpt>
      <trkpt lat="45.83696" lon="4.74867">
        <ele>282.08688</ele>
        <time>2023-06-10T08:19:00.000Z</time>
      </trkpt>
      <trkpt lat="45.83693" lon="4.74869">
        <ele>282.08838</ele>
        <time>2023-06-10T08:19:01.000Z</time>
      </trkpt>
      <trkpt lat="45.83688" lon="4.74872">
        <ele>282.21335</ele>
        <time>2023-06-10T08:19:02.000Z</time>
      </trkpt>
      <trkpt lat="45.83684" lon="4.74875">
        <ele>282.4296</ele>
        <time>2023-06-10T08:19:03.000Z</time>
      </trkpt>
      <trkpt lat="45.8368" lon="4.74879">
        <ele>282.64386</ele>
        <time>2023-06-10T08:19:04.000Z</time>
      </trkpt>
      <trkpt lat="45.83677" lon="4.74882">
        <ele>282.82819</ele>
        <time>2023-06-10T08:19:05.000Z</time>
      </trkpt>
      <trkpt lat="45.83675" lon="4.74886">
        <ele>282.7894</ele>
        <time>2023-06-10T08:19:06.000Z</time>
      </trkpt>
      <trkpt lat="45.83673" lon="4.74889">
        <ele>282.6969</ele>
        <time>2023-06-10T08:19:07.000Z</time>
      </trkpt>
      <trkpt lat="45.8367" lon="4.74894">
        <ele>282.64352</ele>
        <time>2023-06-10T08:19:08.000Z</time>
      </trkpt>
      <trkpt lat="45.83667" lon="4.74899">
        <ele>282.70331</ele>
        <time>2023-06-10T08:19:09.000Z</time>
      </trkpt>
      <trkpt lat="45.83666" lon="4.74903">
        <ele>282.68915</ele>
        <time>2023-06-10T08:19:10.000Z</time>
      </trkpt>
      <trkpt lat="45.83664" lon="4.74907">
        <ele>282.64117</ele>
        <time>2023-06-10T08:19:11.000Z</time>
      </trkpt>
      <trkpt lat="45.83661" lon="4.74911">
        <ele>282.72467</ele>
        <time>2023-06-10T08:19:12.000Z</time>
      </trkpt>
      <trkpt lat="45.83659" lon="4.74916">
        <ele>282.83508</ele>
        <time>2023-06-10T08:19:13.000Z</time>
      </trkpt>
      <trkpt lat="45.83657" lon="4.74922">
        <ele>282.91876</ele>
        <time>2023-06-10T08:19:14.000Z</time>
      </trkpt>
      <trkpt lat="45.83655" lon="4.74927">
        <ele>283.00021</ele>
        <time>2023-06-10T08:19:15.000Z</time>
      </trkpt>
      <trkpt lat="45.83653" lon="4.74931">
        <ele>283.02591</ele>
        <time>2023-06-10T08:19:16.000Z</time>
      </trkpt>
      <trkpt lat="45.83653" lon="4.74935">
        <ele>283.06534</ele>
        <time>2023-06-10T08:19:17.000Z</time>
      </trkpt>
      <trkpt lat="45.83651" lon="4.74939">
        <ele>283.0462</ele>
        <time>2023-06-10T08:19:18.000Z</time>
      </trkpt>
      <trkpt lat="45.83649" lon="4.74944">
        <ele>282.87982</ele>
        <time>2023-06-10T08:19:19.000Z</time>
      </trkpt>
      <trkpt lat="45.83647" lon="4.74949">
        <ele>282.784</ele>
        <time>2023-06-10T08:19:20.000Z</time>
      </trkpt>
      <trkpt lat="45.83646" lon="4.74954">
        <ele>282.62238</ele>
        <time>2023-06-10T08:19:21.000Z</time>
      </trkpt>
      <trkpt lat="45.83644" lon="4.74958">
        <ele>282.32901</ele>
        <time>2023-06-10T08:19:22.000Z</time>
      </trkpt>
      <trkpt lat="45.83642" lon="4.74964">
        <ele>281.9339</ele>
        <time>2023-06-10T08:19:23.000Z</time>
      </trkpt>
      <trkpt lat="45.83641" lon="4.7497">
        <ele>281.57611</ele>
        <time>2023-06-10T08:19:24.000Z</time>
      </trkpt>
      <trkpt lat="45.83641" lon="4.74977">
        <ele>281.27383</ele>
        <time>2023-06-10T08:19:25.000Z</time>
      </trkpt>
      <trkpt lat="45.8364" lon="4.74984">
        <ele>281.07687</ele>
        <time>2023-06-10T08:19:26.000Z</time>
      </trkpt>
      <trkpt lat="45.83638" lon="4.74992">
        <ele>280.88708</ele>
        <time>2023-06-10T08:19:27.000Z</time>
      </trkpt>
      <trkpt lat="45.83635" lon="4.74997">
        <ele>280.66833</ele>
        <time>2023-06-10T08:19:28.000Z</time>
      </trkpt>
      <trkpt lat="45.83633" lon="4.75003">
        <ele>280.47797</ele>
        <time>2023-06-10T08:19:29.000Z</time>
      </trkpt>
      <trkpt lat="45.83634" lon="4.75012">
        <ele>280.392</ele>
        <time>2023-06-10T08:19:30.000Z</time>
      </trkpt>
      <trkpt lat="45.83634" lon="4.75018">
        <ele>280.35074</ele>
        <time>2023-06-10T08:19:31.000Z</time>
      </trkpt>
      <trkpt lat="45.83632" lon="4.75023">
        <ele>280.25333</ele>
        <time>2023-06-10T08:19:32.000Z</time>
      </trkpt>
      <trkpt lat="45.83627" lon="4.75027">
        <ele>280.29401</ele>
        <time>2023-06-10T08:19:33.000Z</time>
      </trkpt>
      <trkpt lat="45.83625" lon="4.75032">
        <ele>280.40417</ele>
        <time>2023-06-10T08:19:34.000Z</time>
      </trkpt>
      <trkpt lat="45.83621" lon="4.75037">
        <ele>280.6048</ele>
        <time>2023-06-10T08:19:35.000Z</time>
      </trkpt>
      <trkpt lat="45.83619" lon="4.75042">
        <ele>280.85431</ele>
        <time>2023-06-10T08:19:36.000Z</time>
      </trkpt>
      <trkpt lat="45.83617" lon="4.75047">
        <ele>281.05536</ele>
        <time>2023-06-10T08:19:37.000Z</time>
      </trkpt>
      <trkpt lat="45.83615" lon="4.75052">
        <ele>281.21051</ele>
        <time>2023-06-10T08:19:38.000Z</time>
      </trkpt>
      <trkpt lat="45.83612" lon="4.75056">
        <ele>281.39484</ele>
        <time>2023-06-10T08:19:39.000Z</time>
      </trkpt>
      <trkpt lat="45.83609" lon="4.75061">
        <ele>281.57108</ele>
        <time>2023-06-10T08:19:40.000Z</time>
      </trkpt>
      <trkpt lat="45.83606" lon="4.75066">
        <ele>281.71497</ele>
        <time>2023-06-10T08:19:41.000Z</time>
      </trkpt>
      <trkpt lat="45.83604" lon="4.75071">
        <ele>281.90582</ele>
        <time>2023-06-10T08:19:42.000Z</time>
      </trkpt>
      <trkpt lat="45.83602" lon="4.75076">
        <ele>282.16547</ele>
        <time>2023-06-10T08:19:43.000Z</time>
      </trkpt>
      <trkpt lat="45.836" lon="4.75081">
        <ele>282.45978</ele>
        <time>2023-06-10T08:19:44.000Z</time>
      </trkpt>
      <trkpt lat="45.83599" lon="4.75086">
        <ele>282.69205</ele>
        <time>2023-06-10T08:19:45.000Z</time>
      </trkpt>
      <trkpt lat="45.83597" lon="4.75091">
        <ele>282.92856</ele>
        <time>2023-06-10T08:19:46.000Z</time>
      </trkpt>
      <trkpt lat="45.83595" lon="4.75096">
        <ele>283.21521</ele>
        <time>2023-06-10T08:19:47.000Z</time>
      </trkpt>
      <trkpt lat="45.83593" lon="4.751">
        <ele>283.55322</ele>
        <time>2023-06-10T08:19:48.000Z</time>
      </trkpt>
      <trkpt lat="45.83591" lon="4.75104">
        <ele>283.77594</ele>
        <time>2023-06-10T08:19:49.000Z</time>
      </trkpt>
      <trkpt lat="45.83589" lon="4.75108">
        <ele>283.97208</ele>
        <time>2023-06-10T08:19:50.000Z</time>
      </trkpt>
      <trkpt lat="45.83587" lon="4.75111">
        <ele>284.15692</ele>
        <time>2023-06-10T08:19:51.000Z</time>
      </trkpt>
      <trkpt lat="45.83585" lon="4.75114">
        <ele>284.30624</ele>
        <time>2023-06-10T08:19:52.000Z</time>
      </trkpt>
      <trkpt lat="45.83584" lon="4.75117">
        <ele>284.34573</ele>
        <time>2023-06-10T08:19:53.000Z</time>
      </trkpt>
      <trkpt lat="45.83583" lon="4.7512">
        <ele>284.31976</ele>
        <time>2023-06-10T08:19:54.000Z</time>
      </trkpt>
      <trkpt lat="45.83581" lon="4.75124">
        <ele>284.18634</ele>
        <time>2023-06-10T08:19:55.000Z</time>
      </trkpt>
      <trkpt lat="45.83579" lon="4.75127">
        <ele>284.02368</ele>
        <time>2023-06-10T08:19:56.000Z</time>
      </trkpt>
      <trkpt lat="45.83577" lon="4.75129">
        <ele>283.91034</ele>
        <time>2023-06-10T08:19:57.000Z</time>
      </trkpt>
      <trkpt lat="45.83575" lon="4.75132">
        <ele>283.81537</ele>
        <time>2023-06-10T08:19:58.000Z</time>
      </trkpt>
      <trkpt lat="45.83572" lon="4.75136">
        <ele>283.87579</ele>
        <time>2023-06-10T08:19:59.000Z</time>
      </trkpt>
      <trkpt lat="45.8357" lon="4.7514">
        <ele>283.91379</ele>
        <time>2023-06-10T08:20:00.000Z</time>
      </trkpt>
      <trkpt lat="45.83567" lon="4.75143">
        <ele>284.00531</ele>
        <time>2023-06-10T08:20:01.000Z</time>
      </trkpt>
      <trkpt lat="45.83565" lon="4.75145">
        <ele>284.14117</ele>
        <time>2023-06-10T08:20:02.000Z</time>
      </trkpt>
      <trkpt lat="45.83561" lon="4.75148">
        <ele>284.25818</ele>
        <time>2023-06-10T08:20:03.000Z</time>
      </trkpt>
      <trkpt lat="45.83558" lon="4.75151">
        <ele>284.33475</ele>
        <time>2023-06-10T08:20:04.000Z</time>
      </trkpt>
      <trkpt lat="45.83555" lon="4.75154">
        <ele>284.40967</ele>
        <time>2023-06-10T08:20:05.000Z</time>
      </trkpt>
      <trkpt lat="45.83552" lon="4.75156">
        <ele>284.52411</ele>
        <time>2023-06-10T08:20:06.000Z</time>
      </trkpt>
      <trkpt lat="45.83549" lon="4.75159">
        <ele>284.58484</ele>
        <time>2023-06-10T08:20:07.000Z</time>
      </trkpt>
      <trkpt lat="45.83546" lon="4.75162">
        <ele>284.60107</ele>
        <time>2023-06-10T08:20:08.000Z</time>
      </trkpt>
      <trkpt lat="45.83543" lon="4.75165">
        <ele>284.70807</ele>
        <time>2023-06-10T08:20:09.000Z</time>
      </trkpt>
      <trkpt lat="45.8354" lon="4.75168">
        <ele>284.76624</ele>
        <time>2023-06-10T08:20:10.000Z</time>
      </trkpt>
      <trkpt lat="45.83536" lon="4.75172">
        <ele>284.78448</ele>
        <time>2023-06-10T08:20:11.000Z</time>
      </trkpt>
      <trkpt lat="45.83532" lon="4.75176">
        <ele>284.84064</ele>
        <time>2023-06-10T08:20:12.000Z</time>
      </trkpt>
      <trkpt lat="45.83528" lon="4.75182">
        <ele>284.90384</ele>
        <time>2023-06-10T08:20:13.000Z</time>
      </trkpt>
      <trkpt lat="45.83524" lon="4.75187">
        <ele>284.8786</ele>
        <time>2023-06-10T08:20:14.000Z</time>
      </trkpt>
      <trkpt lat="45.8352" lon="4.75191">
        <ele>284.90634</ele>
        <time>2023-06-10T08:20:15.000Z</time>
      </trkpt>
      <trkpt lat="45.83517" lon="4.75194">
        <ele>284.88873</ele>
        <time>2023-06-10T08:20:16.000Z</time>
      </trkpt>
      <trkpt lat="45.83512" lon="4.75197">
        <ele>284.87479</ele>
        <time>2023-06-10T08:20:17.000Z</time>
      </trkpt>
      <trkpt lat="45.83508" lon="4.75198">
        <ele>284.84891</ele>
        <time>2023-06-10T08:20:18.000Z</time>
      </trkpt>
      <trkpt lat="45.83503" lon="4.75199">
        <ele>284.81305</ele>
        <time>2023-06-10T08:20:19.000Z</time>
      </trkpt>
      <trkpt lat="45.83499" lon="4.752">
        <ele>284.81119</ele>
        <time>2023-06-10T08:20:20.000Z</time>
      </trkpt>
      <trkpt lat="45.83496" lon="4.752">
        <ele>284.86279</ele>
        <time>2023-06-10T08:20:21.000Z</time>
      </trkpt>
      <trkpt lat="45.83492" lon="4.75199">
        <ele>284.78448</ele>
        <time>2023-06-10T08:20:22.000Z</time>
      </trkpt>
      <trkpt lat="45.83488" lon="4.752">
        <ele>284.72888</ele>
        <time>2023-06-10T08:20:23.000Z</time>
      </trkpt>
      <trkpt lat="45.83484" lon="4.752">
        <ele>284.70245</ele>
        <time>2023-06-10T08:20:24.000Z</time>
      </trkpt>
      <trkpt lat="45.8348" lon="4.75202">
        <ele>284.69196</ele>
        <time>2023-06-10T08:20:25.000Z</time>
      </trkpt>
      <trkpt lat="45.83476" lon="4.75203">
        <ele>284.73199</ele>
        <time>2023-06-10T08:20:26.000Z</time>
      </trkpt>
      <trkpt lat="45.83472" lon="4.75206">
        <ele>284.7879</ele>
        <time>2023-06-10T08:20:27.000Z</time>
      </trkpt>
      <trkpt lat="45.83469" lon="4.75208">
        <ele>284.88474</ele>
        <time>2023-06-10T08:20:28.000Z</time>
      </trkpt>
      <trkpt lat="45.83465" lon="4.75211">
        <ele>284.90256</ele>
        <time>2023-06-10T08:20:29.000Z</time>
      </trkpt>
      <trkpt lat="45.83462" lon="4.75213">
        <ele>284.97842</ele>
        <time>2023-06-10T08:20:30.000Z</time>
      </trkpt>
      <trkpt lat="45.8346" lon="4.75215">
        <ele>285.08057</ele>
        <time>2023-06-10T08:20:31.000Z</time>
      </trkpt>
      <trkpt lat="45.83458" lon="4.75218">
        <ele>285.1734</ele>
        <time>2023-06-10T08:20:32.000Z</time>
      </trkpt>
      <trkpt lat="45.83455" lon="4.7522">
        <ele>285.27005</ele>
        <time>2023-06-10T08:20:33.000Z</time>
      </trkpt>
      <trkpt lat="45.83452" lon="4.75223">
        <ele>285.48581</ele>
        <time>2023-06-10T08:20:34.000Z</time>
      </trkpt>
      <trkpt lat="45.83449" lon="4.75225">
        <ele>285.68591</ele>
        <time>2023-06-10T08:20:35.000Z</time>
      </trkpt>
      <trkpt lat="45.83445" lon="4.75228">
        <ele>285.92535</ele>
        <time>2023-06-10T08:20:36.000Z</time>
      </trkpt>
      <trkpt lat="45.83441" lon="4.7523">
        <ele>286.05746</ele>
        <time>2023-06-10T08:20:37.000Z</time>
      </trkpt>
      <trkpt lat="45.83439" lon="4.75232">
        <ele>286.19073</ele>
        <time>2023-06-10T08:20:38.000Z</time>
      </trkpt>
      <trkpt lat="45.83435" lon="4.75234">
        <ele>286.34579</ele>
        <time>2023-06-10T08:20:39.000Z</time>
      </trkpt>
      <trkpt lat="45.83431" lon="4.75237">
        <ele>286.4516</ele>
        <time>2023-06-10T08:20:40.000Z</time>
      </trkpt>
      <trkpt lat="45.83427" lon="4.7524">
        <ele>286.50671</ele>
        <time>2023-06-10T08:20:41.000Z</time>
      </trkpt>
      <trkpt lat="45.83423" lon="4.75242">
        <ele>286.64517</ele>
        <time>2023-06-10T08:20:42.000Z</time>
      </trkpt>
      <trkpt lat="45.83419" lon="4.7525">
        <ele>286.83679</ele>
        <time>2023-06-10T08:20:43.000Z</time>
      </trkpt>
      <trkpt lat="45.83416" lon="4.75258">
        <ele>286.97913</ele>
        <time>2023-06-10T08:20:44.000Z</time>
      </trkpt>
      <trkpt lat="45.83413" lon="4.75267">
        <ele>287.05215</ele>
        <time>2023-06-10T08:20:45.000Z</time>
      </trkpt>
      <trkpt lat="45.83411" lon="4.75272">
        <ele>287.05142</ele>
        <time>2023-06-10T08:20:46.000Z</time>
      </trkpt>
      <trkpt lat="45.83409" lon="4.75277">
        <ele>287.14728</ele>
        <time>2023-06-10T08:20:48.000Z</time>
      </trkpt>
      <trkpt lat="45.83407" lon="4.75281">
        <ele>287.22153</ele>
        <time>2023-06-10T08:20:50.000Z</time>
      </trkpt>
      <trkpt lat="45.83405" lon="4.75284">
        <ele>287.3515</ele>
        <time>2023-06-10T08:20:51.000Z</time>
      </trkpt>
      <trkpt lat="45.83403" lon="4.75286">
        <ele>287.47644</ele>
        <time>2023-06-10T08:20:52.000Z</time>
      </trkpt>
      <trkpt lat="45.83401" lon="4.75287">
        <ele>287.59238</ele>
        <time>2023-06-10T08:20:53.000Z</time>
      </trkpt>
      <trkpt lat="45.83398" lon="4.75289">
        <ele>287.70886</ele>
        <time>2023-06-10T08:20:54.000Z</time>
      </trkpt>
      <trkpt lat="45.83394" lon="4.7529">
        <ele>287.79654</ele>
        <time>2023-06-10T08:20:55.000Z</time>
      </trkpt>
      <trkpt lat="45.83391" lon="4.75292">
        <ele>287.83295</ele>
        <time>2023-06-10T08:20:56.000Z</time>
      </trkpt>
      <trkpt lat="45.83388" lon="4.75293">
        <ele>287.81976</ele>
        <time>2023-06-10T08:20:57.000Z</time>
      </trkpt>
      <trkpt lat="45.83385" lon="4.75294">
        <ele>287.8399</ele>
        <time>2023-06-10T08:20:58.000Z</time>
      </trkpt>
      <trkpt lat="45.83382" lon="4.75296">
        <ele>287.9585</ele>
        <time>2023-06-10T08:20:59.000Z</time>
      </trkpt>
      <trkpt lat="45.83378" lon="4.75298">
        <ele>288.07343</ele>
        <time>2023-06-10T08:21:00.000Z</time>
      </trkpt>
      <trkpt lat="45.83374" lon="4.75299">
        <ele>288.08997</ele>
        <time>2023-06-10T08:21:01.000Z</time>
      </trkpt>
      <trkpt lat="45.83371" lon="4.75299">
        <ele>288.14807</ele>
        <time>2023-06-10T08:21:02.000Z</time>
      </trkpt>
      <trkpt lat="45.83367" lon="4.75299">
        <ele>288.20352</ele>
        <time>2023-06-10T08:21:03.000Z</time>
      </trkpt>
      <trkpt lat="45.83363" lon="4.75299">
        <ele>288.22647</ele>
        <time>2023-06-10T08:21:04.000Z</time>
      </trkpt>
      <trkpt lat="45.83359" lon="4.75298">
        <ele>288.16364</ele>
        <time>2023-06-10T08:21:05.000Z</time>
      </trkpt>
      <trkpt lat="45.83356" lon="4.75297">
        <ele>288.10446</ele>
        <time>2023-06-10T08:21:06.000Z</time>
      </trkpt>
      <trkpt lat="45.83352" lon="4.75296">
        <ele>288.06805</ele>
        <time>2023-06-10T08:21:07.000Z</time>
      </trkpt>
      <trkpt lat="45.83349" lon="4.75295">
        <ele>288.02197</ele>
        <time>2023-06-10T08:21:08.000Z</time>
      </trkpt>
      <trkpt lat="45.83346" lon="4.75296">
        <ele>287.87845</ele>
        <time>2023-06-10T08:21:09.000Z</time>
      </trkpt>
      <trkpt lat="45.83342" lon="4.75297">
        <ele>287.78577</ele>
        <time>2023-06-10T08:21:10.000Z</time>
      </trkpt>
      <trkpt lat="45.83339" lon="4.75299">
        <ele>287.79922</ele>
        <time>2023-06-10T08:21:11.000Z</time>
      </trkpt>
      <trkpt lat="45.83336" lon="4.75302">
        <ele>287.74231</ele>
        <time>2023-06-10T08:21:12.000Z</time>
      </trkpt>
      <trkpt lat="45.83333" lon="4.75304">
        <ele>287.70001</ele>
        <time>2023-06-10T08:21:13.000Z</time>
      </trkpt>
      <trkpt lat="45.83329" lon="4.75307">
        <ele>287.65262</ele>
        <time>2023-06-10T08:21:14.000Z</time>
      </trkpt>
      <trkpt lat="45.83326" lon="4.7531">
        <ele>287.59467</ele>
        <time>2023-06-10T08:21:15.000Z</time>
      </trkpt>
      <trkpt lat="45.83323" lon="4.75313">
        <ele>287.53485</ele>
        <time>2023-06-10T08:21:16.000Z</time>
      </trkpt>
      <trkpt lat="45.8332" lon="4.75316">
        <ele>287.49799</ele>
        <time>2023-06-10T08:21:17.000Z</time>
      </trkpt>
      <trkpt lat="45.83317" lon="4.75319">
        <ele>287.48865</ele>
        <time>2023-06-10T08:21:18.000Z</time>
      </trkpt>
      <trkpt lat="45.83314" lon="4.75321">
        <ele>287.46707</ele>
        <time>2023-06-10T08:21:19.000Z</time>
      </trkpt>
      <trkpt lat="45.8331" lon="4.75324">
        <ele>287.5062</ele>
        <time>2023-06-10T08:21:20.000Z</time>
      </trkpt>
      <trkpt lat="45.83306" lon="4.75326">
        <ele>287.63324</ele>
        <time>2023-06-10T08:21:21.000Z</time>
      </trkpt>
      <trkpt lat="45.83303" lon="4.75329">
        <ele>287.7464</ele>
        <time>2023-06-10T08:21:22.000Z</time>
      </trkpt>
      <trkpt lat="45.83299" lon="4.75332">
        <ele>287.87024</ele>
        <time>2023-06-10T08:21:23.000Z</time>
      </trkpt>
      <trkpt lat="45.83296" lon="4.75335">
        <ele>288.03879</ele>
        <time>2023-06-10T08:21:24.000Z</time>
      </trkpt>
      <trkpt lat="45.83294" lon="4.75338">
        <ele>288.26743</ele>
        <time>2023-06-10T08:21:25.000Z</time>
      </trkpt>
      <trkpt lat="45.8329" lon="4.75341">
        <ele>288.44974</ele>
        <time>2023-06-10T08:21:26.000Z</time>
      </trkpt>
      <trkpt lat="45.83287" lon="4.75343">
        <ele>288.6427</ele>
        <time>2023-06-10T08:21:27.000Z</time>
      </trkpt>
      <trkpt lat="45.83284" lon="4.75345">
        <ele>288.8186</ele>
        <time>2023-06-10T08:21:28.000Z</time>
      </trkpt>
      <trkpt lat="45.8328" lon="4.75347">
        <ele>288.97845</ele>
        <time>2023-06-10T08:21:29.000Z</time>
      </trkpt>
      <trkpt lat="45.83277" lon="4.75349">
        <ele>289.10327</ele>
        <time>2023-06-10T08:21:30.000Z</time>
      </trkpt>
      <trkpt lat="45.83273" lon="4.75351">
        <ele>289.17719</ele>
        <time>2023-06-10T08:21:31.000Z</time>
      </trkpt>
      <trkpt lat="45.83269" lon="4.75352">
        <ele>289.25565</ele>
        <time>2023-06-10T08:21:32.000Z</time>
      </trkpt>
      <trkpt lat="45.83267" lon="4.75353">
        <ele>289.39023</ele>
        <time>2023-06-10T08:21:33.000Z</time>
      </trkpt>
      <trkpt lat="45.83263" lon="4.75354">
        <ele>289.53412</ele>
        <time>2023-06-10T08:21:34.000Z</time>
      </trkpt>
      <trkpt lat="45.8326" lon="4.75355">
        <ele>289.73059</ele>
        <time>2023-06-10T08:21:35.000Z</time>
      </trkpt>
      <trkpt lat="45.83257" lon="4.75356">
        <ele>289.94476</ele>
        <time>2023-06-10T08:21:36.000Z</time>
      </trkpt>
      <trkpt lat="45.83253" lon="4.75357">
        <ele>290.15323</ele>
        <time>2023-06-10T08:21:37.000Z</time>
      </trkpt>
      <trkpt lat="45.8325" lon="4.75358">
        <ele>290.30643</ele>
        <time>2023-06-10T08:21:38.000Z</time>
      </trkpt>
      <trkpt lat="45.83247" lon="4.75358">
        <ele>290.43964</ele>
        <time>2023-06-10T08:21:39.000Z</time>
      </trkpt>
      <trkpt lat="45.83244" lon="4.75359">
        <ele>290.50952</ele>
        <time>2023-06-10T08:21:40.000Z</time>
      </trkpt>
      <trkpt lat="45.83241" lon="4.7536">
        <ele>290.50858</ele>
        <time>2023-06-10T08:21:41.000Z</time>
      </trkpt>
      <trkpt lat="45.83238" lon="4.7536">
        <ele>290.50641</ele>
        <time>2023-06-10T08:21:42.000Z</time>
      </trkpt>
      <trkpt lat="45.83235" lon="4.75361">
        <ele>290.46509</ele>
        <time>2023-06-10T08:21:43.000Z</time>
      </trkpt>
      <trkpt lat="45.83232" lon="4.75362">
        <ele>290.4328</ele>
        <time>2023-06-10T08:21:44.000Z</time>
      </trkpt>
      <trkpt lat="45.83229" lon="4.75362">
        <ele>290.38272</ele>
        <time>2023-06-10T08:21:45.000Z</time>
      </trkpt>
      <trkpt lat="45.83227" lon="4.75363">
        <ele>290.35263</ele>
        <time>2023-06-10T08:21:46.000Z</time>
      </trkpt>
      <trkpt lat="45.83225" lon="4.75362">
        <ele>290.32513</ele>
        <time>2023-06-10T08:21:47.000Z</time>
      </trkpt>
      <trkpt lat="45.83223" lon="4.75362">
        <ele>290.2912</ele>
        <time>2023-06-10T08:21:48.000Z</time>
      </trkpt>
      <trkpt lat="45.8322" lon="4.75362">
        <ele>290.25336</ele>
        <time>2023-06-10T08:21:49.000Z</time>
      </trkpt>
      <trkpt lat="45.83218" lon="4.75362">
        <ele>290.20856</ele>
        <time>2023-06-10T08:21:50.000Z</time>
      </trkpt>
      <trkpt lat="45.83215" lon="4.75362">
        <ele>290.15616</ele>
        <time>2023-06-10T08:21:51.000Z</time>
      </trkpt>
      <trkpt lat="45.83212" lon="4.75362">
        <ele>290.11652</ele>
        <time>2023-06-10T08:21:52.000Z</time>
      </trkpt>
      <trkpt lat="45.83209" lon="4.75362">
        <ele>290.05283</ele>
        <time>2023-06-10T08:21:53.000Z</time>
      </trkpt>
      <trkpt lat="45.83207" lon="4.75363">
        <ele>290.00659</ele>
        <time>2023-06-10T08:21:54.000Z</time>
      </trkpt>
      <trkpt lat="45.83204" lon="4.75363">
        <ele>289.96283</ele>
        <time>2023-06-10T08:21:55.000Z</time>
      </trkpt>
      <trkpt lat="45.83202" lon="4.75363">
        <ele>289.9317</ele>
        <time>2023-06-10T08:21:56.000Z</time>
      </trkpt>
      <trkpt lat="45.832" lon="4.75364">
        <ele>289.91315</ele>
        <time>2023-06-10T08:21:57.000Z</time>
      </trkpt>
      <trkpt lat="45.83197" lon="4.75365">
        <ele>289.93927</ele>
        <time>2023-06-10T08:21:58.000Z</time>
      </trkpt>
      <trkpt lat="45.83195" lon="4.75366">
        <ele>290.00464</ele>
        <time>2023-06-10T08:21:59.000Z</time>
      </trkpt>
      <trkpt lat="45.83193" lon="4.75367">
        <ele>290.08939</ele>
        <time>2023-06-10T08:22:00.000Z</time>
      </trkpt>
      <trkpt lat="45.8319" lon="4.75368">
        <ele>290.20413</ele>
        <time>2023-06-10T08:22:01.000Z</time>
      </trkpt>
      <trkpt lat="45.83188" lon="4.75368">
        <ele>290.3233</ele>
        <time>2023-06-10T08:22:02.000Z</time>
      </trkpt>
      <trkpt lat="45.83184" lon="4.75369">
        <ele>290.4379</ele>
        <time>2023-06-10T08:22:03.000Z</time>
      </trkpt>
      <trkpt lat="45.83181" lon="4.75371">
        <ele>290.53003</ele>
        <time>2023-06-10T08:22:04.000Z</time>
      </trkpt>
      <trkpt lat="45.83178" lon="4.75372">
        <ele>290.61404</ele>
        <time>2023-06-10T08:22:05.000Z</time>
      </trkpt>
      <trkpt lat="45.83176" lon="4.75373">
        <ele>290.72003</ele>
        <time>2023-06-10T08:22:06.000Z</time>
      </trkpt>
      <trkpt lat="45.83174" lon="4.75374">
        <ele>290.8624</ele>
        <time>2023-06-10T08:22:07.000Z</time>
      </trkpt>
      <trkpt lat="45.83171" lon="4.75376">
        <ele>291.04834</ele>
        <time>2023-06-10T08:22:09.000Z</time>
      </trkpt>
      <trkpt lat="45.83169" lon="4.75376">
        <ele>291.25085</ele>
        <time>2023-06-10T08:22:10.000Z</time>
      </trkpt>
      <trkpt lat="45.83167" lon="4.75377">
        <ele>291.50702</ele>
        <time>2023-06-10T08:22:17.000Z</time>
      </trkpt>
      <trkpt lat="45.83164" lon="4.75377">
        <ele>291.78412</ele>
        <time>2023-06-10T08:22:23.000Z</time>
      </trkpt>
      <trkpt lat="45.83161" lon="4.75378">
        <ele>292.08832</ele>
        <time>2023-06-10T08:22:25.000Z</time>
      </trkpt>
      <trkpt lat="45.83159" lon="4.75379">
        <ele>292.40793</ele>
        <time>2023-06-10T08:22:26.000Z</time>
      </trkpt>
      <trkpt lat="45.83157" lon="4.75381">
        <ele>292.68414</ele>
        <time>2023-06-10T08:22:28.000Z</time>
      </trkpt>
      <trkpt lat="45.83155" lon="4.75382">
        <ele>292.89972</ele>
        <time>2023-06-10T08:22:31.000Z</time>
      </trkpt>
      <trkpt lat="45.83157" lon="4.75381">
        <ele>293.10577</ele>
        <time>2023-06-10T08:22:35.000Z</time>
      </trkpt>
      <trkpt lat="45.8316" lon="4.7538">
        <ele>293.26266</ele>
        <time>2023-06-10T08:22:37.000Z</time>
      </trkpt>
      <trkpt lat="45.83162" lon="4.75379">
        <ele>293.33344</ele>
        <time>2023-06-10T08:22:38.000Z</time>
      </trkpt>
      <trkpt lat="45.83164" lon="4.75378">
        <ele>293.36737</ele>
        <time>2023-06-10T08:22:39.000Z</time>
      </trkpt>
      <trkpt lat="45.83167" lon="4.75378">
        <ele>293.34238</ele>
        <time>2023-06-10T08:22:40.000Z</time>
      </trkpt>
      <trkpt lat="45.83169" lon="4.75378">
        <ele>293.35101</ele>
        <time>2023-06-10T08:22:41.000Z</time>
      </trkpt>
      <trkpt lat="45.83171" lon="4.75378">
        <ele>293.26578</ele>
        <time>2023-06-10T08:22:42.000Z</time>
      </trkpt>
      <trkpt lat="45.83174" lon="4.75377">
        <ele>293.24164</ele>
        <time>2023-06-10T08:22:43.000Z</time>
      </trkpt>
      <trkpt lat="45.83177" lon="4.75376">
        <ele>293.24628</ele>
        <time>2023-06-10T08:22:44.000Z</time>
      </trkpt>
      <trkpt lat="45.8318" lon="4.75375">
        <ele>293.21735</ele>
        <time>2023-06-10T08:22:45.000Z</time>
      </trkpt>
      <trkpt lat="45.83183" lon="4.75375">
        <ele>293.17957</ele>
        <time>2023-06-10T08:22:46.000Z</time>
      </trkpt>
      <trkpt lat="45.83186" lon="4.75374">
        <ele>293.12604</ele>
        <time>2023-06-10T08:22:47.000Z</time>
      </trkpt>
      <trkpt lat="45.83189" lon="4.75373">
        <ele>293.03595</ele>
        <time>2023-06-10T08:22:48.000Z</time>
      </trkpt>
      <trkpt lat="45.83192" lon="4.75372">
        <ele>292.95096</ele>
        <time>2023-06-10T08:22:49.000Z</time>
      </trkpt>
      <trkpt lat="45.83194" lon="4.75371">
        <ele>292.81879</ele>
        <time>2023-06-10T08:22:50.000Z</time>
      </trkpt>
      <trkpt lat="45.83197" lon="4.7537">
        <ele>292.65088</ele>
        <time>2023-06-10T08:22:51.000Z</time>
      </trkpt>
      <trkpt lat="45.83199" lon="4.75369">
        <ele>292.51398</ele>
        <time>2023-06-10T08:22:52.000Z</time>
      </trkpt>
      <trkpt lat="45.83201" lon="4.75368">
        <ele>292.35596</ele>
        <time>2023-06-10T08:22:53.000Z</time>
      </trkpt>
      <trkpt lat="45.83204" lon="4.75366">
        <ele>292.21466</ele>
        <time>2023-06-10T08:22:54.000Z</time>
      </trkpt>
      <trkpt lat="45.83207" lon="4.75365">
        <ele>292.11407</ele>
        <time>2023-06-10T08:22:55.000Z</time>
      </trkpt>
      <trkpt lat="45.83211" lon="4.75363">
        <ele>291.99829</ele>
        <time>2023-06-10T08:22:56.000Z</time>
      </trkpt>
      <trkpt lat="45.83213" lon="4.75362">
        <ele>291.85162</ele>
        <time>2023-06-10T08:22:57.000Z</time>
      </trkpt>
      <trkpt lat="45.83216" lon="4.75362">
        <ele>291.78506</ele>
        <time>2023-06-10T08:22:58.000Z</time>
      </trkpt>
      <trkpt lat="45.83218" lon="4.75363">
        <ele>291.80862</ele>
        <time>2023-06-10T08:23:00.000Z</time>
      </trkpt>
      <trkpt lat="45.83216" lon="4.75367">
        <ele>291.8952</ele>
        <time>2023-06-10T08:23:02.000Z</time>
      </trkpt>
      <trkpt lat="45.83214" lon="4.75368">
        <ele>291.91861</ele>
        <time>2023-06-10T08:23:03.000Z</time>
      </trkpt>
      <trkpt lat="45.83212" lon="4.75368">
        <ele>292.02448</ele>
        <time>2023-06-10T08:23:04.000Z</time>
      </trkpt>
      <trkpt lat="45.8321" lon="4.75369">
        <ele>292.09314</ele>
        <time>2023-06-10T08:23:05.000Z</time>
      </trkpt>
      <trkpt lat="45.83208" lon="4.7537">
        <ele>292.1716</ele>
        <time>2023-06-10T08:23:06.000Z</time>
      </trkpt>
      <trkpt lat="45.83207" lon="4.75372">
        <ele>292.30624</ele>
        <time>2023-06-10T08:23:07.000Z</time>
      </trkpt>
      <trkpt lat="45.83205" lon="4.75375">
        <ele>292.48059</ele>
        <time>2023-06-10T08:23:09.000Z</time>
      </trkpt>
      <trkpt lat="45.83204" lon="4.75378">
        <ele>292.62469</ele>
        <time>2023-06-10T08:23:14.000Z</time>
      </trkpt>
      <trkpt lat="45.83203" lon="4.75378">
        <ele>292.77948</ele>
        <time>2023-06-10T08:23:17.000Z</time>
      </trkpt>
      <trkpt lat="45.83201" lon="4.75381">
        <ele>292.91037</ele>
        <time>2023-06-10T08:23:23.000Z</time>
      </trkpt>
      <trkpt lat="45.83199" lon="4.75382">
        <ele>293.03671</ele>
        <time>2023-06-10T08:23:27.000Z</time>
      </trkpt>
      <trkpt lat="45.83196" lon="4.75386">
        <ele>293.17789</ele>
        <time>2023-06-10T08:23:29.000Z</time>
      </trkpt>
      <trkpt lat="45.83195" lon="4.75389">
        <ele>293.28677</ele>
        <time>2023-06-10T08:23:30.000Z</time>
      </trkpt>
      <trkpt lat="45.83193" lon="4.75392">
        <ele>293.36987</ele>
        <time>2023-06-10T08:23:31.000Z</time>
      </trkpt>
      <trkpt lat="45.83191" lon="4.75394">
        <ele>293.46039</ele>
        <time>2023-06-10T08:23:32.000Z</time>
      </trkpt>
      <trkpt lat="45.83189" lon="4.75396">
        <ele>293.5155</ele>
        <time>2023-06-10T08:23:33.000Z</time>
      </trkpt>
      <trkpt lat="45.83187" lon="4.75397">
        <ele>293.59143</ele>
        <time>2023-06-10T08:23:34.000Z</time>
      </trkpt>
      <trkpt lat="45.83184" lon="4.75399">
        <ele>293.75977</ele>
        <time>2023-06-10T08:23:35.000Z</time>
      </trkpt>
      <trkpt lat="45.83181" lon="4.75402">
        <ele>293.93756</ele>
        <time>2023-06-10T08:23:36.000Z</time>
      </trkpt>
      <trkpt lat="45.83178" lon="4.75405">
        <ele>294.0351</ele>
        <time>2023-06-10T08:23:37.000Z</time>
      </trkpt>
      <trkpt lat="45.83176" lon="4.75407">
        <ele>294.18329</ele>
        <time>2023-06-10T08:23:38.000Z</time>
      </trkpt>
      <trkpt lat="45.83174" lon="4.75409">
        <ele>294.41525</ele>
        <time>2023-06-10T08:23:39.000Z</time>
      </trkpt>
      <trkpt lat="45.83172" lon="4.75411">
        <ele>294.69733</ele>
        <time>2023-06-10T08:23:40.000Z</time>
      </trkpt>
      <trkpt lat="45.83169" lon="4.75413">
        <ele>294.99646</ele>
        <time>2023-06-10T08:23:41.000Z</time>
      </trkpt>
      <trkpt lat="45.83166" lon="4.75415">
        <ele>295.28262</ele>
        <time>2023-06-10T08:23:42.000Z</time>
      </trkpt>
      <trkpt lat="45.83163" lon="4.75417">
        <ele>295.57053</ele>
        <time>2023-06-10T08:23:43.000Z</time>
      </trkpt>
      <trkpt lat="45.83159" lon="4.75417">
        <ele>295.78098</ele>
        <time>2023-06-10T08:23:44.000Z</time>
      </trkpt>
      <trkpt lat="45.83156" lon="4.75419">
        <ele>296.01501</ele>
        <time>2023-06-10T08:23:45.000Z</time>
      </trkpt>
      <trkpt lat="45.83152" lon="4.7542">
        <ele>296.27597</ele>
        <time>2023-06-10T08:23:46.000Z</time>
      </trkpt>
      <trkpt lat="45.83149" lon="4.75423">
        <ele>296.52423</ele>
        <time>2023-06-10T08:23:47.000Z</time>
      </trkpt>
      <trkpt lat="45.83146" lon="4.75425">
        <ele>296.76407</ele>
        <time>2023-06-10T08:23:48.000Z</time>
      </trkpt>
      <trkpt lat="45.83143" lon="4.75427">
        <ele>296.991</ele>
        <time>2023-06-10T08:23:49.000Z</time>
      </trkpt>
      <trkpt lat="45.8314" lon="4.75428">
        <ele>297.26044</ele>
        <time>2023-06-10T08:23:50.000Z</time>
      </trkpt>
      <trkpt lat="45.83138" lon="4.7543">
        <ele>297.59201</ele>
        <time>2023-06-10T08:23:51.000Z</time>
      </trkpt>
      <trkpt lat="45.83136" lon="4.75431">
        <ele>297.95746</ele>
        <time>2023-06-10T08:23:53.000Z</time>
      </trkpt>
      <trkpt lat="45.83135" lon="4.75434">
        <ele>298.35815</ele>
        <time>2023-06-10T08:24:01.000Z</time>
      </trkpt>
      <trkpt lat="45.83133" lon="4.75436">
        <ele>298.88995</ele>
        <time>2023-06-10T08:24:08.000Z</time>
      </trkpt>
      <trkpt lat="45.83129" lon="4.75439">
        <ele>299.42847</ele>
        <time>2023-06-10T08:24:10.000Z</time>
      </trkpt>
      <trkpt lat="45.83126" lon="4.75442">
        <ele>299.93219</ele>
        <time>2023-06-10T08:24:11.000Z</time>
      </trkpt>
      <trkpt lat="45.83124" lon="4.75445">
        <ele>300.41089</ele>
        <time>2023-06-10T08:24:12.000Z</time>
      </trkpt>
      <trkpt lat="45.83122" lon="4.75447">
        <ele>300.79623</ele>
        <time>2023-06-10T08:24:13.000Z</time>
      </trkpt>
      <trkpt lat="45.83121" lon="4.7545">
        <ele>301.19934</ele>
        <time>2023-06-10T08:24:14.000Z</time>
      </trkpt>
      <trkpt lat="45.8312" lon="4.75452">
        <ele>301.50668</ele>
        <time>2023-06-10T08:24:15.000Z</time>
      </trkpt>
      <trkpt lat="45.83119" lon="4.75455">
        <ele>301.87222</ele>
        <time>2023-06-10T08:24:17.000Z</time>
      </trkpt>
      <trkpt lat="45.8312" lon="4.75458">
        <ele>302.23221</ele>
        <time>2023-06-10T08:24:23.000Z</time>
      </trkpt>
      <trkpt lat="45.8312" lon="4.7546">
        <ele>302.52267</ele>
        <time>2023-06-10T08:24:29.000Z</time>
      </trkpt>
      <trkpt lat="45.83121" lon="4.75457">
        <ele>302.84714</ele>
        <time>2023-06-10T08:24:32.000Z</time>
      </trkpt>
      <trkpt lat="45.83123" lon="4.75453">
        <ele>303.11823</ele>
        <time>2023-06-10T08:24:34.000Z</time>
      </trkpt>
      <trkpt lat="45.83124" lon="4.75449">
        <ele>303.34436</ele>
        <time>2023-06-10T08:24:35.000Z</time>
      </trkpt>
      <trkpt lat="45.83127" lon="4.75446">
        <ele>303.5921</ele>
        <time>2023-06-10T08:24:36.000Z</time>
      </trkpt>
      <trkpt lat="45.8313" lon="4.75442">
        <ele>303.83005</ele>
        <time>2023-06-10T08:24:37.000Z</time>
      </trkpt>
      <trkpt lat="45.83135" lon="4.75436">
        <ele>304.01004</ele>
        <time>2023-06-10T08:24:38.000Z</time>
      </trkpt>
      <trkpt lat="45.8314" lon="4.75432">
        <ele>304.11896</ele>
        <time>2023-06-10T08:24:39.000Z</time>
      </trkpt>
      <trkpt lat="45.83145" lon="4.75429">
        <ele>304.14813</ele>
        <time>2023-06-10T08:24:40.000Z</time>
      </trkpt>
      <trkpt lat="45.8315" lon="4.75426">
        <ele>304.24188</ele>
        <time>2023-06-10T08:24:41.000Z</time>
      </trkpt>
      <trkpt lat="45.83153" lon="4.75425">
        <ele>304.33179</ele>
        <time>2023-06-10T08:24:42.000Z</time>
      </trkpt>
      <trkpt lat="45.83156" lon="4.75424">
        <ele>304.31302</ele>
        <time>2023-06-10T08:24:43.000Z</time>
      </trkpt>
      <trkpt lat="45.8316" lon="4.75423">
        <ele>304.22382</ele>
        <time>2023-06-10T08:24:44.000Z</time>
      </trkpt>
      <trkpt lat="45.83163" lon="4.7542">
        <ele>304.07581</ele>
        <time>2023-06-10T08:24:45.000Z</time>
      </trkpt>
      <trkpt lat="45.83165" lon="4.75418">
        <ele>303.94406</ele>
        <time>2023-06-10T08:24:46.000Z</time>
      </trkpt>
      <trkpt lat="45.8317" lon="4.75416">
        <ele>303.77802</ele>
        <time>2023-06-10T08:24:47.000Z</time>
      </trkpt>
      <trkpt lat="45.83172" lon="4.75414">
        <ele>303.60062</ele>
        <time>2023-06-10T08:24:48.000Z</time>
      </trkpt>
      <trkpt lat="45.83174" lon="4.75413">
        <ele>303.40741</ele>
        <time>2023-06-10T08:24:49.000Z</time>
      </trkpt>
      <trkpt lat="45.83175" lon="4.7541">
        <ele>303.15149</ele>
        <time>2023-06-10T08:25:34.000Z</time>
      </trkpt>
      <trkpt lat="45.83179" lon="4.75408">
        <ele>302.86578</ele>
        <time>2023-06-10T08:25:36.000Z</time>
      </trkpt>
      <trkpt lat="45.83181" lon="4.75406">
        <ele>302.58307</ele>
        <time>2023-06-10T08:25:37.000Z</time>
      </trkpt>
      <trkpt lat="45.83183" lon="4.75404">
        <ele>302.29462</ele>
        <time>2023-06-10T08:25:38.000Z</time>
      </trkpt>
      <trkpt lat="45.83185" lon="4.75402">
        <ele>301.99698</ele>
        <time>2023-06-10T08:25:39.000Z</time>
      </trkpt>
      <trkpt lat="45.83187" lon="4.75399">
        <ele>301.73337</ele>
        <time>2023-06-10T08:25:40.000Z</time>
      </trkpt>
      <trkpt lat="45.83189" lon="4.75397">
        <ele>301.41956</ele>
        <time>2023-06-10T08:25:41.000Z</time>
      </trkpt>
      <trkpt lat="45.83191" lon="4.75394">
        <ele>301.09967</ele>
        <time>2023-06-10T08:25:42.000Z</time>
      </trkpt>
      <trkpt lat="45.83194" lon="4.7539">
        <ele>300.80826</ele>
        <time>2023-06-10T08:25:43.000Z</time>
      </trkpt>
      <trkpt lat="45.83197" lon="4.75386">
        <ele>300.51291</ele>
        <time>2023-06-10T08:25:44.000Z</time>
      </trkpt>
      <trkpt lat="45.832" lon="4.75383">
        <ele>300.23236</ele>
        <time>2023-06-10T08:25:45.000Z</time>
      </trkpt>
      <trkpt lat="45.83201" lon="4.75381">
        <ele>299.82745</ele>
        <time>2023-06-10T08:25:46.000Z</time>
      </trkpt>
      <trkpt lat="45.83204" lon="4.75379">
        <ele>299.40805</ele>
        <time>2023-06-10T08:25:47.000Z</time>
      </trkpt>
      <trkpt lat="45.83206" lon="4.75377">
        <ele>298.94998</ele>
        <time>2023-06-10T08:25:48.000Z</time>
      </trkpt>
      <trkpt lat="45.83209" lon="4.75376">
        <ele>298.51642</ele>
        <time>2023-06-10T08:25:49.000Z</time>
      </trkpt>
      <trkpt lat="45.83212" lon="4.75375">
        <ele>298.09186</ele>
        <time>2023-06-10T08:25:50.000Z</time>
      </trkpt>
      <trkpt lat="45.83214" lon="4.75374">
        <ele>297.6196</ele>
        <time>2023-06-10T08:25:51.000Z</time>
      </trkpt>
      <trkpt lat="45.83216" lon="4.75373">
        <ele>297.20148</ele>
        <time>2023-06-10T08:25:52.000Z</time>
      </trkpt>
      <trkpt lat="45.83217" lon="4.75372">
        <ele>296.73441</ele>
        <time>2023-06-10T08:25:53.000Z</time>
      </trkpt>
      <trkpt lat="45.83219" lon="4.75371">
        <ele>296.35626</ele>
        <time>2023-06-10T08:25:54.000Z</time>
      </trkpt>
      <trkpt lat="45.83222" lon="4.7537">
        <ele>295.98737</ele>
        <time>2023-06-10T08:25:55.000Z</time>
      </trkpt>
      <trkpt lat="45.83224" lon="4.75369">
        <ele>295.58438</ele>
        <time>2023-06-10T08:25:56.000Z</time>
      </trkpt>
      <trkpt lat="45.83227" lon="4.75368">
        <ele>295.22675</ele>
        <time>2023-06-10T08:25:57.000Z</time>
      </trkpt>
      <trkpt lat="45.83229" lon="4.75367">
        <ele>294.87045</ele>
        <time>2023-06-10T08:25:58.000Z</time>
      </trkpt>
      <trkpt lat="45.8323" lon="4.75363">
        <ele>294.55817</ele>
        <time>2023-06-10T08:26:00.000Z</time>
      </trkpt>
      <trkpt lat="45.83231" lon="4.7536">
        <ele>294.2149</ele>
        <time>2023-06-10T08:26:03.000Z</time>
      </trkpt>
      <trkpt lat="45.83233" lon="4.7536">
        <ele>293.84863</ele>
        <time>2023-06-10T08:26:14.000Z</time>
      </trkpt>
      <trkpt lat="45.83235" lon="4.75359">
        <ele>293.49982</ele>
        <time>2023-06-10T08:26:32.000Z</time>
      </trkpt>
      <trkpt lat="45.83239" lon="4.75358">
        <ele>293.20828</ele>
        <time>2023-06-10T08:26:34.000Z</time>
      </trkpt>
      <trkpt lat="45.83241" lon="4.75357">
        <ele>292.94287</ele>
        <time>2023-06-10T08:26:35.000Z</time>
      </trkpt>
      <trkpt lat="45.83244" lon="4.75356">
        <ele>292.68347</ele>
        <time>2023-06-10T08:26:36.000Z</time>
      </trkpt>
      <trkpt lat="45.83247" lon="4.75355">
        <ele>292.42535</ele>
        <time>2023-06-10T08:26:37.000Z</time>
      </trkpt>
      <trkpt lat="45.8325" lon="4.75354">
        <ele>292.16245</ele>
        <time>2023-06-10T08:26:38.000Z</time>
      </trkpt>
      <trkpt lat="45.83253" lon="4.75353">
        <ele>291.90094</ele>
        <time>2023-06-10T08:26:39.000Z</time>
      </trkpt>
      <trkpt lat="45.83255" lon="4.75353">
        <ele>291.66522</ele>
        <time>2023-06-10T08:26:40.000Z</time>
      </trkpt>
      <trkpt lat="45.83257" lon="4.75352">
        <ele>291.44037</ele>
        <time>2023-06-10T08:26:44.000Z</time>
      </trkpt>
      <trkpt lat="45.83259" lon="4.75351">
        <ele>291.25986</ele>
        <time>2023-06-10T08:26:46.000Z</time>
      </trkpt>
      <trkpt lat="45.83262" lon="4.75351">
        <ele>291.05313</ele>
        <time>2023-06-10T08:26:48.000Z</time>
      </trkpt>
      <trkpt lat="45.83264" lon="4.75351">
        <ele>290.84756</ele>
        <time>2023-06-10T08:26:49.000Z</time>
      </trkpt>
      <trkpt lat="45.83267" lon="4.7535">
        <ele>290.63339</ele>
        <time>2023-06-10T08:26:50.000Z</time>
      </trkpt>
      <trkpt lat="45.8327" lon="4.75349">
        <ele>290.47647</ele>
        <time>2023-06-10T08:26:51.000Z</time>
      </trkpt>
      <trkpt lat="45.83273" lon="4.75348">
        <ele>290.38562</ele>
        <time>2023-06-10T08:26:52.000Z</time>
      </trkpt>
      <trkpt lat="45.83275" lon="4.75348">
        <ele>290.29593</ele>
        <time>2023-06-10T08:26:53.000Z</time>
      </trkpt>
      <trkpt lat="45.83277" lon="4.75348">
        <ele>290.25168</ele>
        <time>2023-06-10T08:26:54.000Z</time>
      </trkpt>
      <trkpt lat="45.8328" lon="4.75347">
        <ele>290.19708</ele>
        <time>2023-06-10T08:26:55.000Z</time>
      </trkpt>
      <trkpt lat="45.83283" lon="4.75346">
        <ele>290.19226</ele>
        <time>2023-06-10T08:26:56.000Z</time>
      </trkpt>
      <trkpt lat="45.83286" lon="4.75344">
        <ele>290.323</ele>
        <time>2023-06-10T08:26:57.000Z</time>
      </trkpt>
      <trkpt lat="45.83289" lon="4.75342">
        <ele>290.4422</ele>
        <time>2023-06-10T08:26:58.000Z</time>
      </trkpt>
      <trkpt lat="45.83292" lon="4.75339">
        <ele>290.56335</ele>
        <time>2023-06-10T08:26:59.000Z</time>
      </trkpt>
      <trkpt lat="45.83293" lon="4.75336">
        <ele>290.66083</ele>
        <time>2023-06-10T08:27:02.000Z</time>
      </trkpt>
      <trkpt lat="45.83295" lon="4.75333">
        <ele>290.75409</ele>
        <time>2023-06-10T08:27:05.000Z</time>
      </trkpt>
      <trkpt lat="45.83298" lon="4.75331">
        <ele>290.84283</ele>
        <time>2023-06-10T08:27:07.000Z</time>
      </trkpt>
      <trkpt lat="45.833" lon="4.7533">
        <ele>290.94626</ele>
        <time>2023-06-10T08:27:08.000Z</time>
      </trkpt>
      <trkpt lat="45.83303" lon="4.75327">
        <ele>291.04727</ele>
        <time>2023-06-10T08:27:09.000Z</time>
      </trkpt>
      <trkpt lat="45.83306" lon="4.75325">
        <ele>291.13019</ele>
        <time>2023-06-10T08:27:10.000Z</time>
      </trkpt>
      <trkpt lat="45.83309" lon="4.75323">
        <ele>291.26352</ele>
        <time>2023-06-10T08:27:11.000Z</time>
      </trkpt>
      <trkpt lat="45.83311" lon="4.75322">
        <ele>291.39771</ele>
        <time>2023-06-10T08:27:12.000Z</time>
      </trkpt>
      <trkpt lat="45.83312" lon="4.75321">
        <ele>291.57925</ele>
        <time>2023-06-10T08:27:18.000Z</time>
      </trkpt>
      <trkpt lat="45.83314" lon="4.7532">
        <ele>291.76813</ele>
        <time>2023-06-10T08:27:50.000Z</time>
      </trkpt>
      <trkpt lat="45.83317" lon="4.75318">
        <ele>291.9328</ele>
        <time>2023-06-10T08:27:52.000Z</time>
      </trkpt>
      <trkpt lat="45.83319" lon="4.75317">
        <ele>292.01767</ele>
        <time>2023-06-10T08:27:53.000Z</time>
      </trkpt>
      <trkpt lat="45.83321" lon="4.75315">
        <ele>292.05231</ele>
        <time>2023-06-10T08:27:54.000Z</time>
      </trkpt>
      <trkpt lat="45.83323" lon="4.75312">
        <ele>292.0928</ele>
        <time>2023-06-10T08:27:55.000Z</time>
      </trkpt>
      <trkpt lat="45.83326" lon="4.75309">
        <ele>292.09064</ele>
        <time>2023-06-10T08:27:56.000Z</time>
      </trkpt>
      <trkpt lat="45.83328" lon="4.75306">
        <ele>292.09656</ele>
        <time>2023-06-10T08:27:57.000Z</time>
      </trkpt>
      <trkpt lat="45.83331" lon="4.75303">
        <ele>292.06354</ele>
        <time>2023-06-10T08:27:58.000Z</time>
      </trkpt>
      <trkpt lat="45.83333" lon="4.753">
        <ele>292.01947</ele>
        <time>2023-06-10T08:27:59.000Z</time>
      </trkpt>
      <trkpt lat="45.83336" lon="4.75299">
        <ele>291.95773</ele>
        <time>2023-06-10T08:28:00.000Z</time>
      </trkpt>
      <trkpt lat="45.83338" lon="4.75297">
        <ele>291.89642</ele>
        <time>2023-06-10T08:28:01.000Z</time>
      </trkpt>
      <trkpt lat="45.83341" lon="4.75295">
        <ele>291.85605</ele>
        <time>2023-06-10T08:28:02.000Z</time>
      </trkpt>
      <trkpt lat="45.83343" lon="4.75294">
        <ele>291.88666</ele>
        <time>2023-06-10T08:28:03.000Z</time>
      </trkpt>
      <trkpt lat="45.83346" lon="4.75294">
        <ele>291.96616</ele>
        <time>2023-06-10T08:28:04.000Z</time>
      </trkpt>
      <trkpt lat="45.83348" lon="4.75294">
        <ele>292.06329</ele>
        <time>2023-06-10T08:28:05.000Z</time>
      </trkpt>
      <trkpt lat="45.83352" lon="4.75294">
        <ele>292.11908</ele>
        <time>2023-06-10T08:28:06.000Z</time>
      </trkpt>
      <trkpt lat="45.83355" lon="4.75295">
        <ele>292.17966</ele>
        <time>2023-06-10T08:28:07.000Z</time>
      </trkpt>
      <trkpt lat="45.83358" lon="4.75297">
        <ele>292.2334</ele>
        <time>2023-06-10T08:28:08.000Z</time>
      </trkpt>
      <trkpt lat="45.83361" lon="4.75298">
        <ele>292.29846</ele>
        <time>2023-06-10T08:28:09.000Z</time>
      </trkpt>
      <trkpt lat="45.83363" lon="4.75299">
        <ele>292.29568</ele>
        <time>2023-06-10T08:28:10.000Z</time>
      </trkpt>
      <trkpt lat="45.8336" lon="4.75299">
        <ele>292.26398</ele>
        <time>2023-06-10T08:28:17.000Z</time>
      </trkpt>
      <trkpt lat="45.83357" lon="4.75299">
        <ele>292.21732</ele>
        <time>2023-06-10T08:28:18.000Z</time>
      </trkpt>
      <trkpt lat="45.83355" lon="4.75299">
        <ele>292.1474</ele>
        <time>2023-06-10T08:28:19.000Z</time>
      </trkpt>
      <trkpt lat="45.83353" lon="4.75298">
        <ele>292.12253</ele>
        <time>2023-06-10T08:28:20.000Z</time>
      </trkpt>
      <trkpt lat="45.8335" lon="4.75298">
        <ele>292.06857</ele>
        <time>2023-06-10T08:28:21.000Z</time>
      </trkpt>
      <trkpt lat="45.83347" lon="4.75298">
        <ele>292.06036</ele>
        <time>2023-06-10T08:28:22.000Z</time>
      </trkpt>
      <trkpt lat="45.83344" lon="4.75299">
        <ele>292.07281</ele>
        <time>2023-06-10T08:28:23.000Z</time>
      </trkpt>
      <trkpt lat="45.83341" lon="4.75301">
        <ele>292.03275</ele>
        <time>2023-06-10T08:28:24.000Z</time>
      </trkpt>
      <trkpt lat="45.83338" lon="4.75302">
        <ele>291.9559</ele>
        <time>2023-06-10T08:28:25.000Z</time>
      </trkpt>
      <trkpt lat="45.83335" lon="4.75304">
        <ele>291.87491</ele>
        <time>2023-06-10T08:28:26.000Z</time>
      </trkpt>
      <trkpt lat="45.83333" lon="4.75307">
        <ele>291.63278</ele>
        <time>2023-06-10T08:28:27.000Z</time>
      </trkpt>
      <trkpt lat="45.83331" lon="4.75309">
        <ele>291.41632</ele>
        <time>2023-06-10T08:28:28.000Z</time>
      </trkpt>
      <trkpt lat="45.83329" lon="4.75311">
        <ele>291.12369</ele>
        <time>2023-06-10T08:28:29.000Z</time>
      </trkpt>
      <trkpt lat="45.83326" lon="4.75314">
        <ele>290.80957</ele>
        <time>2023-06-10T08:28:30.000Z</time>
      </trkpt>
      <trkpt lat="45.83323" lon="4.75317">
        <ele>290.48276</ele>
        <time>2023-06-10T08:28:31.000Z</time>
      </trkpt>
      <trkpt lat="45.8332" lon="4.7532">
        <ele>290.1283</ele>
        <time>2023-06-10T08:28:32.000Z</time>
      </trkpt>
      <trkpt lat="45.83317" lon="4.75321">
        <ele>289.76813</ele>
        <time>2023-06-10T08:28:33.000Z</time>
      </trkpt>
      <trkpt lat="45.83315" lon="4.75323">
        <ele>289.38052</ele>
        <time>2023-06-10T08:28:34.000Z</time>
      </trkpt>
      <trkpt lat="45.83312" lon="4.75325">
        <ele>288.97165</ele>
        <time>2023-06-10T08:28:35.000Z</time>
      </trkpt>
      <trkpt lat="45.83309" lon="4.75327">
        <ele>288.61536</ele>
        <time>2023-06-10T08:28:36.000Z</time>
      </trkpt>
      <trkpt lat="45.83306" lon="4.75329">
        <ele>288.25735</ele>
        <time>2023-06-10T08:28:37.000Z</time>
      </trkpt>
      <trkpt lat="45.83304" lon="4.7533">
        <ele>287.94336</ele>
        <time>2023-06-10T08:28:38.000Z</time>
      </trkpt>
      <trkpt lat="45.83301" lon="4.75331">
        <ele>287.70477</ele>
        <time>2023-06-10T08:28:39.000Z</time>
      </trkpt>
      <trkpt lat="45.83298" lon="4.75333">
        <ele>287.51447</ele>
        <time>2023-06-10T08:28:40.000Z</time>
      </trkpt>
      <trkpt lat="45.83295" lon="4.75334">
        <ele>287.41913</ele>
        <time>2023-06-10T08:28:41.000Z</time>
      </trkpt>
      <trkpt lat="45.83291" lon="4.75337">
        <ele>287.29056</ele>
        <time>2023-06-10T08:28:42.000Z</time>
      </trkpt>
      <trkpt lat="45.83287" lon="4.75339">
        <ele>287.09869</ele>
        <time>2023-06-10T08:28:43.000Z</time>
      </trkpt>
      <trkpt lat="45.83284" lon="4.75342">
        <ele>287.01126</ele>
        <time>2023-06-10T08:28:44.000Z</time>
      </trkpt>
      <trkpt lat="45.83281" lon="4.75344">
        <ele>286.96573</ele>
        <time>2023-06-10T08:28:45.000Z</time>
      </trkpt>
      <trkpt lat="45.83278" lon="4.75346">
        <ele>286.97052</ele>
        <time>2023-06-10T08:28:46.000Z</time>
      </trkpt>
      <trkpt lat="45.83274" lon="4.75348">
        <ele>287.03729</ele>
        <time>2023-06-10T08:28:47.000Z</time>
      </trkpt>
      <trkpt lat="45.8327" lon="4.7535">
        <ele>287.09073</ele>
        <time>2023-06-10T08:28:48.000Z</time>
      </trkpt>
      <trkpt lat="45.83266" lon="4.75352">
        <ele>287.17081</ele>
        <time>2023-06-10T08:28:49.000Z</time>
      </trkpt>
      <trkpt lat="45.83262" lon="4.75353">
        <ele>287.26953</ele>
        <time>2023-06-10T08:28:50.000Z</time>
      </trkpt>
      <trkpt lat="45.83253" lon="4.75353">
        <ele>287.35529</ele>
        <time>2023-06-10T08:28:51.000Z</time>
      </trkpt>
      <trkpt lat="45.8325" lon="4.75355">
        <ele>287.47186</ele>
        <time>2023-06-10T08:28:52.000Z</time>
      </trkpt>
      <trkpt lat="45.83247" lon="4.75357">
        <ele>287.49475</ele>
        <time>2023-06-10T08:28:53.000Z</time>
      </trkpt>
      <trkpt lat="45.83242" lon="4.75359">
        <ele>287.51935</ele>
        <time>2023-06-10T08:28:54.000Z</time>
      </trkpt>
      <trkpt lat="45.83239" lon="4.7536">
        <ele>287.534</ele>
        <time>2023-06-10T08:28:55.000Z</time>
      </trkpt>
      <trkpt lat="45.83236" lon="4.75361">
        <ele>287.62036</ele>
        <time>2023-06-10T08:28:56.000Z</time>
      </trkpt>
      <trkpt lat="45.83234" lon="4.75367">
        <ele>287.74182</ele>
        <time>2023-06-10T08:28:57.000Z</time>
      </trkpt>
      <trkpt lat="45.8323" lon="4.7537">
        <ele>287.87366</ele>
        <time>2023-06-10T08:28:58.000Z</time>
      </trkpt>
      <trkpt lat="45.83227" lon="4.75372">
        <ele>287.86737</ele>
        <time>2023-06-10T08:28:59.000Z</time>
      </trkpt>
      <trkpt lat="45.83223" lon="4.75374">
        <ele>287.8996</ele>
        <time>2023-06-10T08:29:00.000Z</time>
      </trkpt>
      <trkpt lat="45.8322" lon="4.75376">
        <ele>287.9126</ele>
        <time>2023-06-10T08:29:01.000Z</time>
      </trkpt>
      <trkpt lat="45.83217" lon="4.75376">
        <ele>287.9324</ele>
        <time>2023-06-10T08:29:02.000Z</time>
      </trkpt>
      <trkpt lat="45.83213" lon="4.75378">
        <ele>288.03284</ele>
        <time>2023-06-10T08:29:03.000Z</time>
      </trkpt>
      <trkpt lat="45.83211" lon="4.7538">
        <ele>288.12866</ele>
        <time>2023-06-10T08:29:04.000Z</time>
      </trkpt>
      <trkpt lat="45.83208" lon="4.75382">
        <ele>288.16644</ele>
        <time>2023-06-10T08:29:05.000Z</time>
      </trkpt>
      <trkpt lat="45.83205" lon="4.75386">
        <ele>288.25739</ele>
        <time>2023-06-10T08:29:06.000Z</time>
      </trkpt>
      <trkpt lat="45.83202" lon="4.7539">
        <ele>288.44492</ele>
        <time>2023-06-10T08:29:07.000Z</time>
      </trkpt>
      <trkpt lat="45.83198" lon="4.75394">
        <ele>288.63116</ele>
        <time>2023-06-10T08:29:08.000Z</time>
      </trkpt>
      <trkpt lat="45.83195" lon="4.75397">
        <ele>288.73993</ele>
        <time>2023-06-10T08:29:09.000Z</time>
      </trkpt>
      <trkpt lat="45.83191" lon="4.75401">
        <ele>288.88812</ele>
        <time>2023-06-10T08:29:10.000Z</time>
      </trkpt>
      <trkpt lat="45.83187" lon="4.75403">
        <ele>289.03214</ele>
        <time>2023-06-10T08:29:11.000Z</time>
      </trkpt>
      <trkpt lat="45.83184" lon="4.75405">
        <ele>289.271</ele>
        <time>2023-06-10T08:29:12.000Z</time>
      </trkpt>
      <trkpt lat="45.8318" lon="4.75408">
        <ele>289.63092</ele>
        <time>2023-06-10T08:29:13.000Z</time>
      </trkpt>
      <trkpt lat="45.83177" lon="4.75411">
        <ele>290.02737</ele>
        <time>2023-06-10T08:29:14.000Z</time>
      </trkpt>
      <trkpt lat="45.83173" lon="4.75414">
        <ele>290.45438</ele>
        <time>2023-06-10T08:29:15.000Z</time>
      </trkpt>
      <trkpt lat="45.8317" lon="4.75416">
        <ele>290.87421</ele>
        <time>2023-06-10T08:29:16.000Z</time>
      </trkpt>
      <trkpt lat="45.83166" lon="4.75417">
        <ele>291.27655</ele>
        <time>2023-06-10T08:29:17.000Z</time>
      </trkpt>
      <trkpt lat="45.83162" lon="4.75418">
        <ele>291.70493</ele>
        <time>2023-06-10T08:29:18.000Z</time>
      </trkpt>
      <trkpt lat="45.83158" lon="4.75419">
        <ele>292.24652</ele>
        <time>2023-06-10T08:29:19.000Z</time>
      </trkpt>
      <trkpt lat="45.83154" lon="4.75421">
        <ele>292.74295</ele>
        <time>2023-06-10T08:29:20.000Z</time>
      </trkpt>
      <trkpt lat="45.8315" lon="4.75423">
        <ele>293.17337</ele>
        <time>2023-06-10T08:29:21.000Z</time>
      </trkpt>
      <trkpt lat="45.83147" lon="4.75425">
        <ele>293.66364</ele>
        <time>2023-06-10T08:29:22.000Z</time>
      </trkpt>
      <trkpt lat="45.8314" lon="4.75429">
        <ele>294.13684</ele>
        <time>2023-06-10T08:29:23.000Z</time>
      </trkpt>
      <trkpt lat="45.83138" lon="4.75433">
        <ele>294.56448</ele>
        <time>2023-06-10T08:29:24.000Z</time>
      </trkpt>
      <trkpt lat="45.83133" lon="4.75437">
        <ele>295.01959</ele>
        <time>2023-06-10T08:29:25.000Z</time>
      </trkpt>
      <trkpt lat="45.8313" lon="4.75442">
        <ele>295.39346</ele>
        <time>2023-06-10T08:29:26.000Z</time>
      </trkpt>
      <trkpt lat="45.83127" lon="4.75447">
        <ele>295.70859</ele>
        <time>2023-06-10T08:29:27.000Z</time>
      </trkpt>
      <trkpt lat="45.83124" lon="4.75454">
        <ele>296.05212</ele>
        <time>2023-06-10T08:29:28.000Z</time>
      </trkpt>
      <trkpt lat="45.83121" lon="4.7546">
        <ele>296.56421</ele>
        <time>2023-06-10T08:29:29.000Z</time>
      </trkpt>
      <trkpt lat="45.83121" lon="4.75467">
        <ele>296.98508</ele>
        <time>2023-06-10T08:29:31.000Z</time>
      </trkpt>
      <trkpt lat="45.83119" lon="4.75475">
        <ele>297.40585</ele>
        <time>2023-06-10T08:29:32.000Z</time>
      </trkpt>
      <trkpt lat="45.8312" lon="4.75481">
        <ele>297.76068</ele>
        <time>2023-06-10T08:29:33.000Z</time>
      </trkpt>
      <trkpt lat="45.8312" lon="4.75487">
        <ele>298.13153</ele>
        <time>2023-06-10T08:29:34.000Z</time>
      </trkpt>
      <trkpt lat="45.83122" lon="4.75493">
        <ele>298.49179</ele>
        <time>2023-06-10T08:29:35.000Z</time>
      </trkpt>
      <trkpt lat="45.83123" lon="4.75497">
        <ele>298.87445</ele>
        <time>2023-06-10T08:29:36.000Z</time>
      </trkpt>
      <trkpt lat="45.83126" lon="4.75502">
        <ele>299.25653</ele>
        <time>2023-06-10T08:29:37.000Z</time>
      </trkpt>
      <trkpt lat="45.83128" lon="4.75508">
        <ele>299.72836</ele>
        <time>2023-06-10T08:29:38.000Z</time>
      </trkpt>
      <trkpt lat="45.8313" lon="4.75514">
        <ele>300.1673</ele>
        <time>2023-06-10T08:29:39.000Z</time>
      </trkpt>
      <trkpt lat="45.83132" lon="4.75519">
        <ele>300.66232</ele>
        <time>2023-06-10T08:29:40.000Z</time>
      </trkpt>
      <trkpt lat="45.83134" lon="4.75523">
        <ele>301.1842</ele>
        <time>2023-06-10T08:29:41.000Z</time>
      </trkpt>
      <trkpt lat="45.83137" lon="4.75527">
        <ele>301.73627</ele>
        <time>2023-06-10T08:29:42.000Z</time>
      </trkpt>
      <trkpt lat="45.8314" lon="4.75531">
        <ele>302.23834</ele>
        <time>2023-06-10T08:29:43.000Z</time>
      </trkpt>
      <trkpt lat="45.83142" lon="4.75535">
        <ele>302.7142</ele>
        <time>2023-06-10T08:29:44.000Z</time>
      </trkpt>
      <trkpt lat="45.83144" lon="4.75539">
        <ele>303.21738</ele>
        <time>2023-06-10T08:29:45.000Z</time>
      </trkpt>
      <trkpt lat="45.83147" lon="4.75543">
        <ele>303.71722</ele>
        <time>2023-06-10T08:29:46.000Z</time>
      </trkpt>
      <trkpt lat="45.83149" lon="4.75547">
        <ele>304.19995</ele>
        <time>2023-06-10T08:29:47.000Z</time>
      </trkpt>
      <trkpt lat="45.83151" lon="4.75552">
        <ele>304.74878</ele>
        <time>2023-06-10T08:29:48.000Z</time>
      </trkpt>
      <trkpt lat="45.83152" lon="4.75558">
        <ele>305.43442</ele>
        <time>2023-06-10T08:29:49.000Z</time>
      </trkpt>
      <trkpt lat="45.83153" lon="4.75564">
        <ele>305.97089</ele>
        <time>2023-06-10T08:29:50.000Z</time>
      </trkpt>
      <trkpt lat="45.83153" lon="4.7557">
        <ele>306.55463</ele>
        <time>2023-06-10T08:29:51.000Z</time>
      </trkpt>
      <trkpt lat="45.83154" lon="4.75576">
        <ele>307.12646</ele>
        <time>2023-06-10T08:29:52.000Z</time>
      </trkpt>
      <trkpt lat="45.83156" lon="4.75582">
        <ele>307.70953</ele>
        <time>2023-06-10T08:29:53.000Z</time>
      </trkpt>
      <trkpt lat="45.83157" lon="4.75591">
        <ele>308.25644</ele>
        <time>2023-06-10T08:29:54.000Z</time>
      </trkpt>
      <trkpt lat="45.83158" lon="4.75598">
        <ele>308.83447</ele>
        <time>2023-06-10T08:29:55.000Z</time>
      </trkpt>
      <trkpt lat="45.8316" lon="4.75606">
        <ele>309.38263</ele>
        <time>2023-06-10T08:29:56.000Z</time>
      </trkpt>
      <trkpt lat="45.83159" lon="4.75614">
        <ele>309.8931</ele>
        <time>2023-06-10T08:29:57.000Z</time>
      </trkpt>
      <trkpt lat="45.83159" lon="4.7562">
        <ele>310.34967</ele>
        <time>2023-06-10T08:29:58.000Z</time>
      </trkpt>
      <trkpt lat="45.8316" lon="4.75627">
        <ele>310.97943</ele>
        <time>2023-06-10T08:29:59.000Z</time>
      </trkpt>
      <trkpt lat="45.8316" lon="4.75632">
        <ele>311.60455</ele>
        <time>2023-06-10T08:30:00.000Z</time>
      </trkpt>
      <trkpt lat="45.83161" lon="4.75638">
        <ele>312.18887</ele>
        <time>2023-06-10T08:30:01.000Z</time>
      </trkpt>
      <trkpt lat="45.83161" lon="4.75643">
        <ele>312.77386</ele>
        <time>2023-06-10T08:30:02.000Z</time>
      </trkpt>
      <trkpt lat="45.83163" lon="4.75649">
        <ele>313.35059</ele>
        <time>2023-06-10T08:30:03.000Z</time>
      </trkpt>
      <trkpt lat="45.83165" lon="4.75655">
        <ele>313.94431</ele>
        <time>2023-06-10T08:30:04.000Z</time>
      </trkpt>
      <trkpt lat="45.83167" lon="4.7566">
        <ele>314.51605</ele>
        <time>2023-06-10T08:30:05.000Z</time>
      </trkpt>
      <trkpt lat="45.8317" lon="4.75665">
        <ele>315.08325</ele>
        <time>2023-06-10T08:30:06.000Z</time>
      </trkpt>
      <trkpt lat="45.83172" lon="4.7567">
        <ele>315.71393</ele>
        <time>2023-06-10T08:30:07.000Z</time>
      </trkpt>
      <trkpt lat="45.83175" lon="4.75675">
        <ele>316.28766</ele>
        <time>2023-06-10T08:30:08.000Z</time>
      </trkpt>
      <trkpt lat="45.83178" lon="4.7568">
        <ele>316.69537</ele>
        <time>2023-06-10T08:30:09.000Z</time>
      </trkpt>
      <trkpt lat="45.83181" lon="4.75684">
        <ele>317.16046</ele>
        <time>2023-06-10T08:30:10.000Z</time>
      </trkpt>
      <trkpt lat="45.83183" lon="4.75689">
        <ele>317.62881</ele>
        <time>2023-06-10T08:30:11.000Z</time>
      </trkpt>
      <trkpt lat="45.83186" lon="4.75694">
        <ele>318.10822</ele>
        <time>2023-06-10T08:30:12.000Z</time>
      </trkpt>
      <trkpt lat="45.83188" lon="4.75699">
        <ele>318.5289</ele>
        <time>2023-06-10T08:30:13.000Z</time>
      </trkpt>
      <trkpt lat="45.8319" lon="4.75704">
        <ele>319.18124</ele>
        <time>2023-06-10T08:30:14.000Z</time>
      </trkpt>
      <trkpt lat="45.83193" lon="4.75709">
        <ele>319.79834</ele>
        <time>2023-06-10T08:30:15.000Z</time>
      </trkpt>
      <trkpt lat="45.83195" lon="4.75714">
        <ele>320.44305</ele>
        <time>2023-06-10T08:30:16.000Z</time>
      </trkpt>
      <trkpt lat="45.83198" lon="4.7572">
        <ele>321.07364</ele>
        <time>2023-06-10T08:30:17.000Z</time>
      </trkpt>
      <trkpt lat="45.83201" lon="4.75725">
        <ele>321.69858</ele>
        <time>2023-06-10T08:30:18.000Z</time>
      </trkpt>
      <trkpt lat="45.83203" lon="4.75729">
        <ele>322.15546</ele>
        <time>2023-06-10T08:30:19.000Z</time>
      </trkpt>
      <trkpt lat="45.83204" lon="4.75734">
        <ele>322.55417</ele>
        <time>2023-06-10T08:30:20.000Z</time>
      </trkpt>
      <trkpt lat="45.83206" lon="4.75738">
        <ele>322.92569</ele>
        <time>2023-06-10T08:30:21.000Z</time>
      </trkpt>
      <trkpt lat="45.83209" lon="4.75744">
        <ele>323.26205</ele>
        <time>2023-06-10T08:30:22.000Z</time>
      </trkpt>
      <trkpt lat="45.83209" lon="4.75749">
        <ele>323.58691</ele>
        <time>2023-06-10T08:30:23.000Z</time>
      </trkpt>
      <trkpt lat="45.83212" lon="4.75753">
        <ele>323.94525</ele>
        <time>2023-06-10T08:30:24.000Z</time>
      </trkpt>
      <trkpt lat="45.83214" lon="4.75757">
        <ele>324.3602</ele>
        <time>2023-06-10T08:30:25.000Z</time>
      </trkpt>
      <trkpt lat="45.83216" lon="4.75761">
        <ele>324.75836</ele>
        <time>2023-06-10T08:30:26.000Z</time>
      </trkpt>
      <trkpt lat="45.83218" lon="4.75765">
        <ele>325.14172</ele>
        <time>2023-06-10T08:30:27.000Z</time>
      </trkpt>
      <trkpt lat="45.8322" lon="4.7577">
        <ele>325.55127</ele>
        <time>2023-06-10T08:30:28.000Z</time>
      </trkpt>
      <trkpt lat="45.83222" lon="4.75774">
        <ele>325.95255</ele>
        <time>2023-06-10T08:30:29.000Z</time>
      </trkpt>
      <trkpt lat="45.83223" lon="4.75778">
        <ele>326.37006</ele>
        <time>2023-06-10T08:30:30.000Z</time>
      </trkpt>
      <trkpt lat="45.83225" lon="4.75782">
        <ele>326.77167</ele>
        <time>2023-06-10T08:30:31.000Z</time>
      </trkpt>
      <trkpt lat="45.83228" lon="4.75786">
        <ele>327.21796</ele>
        <time>2023-06-10T08:30:32.000Z</time>
      </trkpt>
      <trkpt lat="45.8323" lon="4.7579">
        <ele>327.71637</ele>
        <time>2023-06-10T08:30:33.000Z</time>
      </trkpt>
      <trkpt lat="45.83231" lon="4.75794">
        <ele>327.99796</ele>
        <time>2023-06-10T08:30:34.000Z</time>
      </trkpt>
      <trkpt lat="45.83233" lon="4.75799">
        <ele>328.29742</ele>
        <time>2023-06-10T08:30:35.000Z</time>
      </trkpt>
      <trkpt lat="45.83235" lon="4.75803">
        <ele>328.57294</ele>
        <time>2023-06-10T08:30:36.000Z</time>
      </trkpt>
      <trkpt lat="45.83236" lon="4.75808">
        <ele>328.86087</ele>
        <time>2023-06-10T08:30:37.000Z</time>
      </trkpt>
      <trkpt lat="45.83237" lon="4.75812">
        <ele>329.15115</ele>
        <time>2023-06-10T08:30:38.000Z</time>
      </trkpt>
      <trkpt lat="45.83238" lon="4.75816">
        <ele>329.41205</ele>
        <time>2023-06-10T08:30:39.000Z</time>
      </trkpt>
      <trkpt lat="45.83239" lon="4.7582">
        <ele>329.70792</ele>
        <time>2023-06-10T08:30:40.000Z</time>
      </trkpt>
      <trkpt lat="45.8324" lon="4.75824">
        <ele>330.0293</ele>
        <time>2023-06-10T08:30:41.000Z</time>
      </trkpt>
      <trkpt lat="45.83241" lon="4.75828">
        <ele>330.37103</ele>
        <time>2023-06-10T08:30:42.000Z</time>
      </trkpt>
      <trkpt lat="45.83241" lon="4.75831">
        <ele>330.71185</ele>
        <time>2023-06-10T08:30:43.000Z</time>
      </trkpt>
      <trkpt lat="45.83242" lon="4.75835">
        <ele>331.02411</ele>
        <time>2023-06-10T08:30:44.000Z</time>
      </trkpt>
      <trkpt lat="45.83242" lon="4.7584">
        <ele>331.28635</ele>
        <time>2023-06-10T08:30:45.000Z</time>
      </trkpt>
      <trkpt lat="45.83243" lon="4.75844">
        <ele>331.55109</ele>
        <time>2023-06-10T08:30:46.000Z</time>
      </trkpt>
      <trkpt lat="45.83243" lon="4.75849">
        <ele>331.77826</ele>
        <time>2023-06-10T08:30:47.000Z</time>
      </trkpt>
      <trkpt lat="45.83243" lon="4.75853">
        <ele>331.96362</ele>
        <time>2023-06-10T08:30:48.000Z</time>
      </trkpt>
      <trkpt lat="45.83243" lon="4.75858">
        <ele>332.13626</ele>
        <time>2023-06-10T08:30:49.000Z</time>
      </trkpt>
      <trkpt lat="45.83243" lon="4.75863">
        <ele>332.32907</ele>
        <time>2023-06-10T08:30:50.000Z</time>
      </trkpt>
      <trkpt lat="45.83243" lon="4.75868">
        <ele>332.50909</ele>
        <time>2023-06-10T08:30:51.000Z</time>
      </trkpt>
      <trkpt lat="45.83244" lon="4.75872">
        <ele>332.66708</ele>
        <time>2023-06-10T08:30:52.000Z</time>
      </trkpt>
      <trkpt lat="45.83244" lon="4.75876">
        <ele>332.84952</ele>
        <time>2023-06-10T08:30:53.000Z</time>
      </trkpt>
      <trkpt lat="45.83244" lon="4.75881">
        <ele>333.02142</ele>
        <time>2023-06-10T08:30:54.000Z</time>
      </trkpt>
      <trkpt lat="45.83244" lon="4.75885">
        <ele>333.16785</ele>
        <time>2023-06-10T08:30:55.000Z</time>
      </trkpt>
      <trkpt lat="45.83244" lon="4.7589">
        <ele>333.32825</ele>
        <time>2023-06-10T08:30:56.000Z</time>
      </trkpt>
      <trkpt lat="45.83245" lon="4.75894">
        <ele>333.46603</ele>
        <time>2023-06-10T08:30:57.000Z</time>
      </trkpt>
      <trkpt lat="45.83245" lon="4.75898">
        <ele>333.58115</ele>
        <time>2023-06-10T08:30:58.000Z</time>
      </trkpt>
      <trkpt lat="45.83245" lon="4.75903">
        <ele>333.67633</ele>
        <time>2023-06-10T08:30:59.000Z</time>
      </trkpt>
      <trkpt lat="45.83246" lon="4.75907">
        <ele>333.71194</ele>
        <time>2023-06-10T08:31:00.000Z</time>
      </trkpt>
      <trkpt lat="45.83247" lon="4.75912">
        <ele>333.72177</ele>
        <time>2023-06-10T08:31:01.000Z</time>
      </trkpt>
      <trkpt lat="45.83248" lon="4.75917">
        <ele>333.76801</ele>
        <time>2023-06-10T08:31:02.000Z</time>
      </trkpt>
      <trkpt lat="45.83248" lon="4.75923">
        <ele>333.77145</ele>
        <time>2023-06-10T08:31:03.000Z</time>
      </trkpt>
      <trkpt lat="45.83249" lon="4.75928">
        <ele>333.76202</ele>
        <time>2023-06-10T08:31:04.000Z</time>
      </trkpt>
      <trkpt lat="45.83251" lon="4.75933">
        <ele>333.74112</ele>
        <time>2023-06-10T08:31:05.000Z</time>
      </trkpt>
      <trkpt lat="45.83252" lon="4.75938">
        <ele>333.6893</ele>
        <time>2023-06-10T08:31:06.000Z</time>
      </trkpt>
      <trkpt lat="45.83254" lon="4.75943">
        <ele>333.64044</ele>
        <time>2023-06-10T08:31:07.000Z</time>
      </trkpt>
      <trkpt lat="45.83255" lon="4.75948">
        <ele>333.62964</ele>
        <time>2023-06-10T08:31:08.000Z</time>
      </trkpt>
      <trkpt lat="45.83258" lon="4.75953">
        <ele>333.70825</ele>
        <time>2023-06-10T08:31:09.000Z</time>
      </trkpt>
      <trkpt lat="45.8326" lon="4.75958">
        <ele>333.73285</ele>
        <time>2023-06-10T08:31:10.000Z</time>
      </trkpt>
      <trkpt lat="45.83262" lon="4.75962">
        <ele>333.75522</ele>
        <time>2023-06-10T08:31:11.000Z</time>
      </trkpt>
      <trkpt lat="45.83263" lon="4.75967">
        <ele>333.76886</ele>
        <time>2023-06-10T08:31:12.000Z</time>
      </trkpt>
      <trkpt lat="45.83265" lon="4.75972">
        <ele>333.79489</ele>
        <time>2023-06-10T08:31:13.000Z</time>
      </trkpt>
      <trkpt lat="45.83266" lon="4.75976">
        <ele>333.83026</ele>
        <time>2023-06-10T08:31:14.000Z</time>
      </trkpt>
      <trkpt lat="45.83267" lon="4.75981">
        <ele>333.8476</ele>
        <time>2023-06-10T08:31:15.000Z</time>
      </trkpt>
      <trkpt lat="45.83269" lon="4.75985">
        <ele>333.87018</ele>
        <time>2023-06-10T08:31:16.000Z</time>
      </trkpt>
      <trkpt lat="45.8327" lon="4.7599">
        <ele>333.90829</ele>
        <time>2023-06-10T08:31:17.000Z</time>
      </trkpt>
      <trkpt lat="45.83271" lon="4.75994">
        <ele>333.92447</ele>
        <time>2023-06-10T08:31:18.000Z</time>
      </trkpt>
      <trkpt lat="45.83272" lon="4.75998">
        <ele>333.95172</ele>
        <time>2023-06-10T08:31:19.000Z</time>
      </trkpt>
      <trkpt lat="45.83273" lon="4.76002">
        <ele>333.99792</ele>
        <time>2023-06-10T08:31:20.000Z</time>
      </trkpt>
      <trkpt lat="45.83274" lon="4.76007">
        <ele>334.06058</ele>
        <time>2023-06-10T08:31:21.000Z</time>
      </trkpt>
      <trkpt lat="45.83275" lon="4.76011">
        <ele>332.92789</ele>
        <time>2023-06-10T08:31:22.000Z</time>
      </trkpt>
      <trkpt lat="45.83277" lon="4.76015">
        <ele>331.77432</ele>
        <time>2023-06-10T08:31:23.000Z</time>
      </trkpt>
      <trkpt lat="45.83278" lon="4.76019">
        <ele>330.57947</ele>
        <time>2023-06-10T08:31:24.000Z</time>
      </trkpt>
      <trkpt lat="45.8328" lon="4.76024">
        <ele>329.97931</ele>
        <time>2023-06-10T08:31:25.000Z</time>
      </trkpt>
      <trkpt lat="45.83281" lon="4.76028">
        <ele>329.34491</ele>
        <time>2023-06-10T08:31:26.000Z</time>
      </trkpt>
      <trkpt lat="45.83283" lon="4.76032">
        <ele>328.73566</ele>
        <time>2023-06-10T08:31:27.000Z</time>
      </trkpt>
      <trkpt lat="45.83284" lon="4.76036">
        <ele>328.11258</ele>
        <time>2023-06-10T08:31:28.000Z</time>
      </trkpt>
      <trkpt lat="45.83285" lon="4.7604">
        <ele>327.41058</ele>
        <time>2023-06-10T08:31:29.000Z</time>
      </trkpt>
      <trkpt lat="45.83286" lon="4.76044">
        <ele>326.73004</ele>
        <time>2023-06-10T08:31:30.000Z</time>
      </trkpt>
      <trkpt lat="45.83286" lon="4.76048">
        <ele>326.08798</ele>
        <time>2023-06-10T08:31:31.000Z</time>
      </trkpt>
      <trkpt lat="45.83287" lon="4.76052">
        <ele>325.4166</ele>
        <time>2023-06-10T08:31:32.000Z</time>
      </trkpt>
      <trkpt lat="45.83287" lon="4.76056">
        <ele>324.33527</ele>
        <time>2023-06-10T08:31:33.000Z</time>
      </trkpt>
      <trkpt lat="45.83287" lon="4.76061">
        <ele>323.17102</ele>
        <time>2023-06-10T08:31:34.000Z</time>
      </trkpt>
      <trkpt lat="45.83286" lon="4.76065">
        <ele>322.58115</ele>
        <time>2023-06-10T08:31:35.000Z</time>
      </trkpt>
      <trkpt lat="45.83285" lon="4.76069">
        <ele>321.88089</ele>
        <time>2023-06-10T08:31:36.000Z</time>
      </trkpt>
      <trkpt lat="45.83283" lon="4.76072">
        <ele>321.19531</ele>
        <time>2023-06-10T08:31:37.000Z</time>
      </trkpt>
      <trkpt lat="45.83281" lon="4.76076">
        <ele>320.53714</ele>
        <time>2023-06-10T08:31:38.000Z</time>
      </trkpt>
      <trkpt lat="45.8328" lon="4.7608">
        <ele>319.89404</ele>
        <time>2023-06-10T08:31:39.000Z</time>
      </trkpt>
      <trkpt lat="45.83278" lon="4.76084">
        <ele>319.24725</ele>
        <time>2023-06-10T08:31:40.000Z</time>
      </trkpt>
      <trkpt lat="45.83277" lon="4.76088">
        <ele>318.59155</ele>
        <time>2023-06-10T08:31:41.000Z</time>
      </trkpt>
      <trkpt lat="45.83276" lon="4.76093">
        <ele>319.08594</ele>
        <time>2023-06-10T08:31:42.000Z</time>
      </trkpt>
      <trkpt lat="45.83274" lon="4.76097">
        <ele>319.66412</ele>
        <time>2023-06-10T08:31:43.000Z</time>
      </trkpt>
      <trkpt lat="45.83273" lon="4.761">
        <ele>320.29425</ele>
        <time>2023-06-10T08:31:44.000Z</time>
      </trkpt>
      <trkpt lat="45.8327" lon="4.76104">
        <ele>320.36893</ele>
        <time>2023-06-10T08:31:45.000Z</time>
      </trkpt>
      <trkpt lat="45.83269" lon="4.76108">
        <ele>320.46957</ele>
        <time>2023-06-10T08:31:46.000Z</time>
      </trkpt>
      <trkpt lat="45.83267" lon="4.76112">
        <ele>320.53055</ele>
        <time>2023-06-10T08:31:47.000Z</time>
      </trkpt>
      <trkpt lat="45.83266" lon="4.76117">
        <ele>320.60556</ele>
        <time>2023-06-10T08:31:48.000Z</time>
      </trkpt>
      <trkpt lat="45.83264" lon="4.76121">
        <ele>320.70514</ele>
        <time>2023-06-10T08:31:49.000Z</time>
      </trkpt>
      <trkpt lat="45.83264" lon="4.76126">
        <ele>321.46637</ele>
        <time>2023-06-10T08:31:50.000Z</time>
      </trkpt>
      <trkpt lat="45.83264" lon="4.76131">
        <ele>322.2265</ele>
        <time>2023-06-10T08:31:51.000Z</time>
      </trkpt>
      <trkpt lat="45.83264" lon="4.76135">
        <ele>323.01376</ele>
        <time>2023-06-10T08:31:52.000Z</time>
      </trkpt>
      <trkpt lat="45.83264" lon="4.7614">
        <ele>324.125</ele>
        <time>2023-06-10T08:31:53.000Z</time>
      </trkpt>
      <trkpt lat="45.83265" lon="4.76145">
        <ele>325.27283</ele>
        <time>2023-06-10T08:31:54.000Z</time>
      </trkpt>
      <trkpt lat="45.83265" lon="4.7615">
        <ele>325.8476</ele>
        <time>2023-06-10T08:31:55.000Z</time>
      </trkpt>
      <trkpt lat="45.83266" lon="4.76154">
        <ele>326.49521</ele>
        <time>2023-06-10T08:31:56.000Z</time>
      </trkpt>
      <trkpt lat="45.83266" lon="4.76158">
        <ele>327.26401</ele>
        <time>2023-06-10T08:31:57.000Z</time>
      </trkpt>
      <trkpt lat="45.83267" lon="4.76163">
        <ele>326.96204</ele>
        <time>2023-06-10T08:31:58.000Z</time>
      </trkpt>
      <trkpt lat="45.83268" lon="4.76167">
        <ele>327.04767</ele>
        <time>2023-06-10T08:31:59.000Z</time>
      </trkpt>
      <trkpt lat="45.83269" lon="4.76172">
        <ele>327.13812</ele>
        <time>2023-06-10T08:32:00.000Z</time>
      </trkpt>
      <trkpt lat="45.8327" lon="4.76176">
        <ele>327.17963</ele>
        <time>2023-06-10T08:32:01.000Z</time>
      </trkpt>
      <trkpt lat="45.8327" lon="4.7618">
        <ele>327.20126</ele>
        <time>2023-06-10T08:32:02.000Z</time>
      </trkpt>
      <trkpt lat="45.8327" lon="4.76185">
        <ele>327.21991</ele>
        <time>2023-06-10T08:32:03.000Z</time>
      </trkpt>
      <trkpt lat="45.83271" lon="4.7619">
        <ele>327.28336</ele>
        <time>2023-06-10T08:32:04.000Z</time>
      </trkpt>
      <trkpt lat="45.83272" lon="4.76195">
        <ele>327.26401</ele>
        <time>2023-06-10T08:32:05.000Z</time>
      </trkpt>
      <trkpt lat="45.83272" lon="4.76199">
        <ele>328.00278</ele>
        <time>2023-06-10T08:32:06.000Z</time>
      </trkpt>
      <trkpt lat="45.83272" lon="4.76204">
        <ele>328.77505</ele>
        <time>2023-06-10T08:32:07.000Z</time>
      </trkpt>
      <trkpt lat="45.83272" lon="4.76209">
        <ele>329.56384</ele>
        <time>2023-06-10T08:32:08.000Z</time>
      </trkpt>
      <trkpt lat="45.83272" lon="4.76214">
        <ele>330.34833</ele>
        <time>2023-06-10T08:32:09.000Z</time>
      </trkpt>
      <trkpt lat="45.83273" lon="4.76219">
        <ele>330.4704</ele>
        <time>2023-06-10T08:32:10.000Z</time>
      </trkpt>
      <trkpt lat="45.83274" lon="4.76224">
        <ele>330.58795</ele>
        <time>2023-06-10T08:32:11.000Z</time>
      </trkpt>
      <trkpt lat="45.83275" lon="4.76229">
        <ele>330.60013</ele>
        <time>2023-06-10T08:32:12.000Z</time>
      </trkpt>
      <trkpt lat="45.83275" lon="4.76234">
        <ele>330.66162</ele>
        <time>2023-06-10T08:32:13.000Z</time>
      </trkpt>
      <trkpt lat="45.83276" lon="4.76239">
        <ele>330.92621</ele>
        <time>2023-06-10T08:32:14.000Z</time>
      </trkpt>
      <trkpt lat="45.83276" lon="4.76245">
        <ele>331.203</ele>
        <time>2023-06-10T08:32:15.000Z</time>
      </trkpt>
      <trkpt lat="45.83277" lon="4.7625">
        <ele>331.53976</ele>
        <time>2023-06-10T08:32:16.000Z</time>
      </trkpt>
      <trkpt lat="45.83277" lon="4.76255">
        <ele>331.72888</ele>
        <time>2023-06-10T08:32:17.000Z</time>
      </trkpt>
      <trkpt lat="45.83277" lon="4.7626">
        <ele>333.02286</ele>
        <time>2023-06-10T08:32:18.000Z</time>
      </trkpt>
      <trkpt lat="45.83277" lon="4.76265">
        <ele>333.93939</ele>
        <time>2023-06-10T08:32:19.000Z</time>
      </trkpt>
      <trkpt lat="45.83277" lon="4.7627">
        <ele>334.87625</ele>
        <time>2023-06-10T08:32:20.000Z</time>
      </trkpt>
      <trkpt lat="45.83277" lon="4.76276">
        <ele>335.87921</ele>
        <time>2023-06-10T08:32:21.000Z</time>
      </trkpt>
      <trkpt lat="45.83278" lon="4.76281">
        <ele>336.90106</ele>
        <time>2023-06-10T08:32:22.000Z</time>
      </trkpt>
      <trkpt lat="45.83278" lon="4.76286">
        <ele>337.91458</ele>
        <time>2023-06-10T08:32:23.000Z</time>
      </trkpt>
      <trkpt lat="45.83279" lon="4.76291">
        <ele>338.88504</ele>
        <time>2023-06-10T08:32:24.000Z</time>
      </trkpt>
      <trkpt lat="45.83279" lon="4.76297">
        <ele>339.91098</ele>
        <time>2023-06-10T08:32:25.000Z</time>
      </trkpt>
      <trkpt lat="45.83279" lon="4.76302">
        <ele>340.23199</ele>
        <time>2023-06-10T08:32:26.000Z</time>
      </trkpt>
      <trkpt lat="45.8328" lon="4.76308">
        <ele>340.52853</ele>
        <time>2023-06-10T08:32:27.000Z</time>
      </trkpt>
      <trkpt lat="45.8328" lon="4.76312">
        <ele>340.82236</ele>
        <time>2023-06-10T08:32:28.000Z</time>
      </trkpt>
      <trkpt lat="45.8328" lon="4.76317">
        <ele>341.09326</ele>
        <time>2023-06-10T08:32:29.000Z</time>
      </trkpt>
      <trkpt lat="45.83281" lon="4.76322">
        <ele>341.39117</ele>
        <time>2023-06-10T08:32:30.000Z</time>
      </trkpt>
      <trkpt lat="45.83281" lon="4.76327">
        <ele>341.6864</ele>
        <time>2023-06-10T08:32:31.000Z</time>
      </trkpt>
      <trkpt lat="45.83282" lon="4.76333">
        <ele>342.09003</ele>
        <time>2023-06-10T08:32:32.000Z</time>
      </trkpt>
      <trkpt lat="45.83282" lon="4.76338">
        <ele>342.43491</ele>
        <time>2023-06-10T08:32:33.000Z</time>
      </trkpt>
      <trkpt lat="45.83282" lon="4.76343">
        <ele>342.63214</ele>
        <time>2023-06-10T08:32:34.000Z</time>
      </trkpt>
      <trkpt lat="45.83281" lon="4.76348">
        <ele>342.84933</ele>
        <time>2023-06-10T08:32:35.000Z</time>
      </trkpt>
      <trkpt lat="45.83281" lon="4.76352">
        <ele>343.03864</ele>
        <time>2023-06-10T08:32:36.000Z</time>
      </trkpt>
      <trkpt lat="45.83282" lon="4.76356">
        <ele>343.14682</ele>
        <time>2023-06-10T08:32:37.000Z</time>
      </trkpt>
      <trkpt lat="45.83284" lon="4.7636">
        <ele>343.83575</ele>
        <time>2023-06-10T08:32:38.000Z</time>
      </trkpt>
      <trkpt lat="45.83286" lon="4.76364">
        <ele>344.50668</ele>
        <time>2023-06-10T08:32:39.000Z</time>
      </trkpt>
      <trkpt lat="45.83289" lon="4.76367">
        <ele>345.16153</ele>
        <time>2023-06-10T08:32:40.000Z</time>
      </trkpt>
      <trkpt lat="45.83292" lon="4.7637">
        <ele>345.81024</ele>
        <time>2023-06-10T08:32:41.000Z</time>
      </trkpt>
      <trkpt lat="45.83295" lon="4.76373">
        <ele>346.05594</ele>
        <time>2023-06-10T08:32:42.000Z</time>
      </trkpt>
      <trkpt lat="45.83299" lon="4.76375">
        <ele>346.32065</ele>
        <time>2023-06-10T08:32:43.000Z</time>
      </trkpt>
      <trkpt lat="45.83302" lon="4.76376">
        <ele>346.60095</ele>
        <time>2023-06-10T08:32:44.000Z</time>
      </trkpt>
      <trkpt lat="45.83306" lon="4.76377">
        <ele>346.85672</ele>
        <time>2023-06-10T08:32:45.000Z</time>
      </trkpt>
      <trkpt lat="45.8331" lon="4.76376">
        <ele>347.1189</ele>
        <time>2023-06-10T08:32:46.000Z</time>
      </trkpt>
      <trkpt lat="45.83313" lon="4.76375">
        <ele>347.35678</ele>
        <time>2023-06-10T08:32:47.000Z</time>
      </trkpt>
      <trkpt lat="45.83317" lon="4.76374">
        <ele>347.5903</ele>
        <time>2023-06-10T08:32:48.000Z</time>
      </trkpt>
      <trkpt lat="45.8332" lon="4.76372">
        <ele>347.86139</ele>
        <time>2023-06-10T08:32:49.000Z</time>
      </trkpt>
      <trkpt lat="45.83324" lon="4.76369">
        <ele>348.1051</ele>
        <time>2023-06-10T08:32:50.000Z</time>
      </trkpt>
      <trkpt lat="45.83327" lon="4.76367">
        <ele>348.19434</ele>
        <time>2023-06-10T08:32:51.000Z</time>
      </trkpt>
      <trkpt lat="45.83331" lon="4.76365">
        <ele>348.29016</ele>
        <time>2023-06-10T08:32:52.000Z</time>
      </trkpt>
      <trkpt lat="45.83334" lon="4.76362">
        <ele>348.41235</ele>
        <time>2023-06-10T08:32:53.000Z</time>
      </trkpt>
      <trkpt lat="45.83338" lon="4.7636">
        <ele>348.52899</ele>
        <time>2023-06-10T08:32:54.000Z</time>
      </trkpt>
      <trkpt lat="45.83342" lon="4.76357">
        <ele>348.61871</ele>
        <time>2023-06-10T08:32:55.000Z</time>
      </trkpt>
      <trkpt lat="45.83345" lon="4.76354">
        <ele>348.63187</ele>
        <time>2023-06-10T08:32:56.000Z</time>
      </trkpt>
      <trkpt lat="45.83348" lon="4.76352">
        <ele>348.27289</ele>
        <time>2023-06-10T08:32:57.000Z</time>
      </trkpt>
      <trkpt lat="45.83352" lon="4.76349">
        <ele>347.80743</ele>
        <time>2023-06-10T08:32:58.000Z</time>
      </trkpt>
      <trkpt lat="45.83355" lon="4.76347">
        <ele>347.35355</ele>
        <time>2023-06-10T08:32:59.000Z</time>
      </trkpt>
      <trkpt lat="45.83359" lon="4.76345">
        <ele>346.83759</ele>
        <time>2023-06-10T08:33:00.000Z</time>
      </trkpt>
      <trkpt lat="45.83363" lon="4.76343">
        <ele>346.58249</ele>
        <time>2023-06-10T08:33:01.000Z</time>
      </trkpt>
      <trkpt lat="45.83367" lon="4.76341">
        <ele>346.76324</ele>
        <time>2023-06-10T08:33:02.000Z</time>
      </trkpt>
      <trkpt lat="45.83371" lon="4.76339">
        <ele>346.94354</ele>
        <time>2023-06-10T08:33:03.000Z</time>
      </trkpt>
      <trkpt lat="45.83375" lon="4.76338">
        <ele>347.1142</ele>
        <time>2023-06-10T08:33:04.000Z</time>
      </trkpt>
      <trkpt lat="45.83379" lon="4.76337">
        <ele>347.31854</ele>
        <time>2023-06-10T08:33:05.000Z</time>
      </trkpt>
      <trkpt lat="45.83384" lon="4.76337">
        <ele>347.52817</ele>
        <time>2023-06-10T08:33:06.000Z</time>
      </trkpt>
      <trkpt lat="45.83388" lon="4.76337">
        <ele>347.81082</ele>
        <time>2023-06-10T08:33:07.000Z</time>
      </trkpt>
      <trkpt lat="45.83393" lon="4.76337">
        <ele>348.09036</ele>
        <time>2023-06-10T08:33:08.000Z</time>
      </trkpt>
      <trkpt lat="45.83397" lon="4.76338">
        <ele>348.3656</ele>
        <time>2023-06-10T08:33:09.000Z</time>
      </trkpt>
      <trkpt lat="45.83402" lon="4.76338">
        <ele>348.62943</ele>
        <time>2023-06-10T08:33:10.000Z</time>
      </trkpt>
      <trkpt lat="45.83406" lon="4.76339">
        <ele>349.04068</ele>
        <time>2023-06-10T08:33:11.000Z</time>
      </trkpt>
      <trkpt lat="45.83411" lon="4.7634">
        <ele>349.41473</ele>
        <time>2023-06-10T08:33:12.000Z</time>
      </trkpt>
      <trkpt lat="45.83416" lon="4.7634">
        <ele>349.80853</ele>
        <time>2023-06-10T08:33:13.000Z</time>
      </trkpt>
      <trkpt lat="45.8342" lon="4.76342">
        <ele>350.18097</ele>
        <time>2023-06-10T08:33:14.000Z</time>
      </trkpt>
      <trkpt lat="45.83423" lon="4.76345">
        <ele>350.57709</ele>
        <time>2023-06-10T08:33:15.000Z</time>
      </trkpt>
      <trkpt lat="45.83426" lon="4.76347">
        <ele>351.02643</ele>
        <time>2023-06-10T08:33:16.000Z</time>
      </trkpt>
      <trkpt lat="45.83428" lon="4.76351">
        <ele>351.94952</ele>
        <time>2023-06-10T08:33:17.000Z</time>
      </trkpt>
      <trkpt lat="45.8343" lon="4.76354">
        <ele>352.3609</ele>
        <time>2023-06-10T08:33:18.000Z</time>
      </trkpt>
      <trkpt lat="45.83432" lon="4.76359">
        <ele>352.75519</ele>
        <time>2023-06-10T08:33:19.000Z</time>
      </trkpt>
      <trkpt lat="45.83434" lon="4.76365">
        <ele>353.20642</ele>
        <time>2023-06-10T08:33:20.000Z</time>
      </trkpt>
      <trkpt lat="45.83434" lon="4.76372">
        <ele>353.22336</ele>
        <time>2023-06-10T08:33:21.000Z</time>
      </trkpt>
      <trkpt lat="45.83435" lon="4.76377">
        <ele>353.16904</ele>
        <time>2023-06-10T08:33:22.000Z</time>
      </trkpt>
      <trkpt lat="45.83435" lon="4.76384">
        <ele>353.09042</ele>
        <time>2023-06-10T08:33:23.000Z</time>
      </trkpt>
      <trkpt lat="45.83436" lon="4.76391">
        <ele>352.87363</ele>
        <time>2023-06-10T08:33:24.000Z</time>
      </trkpt>
      <trkpt lat="45.83436" lon="4.76398">
        <ele>352.948</ele>
        <time>2023-06-10T08:33:25.000Z</time>
      </trkpt>
      <trkpt lat="45.83435" lon="4.76403">
        <ele>352.88098</ele>
        <time>2023-06-10T08:33:26.000Z</time>
      </trkpt>
      <trkpt lat="45.83436" lon="4.76411">
        <ele>352.81732</ele>
        <time>2023-06-10T08:33:27.000Z</time>
      </trkpt>
      <trkpt lat="45.83436" lon="4.76418">
        <ele>352.71835</ele>
        <time>2023-06-10T08:33:28.000Z</time>
      </trkpt>
      <trkpt lat="45.83436" lon="4.76426">
        <ele>352.61356</ele>
        <time>2023-06-10T08:33:29.000Z</time>
      </trkpt>
      <trkpt lat="45.83436" lon="4.76434">
        <ele>352.50836</ele>
        <time>2023-06-10T08:33:30.000Z</time>
      </trkpt>
      <trkpt lat="45.83436" lon="4.76442">
        <ele>352.36099</ele>
        <time>2023-06-10T08:33:31.000Z</time>
      </trkpt>
      <trkpt lat="45.83438" lon="4.76449">
        <ele>352.22003</ele>
        <time>2023-06-10T08:33:32.000Z</time>
      </trkpt>
      <trkpt lat="45.83438" lon="4.76457">
        <ele>352.11554</ele>
        <time>2023-06-10T08:33:33.000Z</time>
      </trkpt>
      <trkpt lat="45.8344" lon="4.76466">
        <ele>352.01599</ele>
        <time>2023-06-10T08:33:34.000Z</time>
      </trkpt>
      <trkpt lat="45.83441" lon="4.76475">
        <ele>351.91147</ele>
        <time>2023-06-10T08:33:35.000Z</time>
      </trkpt>
      <trkpt lat="45.83443" lon="4.76482">
        <ele>351.7915</ele>
        <time>2023-06-10T08:33:36.000Z</time>
      </trkpt>
      <trkpt lat="45.83445" lon="4.76491">
        <ele>351.66196</ele>
        <time>2023-06-10T08:33:37.000Z</time>
      </trkpt>
      <trkpt lat="45.83447" lon="4.765">
        <ele>351.52158</ele>
        <time>2023-06-10T08:33:38.000Z</time>
      </trkpt>
      <trkpt lat="45.83449" lon="4.76509">
        <ele>351.47629</ele>
        <time>2023-06-10T08:33:39.000Z</time>
      </trkpt>
      <trkpt lat="45.8345" lon="4.76517">
        <ele>351.405</ele>
        <time>2023-06-10T08:33:40.000Z</time>
      </trkpt>
      <trkpt lat="45.83452" lon="4.76525">
        <ele>351.52213</ele>
        <time>2023-06-10T08:33:41.000Z</time>
      </trkpt>
      <trkpt lat="45.83455" lon="4.76532">
        <ele>351.67984</ele>
        <time>2023-06-10T08:33:42.000Z</time>
      </trkpt>
      <trkpt lat="45.83459" lon="4.76537">
        <ele>351.82721</ele>
        <time>2023-06-10T08:33:43.000Z</time>
      </trkpt>
      <trkpt lat="45.83462" lon="4.76542">
        <ele>352.10764</ele>
        <time>2023-06-10T08:33:44.000Z</time>
      </trkpt>
      <trkpt lat="45.83465" lon="4.76546">
        <ele>352.06195</ele>
        <time>2023-06-10T08:33:45.000Z</time>
      </trkpt>
      <trkpt lat="45.83469" lon="4.76551">
        <ele>352.17432</ele>
        <time>2023-06-10T08:33:46.000Z</time>
      </trkpt>
      <trkpt lat="45.83473" lon="4.76555">
        <ele>352.26315</ele>
        <time>2023-06-10T08:33:47.000Z</time>
      </trkpt>
      <trkpt lat="45.83476" lon="4.76558">
        <ele>352.39334</ele>
        <time>2023-06-10T08:33:48.000Z</time>
      </trkpt>
      <trkpt lat="45.8348" lon="4.76563">
        <ele>352.53638</ele>
        <time>2023-06-10T08:33:49.000Z</time>
      </trkpt>
      <trkpt lat="45.83484" lon="4.76567">
        <ele>352.6767</ele>
        <time>2023-06-10T08:33:50.000Z</time>
      </trkpt>
      <trkpt lat="45.83487" lon="4.76572">
        <ele>352.85309</ele>
        <time>2023-06-10T08:33:51.000Z</time>
      </trkpt>
      <trkpt lat="45.8349" lon="4.76576">
        <ele>353.04733</ele>
        <time>2023-06-10T08:33:52.000Z</time>
      </trkpt>
      <trkpt lat="45.83494" lon="4.76582">
        <ele>353.23386</ele>
        <time>2023-06-10T08:33:53.000Z</time>
      </trkpt>
      <trkpt lat="45.83497" lon="4.76587">
        <ele>353.43204</ele>
        <time>2023-06-10T08:33:54.000Z</time>
      </trkpt>
      <trkpt lat="45.835" lon="4.76592">
        <ele>353.63196</ele>
        <time>2023-06-10T08:33:55.000Z</time>
      </trkpt>
      <trkpt lat="45.83503" lon="4.76598">
        <ele>353.56451</ele>
        <time>2023-06-10T08:33:56.000Z</time>
      </trkpt>
      <trkpt lat="45.83506" lon="4.76602">
        <ele>353.87509</ele>
        <time>2023-06-10T08:33:57.000Z</time>
      </trkpt>
      <trkpt lat="45.83508" lon="4.76608">
        <ele>354.22861</ele>
        <time>2023-06-10T08:33:58.000Z</time>
      </trkpt>
      <trkpt lat="45.83509" lon="4.76613">
        <ele>354.52536</ele>
        <time>2023-06-10T08:33:59.000Z</time>
      </trkpt>
      <trkpt lat="45.83511" lon="4.7662">
        <ele>354.79056</ele>
        <time>2023-06-10T08:34:00.000Z</time>
      </trkpt>
      <trkpt lat="45.83513" lon="4.76626">
        <ele>355.06076</ele>
        <time>2023-06-10T08:34:01.000Z</time>
      </trkpt>
      <trkpt lat="45.83516" lon="4.76631">
        <ele>355.28156</ele>
        <time>2023-06-10T08:34:02.000Z</time>
      </trkpt>
      <trkpt lat="45.83518" lon="4.76637">
        <ele>355.54413</ele>
        <time>2023-06-10T08:34:03.000Z</time>
      </trkpt>
      <trkpt lat="45.8352" lon="4.76643">
        <ele>355.81122</ele>
        <time>2023-06-10T08:34:04.000Z</time>
      </trkpt>
      <trkpt lat="45.83523" lon="4.76649">
        <ele>356.09802</ele>
        <time>2023-06-10T08:34:05.000Z</time>
      </trkpt>
      <trkpt lat="45.83525" lon="4.76655">
        <ele>356.34436</ele>
        <time>2023-06-10T08:34:06.000Z</time>
      </trkpt>
      <trkpt lat="45.83526" lon="4.76658">
        <ele>356.57248</ele>
        <time>2023-06-10T08:34:07.000Z</time>
      </trkpt>
      <trkpt lat="45.83528" lon="4.76664">
        <ele>356.77765</ele>
        <time>2023-06-10T08:34:08.000Z</time>
      </trkpt>
      <trkpt lat="45.83531" lon="4.76669">
        <ele>356.9483</ele>
        <time>2023-06-10T08:34:09.000Z</time>
      </trkpt>
      <trkpt lat="45.83534" lon="4.76674">
        <ele>357.15536</ele>
        <time>2023-06-10T08:34:10.000Z</time>
      </trkpt>
      <trkpt lat="45.83537" lon="4.76679">
        <ele>357.17068</ele>
        <time>2023-06-10T08:34:11.000Z</time>
      </trkpt>
      <trkpt lat="45.8354" lon="4.76684">
        <ele>357.22284</ele>
        <time>2023-06-10T08:34:12.000Z</time>
      </trkpt>
      <trkpt lat="45.83544" lon="4.7669">
        <ele>357.15045</ele>
        <time>2023-06-10T08:34:13.000Z</time>
      </trkpt>
      <trkpt lat="45.83548" lon="4.76695">
        <ele>357.06732</ele>
        <time>2023-06-10T08:34:14.000Z</time>
      </trkpt>
      <trkpt lat="45.83552" lon="4.76699">
        <ele>357.43842</ele>
        <time>2023-06-10T08:34:15.000Z</time>
      </trkpt>
      <trkpt lat="45.83556" lon="4.76703">
        <ele>358.03537</ele>
        <time>2023-06-10T08:34:16.000Z</time>
      </trkpt>
      <trkpt lat="45.8356" lon="4.76706">
        <ele>358.23969</ele>
        <time>2023-06-10T08:34:17.000Z</time>
      </trkpt>
      <trkpt lat="45.83565" lon="4.76709">
        <ele>358.44141</ele>
        <time>2023-06-10T08:34:18.000Z</time>
      </trkpt>
      <trkpt lat="45.83569" lon="4.76712">
        <ele>358.60278</ele>
        <time>2023-06-10T08:34:19.000Z</time>
      </trkpt>
      <trkpt lat="45.83573" lon="4.76715">
        <ele>358.83633</ele>
        <time>2023-06-10T08:34:20.000Z</time>
      </trkpt>
      <trkpt lat="45.83577" lon="4.76718">
        <ele>359.07025</ele>
        <time>2023-06-10T08:34:21.000Z</time>
      </trkpt>
      <trkpt lat="45.83581" lon="4.76721">
        <ele>359.36215</ele>
        <time>2023-06-10T08:34:22.000Z</time>
      </trkpt>
      <trkpt lat="45.83586" lon="4.76724">
        <ele>359.62762</ele>
        <time>2023-06-10T08:34:23.000Z</time>
      </trkpt>
      <trkpt lat="45.8359" lon="4.76726">
        <ele>359.68869</ele>
        <time>2023-06-10T08:34:24.000Z</time>
      </trkpt>
      <trkpt lat="45.83595" lon="4.76727">
        <ele>359.58722</ele>
        <time>2023-06-10T08:34:25.000Z</time>
      </trkpt>
      <trkpt lat="45.836" lon="4.7673">
        <ele>359.48337</ele>
        <time>2023-06-10T08:34:26.000Z</time>
      </trkpt>
      <trkpt lat="45.83603" lon="4.76733">
        <ele>359.80756</ele>
        <time>2023-06-10T08:34:27.000Z</time>
      </trkpt>
      <trkpt lat="45.83608" lon="4.76735">
        <ele>360.05878</ele>
        <time>2023-06-10T08:34:28.000Z</time>
      </trkpt>
      <trkpt lat="45.83612" lon="4.76736">
        <ele>360.28302</ele>
        <time>2023-06-10T08:34:29.000Z</time>
      </trkpt>
      <trkpt lat="45.83615" lon="4.76738">
        <ele>360.50113</ele>
        <time>2023-06-10T08:34:30.000Z</time>
      </trkpt>
      <trkpt lat="45.83618" lon="4.76741">
        <ele>360.89923</ele>
        <time>2023-06-10T08:34:31.000Z</time>
      </trkpt>
      <trkpt lat="45.83622" lon="4.76744">
        <ele>361.27899</ele>
        <time>2023-06-10T08:34:32.000Z</time>
      </trkpt>
      <trkpt lat="45.83626" lon="4.76748">
        <ele>361.77472</ele>
        <time>2023-06-10T08:34:33.000Z</time>
      </trkpt>
      <trkpt lat="45.83629" lon="4.76752">
        <ele>362.28827</ele>
        <time>2023-06-10T08:34:34.000Z</time>
      </trkpt>
      <trkpt lat="45.83633" lon="4.76756">
        <ele>362.35034</ele>
        <time>2023-06-10T08:34:35.000Z</time>
      </trkpt>
      <trkpt lat="45.83636" lon="4.7676">
        <ele>362.49377</ele>
        <time>2023-06-10T08:34:36.000Z</time>
      </trkpt>
      <trkpt lat="45.83639" lon="4.76765">
        <ele>362.66052</ele>
        <time>2023-06-10T08:34:37.000Z</time>
      </trkpt>
      <trkpt lat="45.83642" lon="4.7677">
        <ele>362.79327</ele>
        <time>2023-06-10T08:34:38.000Z</time>
      </trkpt>
      <trkpt lat="45.83645" lon="4.76776">
        <ele>362.93878</ele>
        <time>2023-06-10T08:34:39.000Z</time>
      </trkpt>
      <trkpt lat="45.83648" lon="4.76782">
        <ele>363.08685</ele>
        <time>2023-06-10T08:34:40.000Z</time>
      </trkpt>
      <trkpt lat="45.83651" lon="4.76788">
        <ele>363.24249</ele>
        <time>2023-06-10T08:34:41.000Z</time>
      </trkpt>
      <trkpt lat="45.83654" lon="4.76793">
        <ele>363.1723</ele>
        <time>2023-06-10T08:34:42.000Z</time>
      </trkpt>
      <trkpt lat="45.83656" lon="4.768">
        <ele>362.91525</ele>
        <time>2023-06-10T08:34:43.000Z</time>
      </trkpt>
      <trkpt lat="45.83659" lon="4.76805">
        <ele>363.33701</ele>
        <time>2023-06-10T08:34:44.000Z</time>
      </trkpt>
      <trkpt lat="45.83661" lon="4.7681">
        <ele>363.80939</ele>
        <time>2023-06-10T08:34:45.000Z</time>
      </trkpt>
      <trkpt lat="45.83663" lon="4.76816">
        <ele>364.28601</ele>
        <time>2023-06-10T08:34:46.000Z</time>
      </trkpt>
      <trkpt lat="45.83666" lon="4.76821">
        <ele>364.35406</ele>
        <time>2023-06-10T08:34:47.000Z</time>
      </trkpt>
      <trkpt lat="45.83668" lon="4.76828">
        <ele>364.521</ele>
        <time>2023-06-10T08:34:48.000Z</time>
      </trkpt>
      <trkpt lat="45.8367" lon="4.76835">
        <ele>364.72043</ele>
        <time>2023-06-10T08:34:49.000Z</time>
      </trkpt>
      <trkpt lat="45.83673" lon="4.76841">
        <ele>364.90161</ele>
        <time>2023-06-10T08:34:50.000Z</time>
      </trkpt>
      <trkpt lat="45.83675" lon="4.76848">
        <ele>365.09262</ele>
        <time>2023-06-10T08:34:51.000Z</time>
      </trkpt>
      <trkpt lat="45.83678" lon="4.76854">
        <ele>365.27667</ele>
        <time>2023-06-10T08:34:52.000Z</time>
      </trkpt>
      <trkpt lat="45.83681" lon="4.76861">
        <ele>365.23871</ele>
        <time>2023-06-10T08:34:53.000Z</time>
      </trkpt>
      <trkpt lat="45.83684" lon="4.76867">
        <ele>365.18814</ele>
        <time>2023-06-10T08:34:54.000Z</time>
      </trkpt>
      <trkpt lat="45.83687" lon="4.76872">
        <ele>364.95508</ele>
        <time>2023-06-10T08:34:55.000Z</time>
      </trkpt>
      <trkpt lat="45.8369" lon="4.76878">
        <ele>364.70328</ele>
        <time>2023-06-10T08:34:56.000Z</time>
      </trkpt>
      <trkpt lat="45.83693" lon="4.76885">
        <ele>364.94803</ele>
        <time>2023-06-10T08:34:57.000Z</time>
      </trkpt>
      <trkpt lat="45.83695" lon="4.76892">
        <ele>365.12225</ele>
        <time>2023-06-10T08:34:58.000Z</time>
      </trkpt>
      <trkpt lat="45.83697" lon="4.76898">
        <ele>365.32721</ele>
        <time>2023-06-10T08:34:59.000Z</time>
      </trkpt>
      <trkpt lat="45.837" lon="4.76904">
        <ele>365.5448</ele>
        <time>2023-06-10T08:35:00.000Z</time>
      </trkpt>
      <trkpt lat="45.83703" lon="4.7691">
        <ele>365.72296</ele>
        <time>2023-06-10T08:35:01.000Z</time>
      </trkpt>
      <trkpt lat="45.83705" lon="4.76916">
        <ele>366.12836</ele>
        <time>2023-06-10T08:35:02.000Z</time>
      </trkpt>
      <trkpt lat="45.83708" lon="4.76923">
        <ele>366.73138</ele>
        <time>2023-06-10T08:35:03.000Z</time>
      </trkpt>
      <trkpt lat="45.8371" lon="4.76929">
        <ele>366.8605</ele>
        <time>2023-06-10T08:35:04.000Z</time>
      </trkpt>
      <trkpt lat="45.83713" lon="4.76935">
        <ele>367.09073</ele>
        <time>2023-06-10T08:35:05.000Z</time>
      </trkpt>
      <trkpt lat="45.83716" lon="4.76941">
        <ele>367.31512</ele>
        <time>2023-06-10T08:35:06.000Z</time>
      </trkpt>
      <trkpt lat="45.83717" lon="4.76948">
        <ele>367.5282</ele>
        <time>2023-06-10T08:35:07.000Z</time>
      </trkpt>
      <trkpt lat="45.8372" lon="4.76954">
        <ele>367.71631</ele>
        <time>2023-06-10T08:35:08.000Z</time>
      </trkpt>
      <trkpt lat="45.83722" lon="4.76961">
        <ele>367.94354</ele>
        <time>2023-06-10T08:35:09.000Z</time>
      </trkpt>
      <trkpt lat="45.83724" lon="4.76967">
        <ele>368.16577</ele>
        <time>2023-06-10T08:35:10.000Z</time>
      </trkpt>
      <trkpt lat="45.83726" lon="4.76973">
        <ele>368.42035</ele>
        <time>2023-06-10T08:35:11.000Z</time>
      </trkpt>
      <trkpt lat="45.83728" lon="4.76979">
        <ele>368.69461</ele>
        <time>2023-06-10T08:35:12.000Z</time>
      </trkpt>
      <trkpt lat="45.8373" lon="4.76984">
        <ele>368.92462</ele>
        <time>2023-06-10T08:35:13.000Z</time>
      </trkpt>
      <trkpt lat="45.83732" lon="4.7699">
        <ele>369.14169</ele>
        <time>2023-06-10T08:35:14.000Z</time>
      </trkpt>
      <trkpt lat="45.83734" lon="4.76997">
        <ele>369.34314</ele>
        <time>2023-06-10T08:35:15.000Z</time>
      </trkpt>
      <trkpt lat="45.83736" lon="4.77003">
        <ele>369.55109</ele>
        <time>2023-06-10T08:35:16.000Z</time>
      </trkpt>
      <trkpt lat="45.83738" lon="4.77009">
        <ele>369.83688</ele>
        <time>2023-06-10T08:35:17.000Z</time>
      </trkpt>
      <trkpt lat="45.8374" lon="4.77014">
        <ele>370.1015</ele>
        <time>2023-06-10T08:35:18.000Z</time>
      </trkpt>
      <trkpt lat="45.83741" lon="4.77018">
        <ele>370.35846</ele>
        <time>2023-06-10T08:35:19.000Z</time>
      </trkpt>
      <trkpt lat="45.83742" lon="4.77022">
        <ele>370.54453</ele>
        <time>2023-06-10T08:35:20.000Z</time>
      </trkpt>
      <trkpt lat="45.83744" lon="4.77026">
        <ele>370.76984</ele>
        <time>2023-06-10T08:35:21.000Z</time>
      </trkpt>
      <trkpt lat="45.83745" lon="4.77031">
        <ele>371.00388</ele>
        <time>2023-06-10T08:35:22.000Z</time>
      </trkpt>
      <trkpt lat="45.83747" lon="4.77036">
        <ele>371.24664</ele>
        <time>2023-06-10T08:35:23.000Z</time>
      </trkpt>
      <trkpt lat="45.83747" lon="4.7704">
        <ele>371.04376</ele>
        <time>2023-06-10T08:35:24.000Z</time>
      </trkpt>
      <trkpt lat="45.83747" lon="4.77046">
        <ele>370.75858</ele>
        <time>2023-06-10T08:35:25.000Z</time>
      </trkpt>
      <trkpt lat="45.83749" lon="4.77053">
        <ele>370.49503</ele>
        <time>2023-06-10T08:35:26.000Z</time>
      </trkpt>
      <trkpt lat="45.8375" lon="4.77059">
        <ele>370.84113</ele>
        <time>2023-06-10T08:35:27.000Z</time>
      </trkpt>
      <trkpt lat="45.83751" lon="4.77066">
        <ele>371.08466</ele>
        <time>2023-06-10T08:35:28.000Z</time>
      </trkpt>
      <trkpt lat="45.83753" lon="4.77072">
        <ele>371.29736</ele>
        <time>2023-06-10T08:35:29.000Z</time>
      </trkpt>
      <trkpt lat="45.83753" lon="4.77079">
        <ele>371.49945</ele>
        <time>2023-06-10T08:35:30.000Z</time>
      </trkpt>
      <trkpt lat="45.83753" lon="4.77084">
        <ele>371.67706</ele>
        <time>2023-06-10T08:35:31.000Z</time>
      </trkpt>
      <trkpt lat="45.83756" lon="4.77091">
        <ele>372.55176</ele>
        <time>2023-06-10T08:35:32.000Z</time>
      </trkpt>
      <trkpt lat="45.83757" lon="4.77097">
        <ele>373.72427</ele>
        <time>2023-06-10T08:35:33.000Z</time>
      </trkpt>
      <trkpt lat="45.83757" lon="4.77103">
        <ele>375.11844</ele>
        <time>2023-06-10T08:35:34.000Z</time>
      </trkpt>
      <trkpt lat="45.83758" lon="4.7711">
        <ele>376.69641</ele>
        <time>2023-06-10T08:35:35.000Z</time>
      </trkpt>
      <trkpt lat="45.83758" lon="4.77117">
        <ele>378.29169</ele>
        <time>2023-06-10T08:35:36.000Z</time>
      </trkpt>
      <trkpt lat="45.83759" lon="4.77123">
        <ele>379.29877</ele>
        <time>2023-06-10T08:35:37.000Z</time>
      </trkpt>
      <trkpt lat="45.83759" lon="4.77129">
        <ele>380.42252</ele>
        <time>2023-06-10T08:35:38.000Z</time>
      </trkpt>
      <trkpt lat="45.8376" lon="4.77135">
        <ele>381.57977</ele>
        <time>2023-06-10T08:35:39.000Z</time>
      </trkpt>
      <trkpt lat="45.83759" lon="4.77142">
        <ele>382.77982</ele>
        <time>2023-06-10T08:35:40.000Z</time>
      </trkpt>
      <trkpt lat="45.83759" lon="4.77147">
        <ele>384.09592</ele>
        <time>2023-06-10T08:35:41.000Z</time>
      </trkpt>
      <trkpt lat="45.8376" lon="4.77152">
        <ele>385.41022</ele>
        <time>2023-06-10T08:35:42.000Z</time>
      </trkpt>
      <trkpt lat="45.83761" lon="4.77156">
        <ele>386.81174</ele>
        <time>2023-06-10T08:35:43.000Z</time>
      </trkpt>
      <trkpt lat="45.83761" lon="4.7716">
        <ele>388.25385</ele>
        <time>2023-06-10T08:35:44.000Z</time>
      </trkpt>
      <trkpt lat="45.83761" lon="4.77166">
        <ele>389.84442</ele>
        <time>2023-06-10T08:35:45.000Z</time>
      </trkpt>
      <trkpt lat="45.83763" lon="4.7717">
        <ele>391.44785</ele>
        <time>2023-06-10T08:35:46.000Z</time>
      </trkpt>
      <trkpt lat="45.83765" lon="4.77175">
        <ele>392.45755</ele>
        <time>2023-06-10T08:35:47.000Z</time>
      </trkpt>
      <trkpt lat="45.83766" lon="4.77179">
        <ele>393.59189</ele>
        <time>2023-06-10T08:35:48.000Z</time>
      </trkpt>
      <trkpt lat="45.83767" lon="4.77184">
        <ele>394.73758</ele>
        <time>2023-06-10T08:35:49.000Z</time>
      </trkpt>
      <trkpt lat="45.83767" lon="4.77189">
        <ele>396.23029</ele>
        <time>2023-06-10T08:35:50.000Z</time>
      </trkpt>
      <trkpt lat="45.83767" lon="4.77194">
        <ele>397.7215</ele>
        <time>2023-06-10T08:35:51.000Z</time>
      </trkpt>
      <trkpt lat="45.83767" lon="4.77199">
        <ele>398.48346</ele>
        <time>2023-06-10T08:35:52.000Z</time>
      </trkpt>
      <trkpt lat="45.83767" lon="4.77204">
        <ele>399.25824</ele>
        <time>2023-06-10T08:35:53.000Z</time>
      </trkpt>
      <trkpt lat="45.83767" lon="4.77209">
        <ele>399.84131</ele>
        <time>2023-06-10T08:35:54.000Z</time>
      </trkpt>
      <trkpt lat="45.83768" lon="4.77215">
        <ele>400.46393</ele>
        <time>2023-06-10T08:35:55.000Z</time>
      </trkpt>
      <trkpt lat="45.8377" lon="4.7722">
        <ele>401.08035</ele>
        <time>2023-06-10T08:35:56.000Z</time>
      </trkpt>
      <trkpt lat="45.83771" lon="4.77226">
        <ele>401.70035</ele>
        <time>2023-06-10T08:35:57.000Z</time>
      </trkpt>
      <trkpt lat="45.83772" lon="4.77231">
        <ele>402.29718</ele>
        <time>2023-06-10T08:35:58.000Z</time>
      </trkpt>
      <trkpt lat="45.83773" lon="4.77236">
        <ele>402.84952</ele>
        <time>2023-06-10T08:35:59.000Z</time>
      </trkpt>
      <trkpt lat="45.83774" lon="4.77242">
        <ele>403.42438</ele>
        <time>2023-06-10T08:36:00.000Z</time>
      </trkpt>
      <trkpt lat="45.83775" lon="4.77247">
        <ele>403.87015</ele>
        <time>2023-06-10T08:36:01.000Z</time>
      </trkpt>
      <trkpt lat="45.83778" lon="4.77252">
        <ele>404.32684</ele>
        <time>2023-06-10T08:36:02.000Z</time>
      </trkpt>
      <trkpt lat="45.83781" lon="4.77258">
        <ele>404.68524</ele>
        <time>2023-06-10T08:36:03.000Z</time>
      </trkpt>
      <trkpt lat="45.83783" lon="4.77264">
        <ele>405.4368</ele>
        <time>2023-06-10T08:36:04.000Z</time>
      </trkpt>
      <trkpt lat="45.83784" lon="4.77269">
        <ele>406.13812</ele>
        <time>2023-06-10T08:36:05.000Z</time>
      </trkpt>
      <trkpt lat="45.83786" lon="4.77273">
        <ele>406.38824</ele>
        <time>2023-06-10T08:36:06.000Z</time>
      </trkpt>
      <trkpt lat="45.83788" lon="4.77278">
        <ele>406.57538</ele>
        <time>2023-06-10T08:36:07.000Z</time>
      </trkpt>
      <trkpt lat="45.8379" lon="4.77282">
        <ele>406.75201</ele>
        <time>2023-06-10T08:36:08.000Z</time>
      </trkpt>
      <trkpt lat="45.83792" lon="4.77287">
        <ele>406.92303</ele>
        <time>2023-06-10T08:36:09.000Z</time>
      </trkpt>
      <trkpt lat="45.83794" lon="4.77291">
        <ele>406.74988</ele>
        <time>2023-06-10T08:36:10.000Z</time>
      </trkpt>
      <trkpt lat="45.83797" lon="4.77296">
        <ele>406.48993</ele>
        <time>2023-06-10T08:36:11.000Z</time>
      </trkpt>
      <trkpt lat="45.83799" lon="4.773">
        <ele>406.25104</ele>
        <time>2023-06-10T08:36:12.000Z</time>
      </trkpt>
      <trkpt lat="45.83801" lon="4.77305">
        <ele>405.94785</ele>
        <time>2023-06-10T08:36:13.000Z</time>
      </trkpt>
      <trkpt lat="45.83803" lon="4.77309">
        <ele>405.98517</ele>
        <time>2023-06-10T08:36:14.000Z</time>
      </trkpt>
      <trkpt lat="45.83805" lon="4.77314">
        <ele>406.25781</ele>
        <time>2023-06-10T08:36:15.000Z</time>
      </trkpt>
      <trkpt lat="45.83808" lon="4.77318">
        <ele>406.51395</ele>
        <time>2023-06-10T08:36:16.000Z</time>
      </trkpt>
      <trkpt lat="45.8381" lon="4.77322">
        <ele>406.78784</ele>
        <time>2023-06-10T08:36:17.000Z</time>
      </trkpt>
      <trkpt lat="45.83812" lon="4.77325">
        <ele>407.07339</ele>
        <time>2023-06-10T08:36:18.000Z</time>
      </trkpt>
      <trkpt lat="45.83815" lon="4.77329">
        <ele>407.52573</ele>
        <time>2023-06-10T08:36:19.000Z</time>
      </trkpt>
      <trkpt lat="45.83816" lon="4.77334">
        <ele>407.96912</ele>
        <time>2023-06-10T08:36:20.000Z</time>
      </trkpt>
      <trkpt lat="45.83817" lon="4.7734">
        <ele>408.38901</ele>
        <time>2023-06-10T08:36:21.000Z</time>
      </trkpt>
      <trkpt lat="45.83816" lon="4.77345">
        <ele>408.84323</ele>
        <time>2023-06-10T08:36:22.000Z</time>
      </trkpt>
      <trkpt lat="45.83815" lon="4.7735">
        <ele>409.29382</ele>
        <time>2023-06-10T08:36:23.000Z</time>
      </trkpt>
      <trkpt lat="45.83812" lon="4.77354">
        <ele>409.67554</ele>
        <time>2023-06-10T08:36:24.000Z</time>
      </trkpt>
      <trkpt lat="45.83808" lon="4.77359">
        <ele>410.04947</ele>
        <time>2023-06-10T08:36:25.000Z</time>
      </trkpt>
      <trkpt lat="45.83805" lon="4.77362">
        <ele>410.9166</ele>
        <time>2023-06-10T08:36:26.000Z</time>
      </trkpt>
      <trkpt lat="45.83802" lon="4.77366">
        <ele>411.84052</ele>
        <time>2023-06-10T08:36:27.000Z</time>
      </trkpt>
      <trkpt lat="45.83798" lon="4.7737">
        <ele>412.74976</ele>
        <time>2023-06-10T08:36:28.000Z</time>
      </trkpt>
      <trkpt lat="45.83794" lon="4.77374">
        <ele>413.6539</ele>
        <time>2023-06-10T08:36:29.000Z</time>
      </trkpt>
      <trkpt lat="45.83791" lon="4.77379">
        <ele>414.54898</ele>
        <time>2023-06-10T08:36:30.000Z</time>
      </trkpt>
      <trkpt lat="45.83787" lon="4.77384">
        <ele>415.51596</ele>
        <time>2023-06-10T08:36:31.000Z</time>
      </trkpt>
      <trkpt lat="45.83784" lon="4.77389">
        <ele>416.46509</ele>
        <time>2023-06-10T08:36:32.000Z</time>
      </trkpt>
      <trkpt lat="45.83781" lon="4.77393">
        <ele>417.41913</ele>
        <time>2023-06-10T08:36:33.000Z</time>
      </trkpt>
      <trkpt lat="45.83778" lon="4.77398">
        <ele>417.90854</ele>
        <time>2023-06-10T08:36:34.000Z</time>
      </trkpt>
      <trkpt lat="45.83775" lon="4.77403">
        <ele>418.13275</ele>
        <time>2023-06-10T08:36:35.000Z</time>
      </trkpt>
      <trkpt lat="45.83772" lon="4.77407">
        <ele>418.41357</ele>
        <time>2023-06-10T08:36:36.000Z</time>
      </trkpt>
      <trkpt lat="45.83769" lon="4.77412">
        <ele>418.67343</ele>
        <time>2023-06-10T08:36:37.000Z</time>
      </trkpt>
      <trkpt lat="45.83766" lon="4.77417">
        <ele>418.94147</ele>
        <time>2023-06-10T08:36:38.000Z</time>
      </trkpt>
      <trkpt lat="45.83763" lon="4.77422">
        <ele>419.02295</ele>
        <time>2023-06-10T08:36:39.000Z</time>
      </trkpt>
      <trkpt lat="45.83761" lon="4.77427">
        <ele>419.09677</ele>
        <time>2023-06-10T08:36:40.000Z</time>
      </trkpt>
      <trkpt lat="45.83757" lon="4.77433">
        <ele>419.17438</ele>
        <time>2023-06-10T08:36:41.000Z</time>
      </trkpt>
      <trkpt lat="45.83755" lon="4.77439">
        <ele>419.18945</ele>
        <time>2023-06-10T08:36:42.000Z</time>
      </trkpt>
      <trkpt lat="45.83755" lon="4.77445">
        <ele>419.21817</ele>
        <time>2023-06-10T08:36:43.000Z</time>
      </trkpt>
      <trkpt lat="45.83754" lon="4.77451">
        <ele>419.31549</ele>
        <time>2023-06-10T08:36:44.000Z</time>
      </trkpt>
      <trkpt lat="45.83754" lon="4.77458">
        <ele>419.42099</ele>
        <time>2023-06-10T08:36:45.000Z</time>
      </trkpt>
      <trkpt lat="45.83755" lon="4.77464">
        <ele>419.46933</ele>
        <time>2023-06-10T08:36:46.000Z</time>
      </trkpt>
      <trkpt lat="45.83755" lon="4.77469">
        <ele>419.55185</ele>
        <time>2023-06-10T08:36:47.000Z</time>
      </trkpt>
      <trkpt lat="45.83756" lon="4.77474">
        <ele>419.61319</ele>
        <time>2023-06-10T08:36:48.000Z</time>
      </trkpt>
      <trkpt lat="45.83756" lon="4.77479">
        <ele>419.6796</ele>
        <time>2023-06-10T08:36:49.000Z</time>
      </trkpt>
      <trkpt lat="45.83757" lon="4.77483">
        <ele>419.75482</ele>
        <time>2023-06-10T08:36:50.000Z</time>
      </trkpt>
      <trkpt lat="45.83758" lon="4.77487">
        <ele>419.83612</ele>
        <time>2023-06-10T08:36:51.000Z</time>
      </trkpt>
      <trkpt lat="45.83759" lon="4.7749">
        <ele>419.92368</ele>
        <time>2023-06-10T08:36:52.000Z</time>
      </trkpt>
      <trkpt lat="45.8376" lon="4.77494">
        <ele>420.03265</ele>
        <time>2023-06-10T08:36:53.000Z</time>
      </trkpt>
      <trkpt lat="45.83761" lon="4.77497">
        <ele>420.25751</ele>
        <time>2023-06-10T08:36:54.000Z</time>
      </trkpt>
      <trkpt lat="45.83761" lon="4.77501">
        <ele>420.48981</ele>
        <time>2023-06-10T08:36:55.000Z</time>
      </trkpt>
      <trkpt lat="45.83761" lon="4.77505">
        <ele>420.67731</ele>
        <time>2023-06-10T08:36:56.000Z</time>
      </trkpt>
      <trkpt lat="45.83761" lon="4.77509">
        <ele>420.88004</ele>
        <time>2023-06-10T08:36:57.000Z</time>
      </trkpt>
      <trkpt lat="45.83761" lon="4.77513">
        <ele>421.03754</ele>
        <time>2023-06-10T08:36:58.000Z</time>
      </trkpt>
      <trkpt lat="45.83762" lon="4.77518">
        <ele>421.20337</ele>
        <time>2023-06-10T08:36:59.000Z</time>
      </trkpt>
      <trkpt lat="45.83763" lon="4.77522">
        <ele>421.37631</ele>
        <time>2023-06-10T08:37:00.000Z</time>
      </trkpt>
      <trkpt lat="45.83763" lon="4.77527">
        <ele>421.53549</ele>
        <time>2023-06-10T08:37:01.000Z</time>
      </trkpt>
      <trkpt lat="45.83763" lon="4.77531">
        <ele>421.65616</ele>
        <time>2023-06-10T08:37:02.000Z</time>
      </trkpt>
      <trkpt lat="45.83763" lon="4.77537">
        <ele>421.73477</ele>
        <time>2023-06-10T08:37:03.000Z</time>
      </trkpt>
      <trkpt lat="45.83763" lon="4.77543">
        <ele>421.78955</ele>
        <time>2023-06-10T08:37:04.000Z</time>
      </trkpt>
      <trkpt lat="45.83764" lon="4.77548">
        <ele>421.83975</ele>
        <time>2023-06-10T08:37:05.000Z</time>
      </trkpt>
      <trkpt lat="45.83764" lon="4.77554">
        <ele>421.87939</ele>
        <time>2023-06-10T08:37:06.000Z</time>
      </trkpt>
      <trkpt lat="45.83764" lon="4.7756">
        <ele>421.88226</ele>
        <time>2023-06-10T08:37:07.000Z</time>
      </trkpt>
      <trkpt lat="45.83764" lon="4.77567">
        <ele>421.90918</ele>
        <time>2023-06-10T08:37:08.000Z</time>
      </trkpt>
      <trkpt lat="45.83765" lon="4.77573">
        <ele>421.94742</ele>
        <time>2023-06-10T08:37:09.000Z</time>
      </trkpt>
      <trkpt lat="45.83764" lon="4.7758">
        <ele>421.98456</ele>
        <time>2023-06-10T08:37:10.000Z</time>
      </trkpt>
      <trkpt lat="45.83764" lon="4.77586">
        <ele>422.00238</ele>
        <time>2023-06-10T08:37:11.000Z</time>
      </trkpt>
      <trkpt lat="45.83764" lon="4.77593">
        <ele>422.01971</ele>
        <time>2023-06-10T08:37:12.000Z</time>
      </trkpt>
      <trkpt lat="45.83764" lon="4.77599">
        <ele>422.04556</ele>
        <time>2023-06-10T08:37:13.000Z</time>
      </trkpt>
      <trkpt lat="45.83765" lon="4.77605">
        <ele>422.02969</ele>
        <time>2023-06-10T08:37:14.000Z</time>
      </trkpt>
      <trkpt lat="45.83764" lon="4.77612">
        <ele>421.9931</ele>
        <time>2023-06-10T08:37:15.000Z</time>
      </trkpt>
      <trkpt lat="45.83765" lon="4.77618">
        <ele>421.95557</ele>
        <time>2023-06-10T08:37:16.000Z</time>
      </trkpt>
      <trkpt lat="45.83764" lon="4.77624">
        <ele>421.90228</ele>
        <time>2023-06-10T08:37:17.000Z</time>
      </trkpt>
      <trkpt lat="45.83764" lon="4.77629">
        <ele>421.85547</ele>
        <time>2023-06-10T08:37:18.000Z</time>
      </trkpt>
      <trkpt lat="45.83764" lon="4.77636">
        <ele>421.83145</ele>
        <time>2023-06-10T08:37:19.000Z</time>
      </trkpt>
      <trkpt lat="45.83764" lon="4.77642">
        <ele>421.7811</ele>
        <time>2023-06-10T08:37:20.000Z</time>
      </trkpt>
      <trkpt lat="45.83764" lon="4.77648">
        <ele>421.73102</ele>
        <time>2023-06-10T08:37:21.000Z</time>
      </trkpt>
      <trkpt lat="45.83764" lon="4.77654">
        <ele>421.69882</ele>
        <time>2023-06-10T08:37:22.000Z</time>
      </trkpt>
      <trkpt lat="45.83764" lon="4.7766">
        <ele>421.65527</ele>
        <time>2023-06-10T08:37:23.000Z</time>
      </trkpt>
      <trkpt lat="45.83764" lon="4.77665">
        <ele>421.60052</ele>
        <time>2023-06-10T08:37:24.000Z</time>
      </trkpt>
      <trkpt lat="45.83764" lon="4.77672">
        <ele>421.53687</ele>
        <time>2023-06-10T08:37:25.000Z</time>
      </trkpt>
      <trkpt lat="45.83765" lon="4.77679">
        <ele>421.5434</ele>
        <time>2023-06-10T08:37:26.000Z</time>
      </trkpt>
      <trkpt lat="45.83765" lon="4.77685">
        <ele>421.53558</ele>
        <time>2023-06-10T08:37:27.000Z</time>
      </trkpt>
      <trkpt lat="45.83765" lon="4.77692">
        <ele>421.52911</ele>
        <time>2023-06-10T08:37:28.000Z</time>
      </trkpt>
      <trkpt lat="45.83766" lon="4.77699">
        <ele>421.48901</ele>
        <time>2023-06-10T08:37:29.000Z</time>
      </trkpt>
      <trkpt lat="45.83765" lon="4.77705">
        <ele>421.46796</ele>
        <time>2023-06-10T08:37:30.000Z</time>
      </trkpt>
      <trkpt lat="45.83766" lon="4.77712">
        <ele>421.47037</ele>
        <time>2023-06-10T08:37:31.000Z</time>
      </trkpt>
      <trkpt lat="45.83767" lon="4.77718">
        <ele>421.4147</ele>
        <time>2023-06-10T08:37:32.000Z</time>
      </trkpt>
      <trkpt lat="45.83768" lon="4.77724">
        <ele>421.36206</ele>
        <time>2023-06-10T08:37:33.000Z</time>
      </trkpt>
      <trkpt lat="45.83768" lon="4.77731">
        <ele>421.29361</ele>
        <time>2023-06-10T08:37:34.000Z</time>
      </trkpt>
      <trkpt lat="45.8377" lon="4.77737">
        <ele>421.22583</ele>
        <time>2023-06-10T08:37:35.000Z</time>
      </trkpt>
      <trkpt lat="45.83771" lon="4.77743">
        <ele>421.3028</ele>
        <time>2023-06-10T08:37:36.000Z</time>
      </trkpt>
      <trkpt lat="45.83773" lon="4.77749">
        <ele>421.38348</ele>
        <time>2023-06-10T08:37:37.000Z</time>
      </trkpt>
      <trkpt lat="45.83773" lon="4.77755">
        <ele>421.4938</ele>
        <time>2023-06-10T08:37:38.000Z</time>
      </trkpt>
      <trkpt lat="45.83775" lon="4.7776">
        <ele>421.58783</ele>
        <time>2023-06-10T08:37:39.000Z</time>
      </trkpt>
      <trkpt lat="45.83775" lon="4.77766">
        <ele>421.69611</ele>
        <time>2023-06-10T08:37:40.000Z</time>
      </trkpt>
      <trkpt lat="45.83777" lon="4.77772">
        <ele>421.77008</ele>
        <time>2023-06-10T08:37:41.000Z</time>
      </trkpt>
      <trkpt lat="45.83778" lon="4.77777">
        <ele>421.87466</ele>
        <time>2023-06-10T08:37:42.000Z</time>
      </trkpt>
      <trkpt lat="45.83778" lon="4.77784">
        <ele>421.95367</ele>
        <time>2023-06-10T08:37:43.000Z</time>
      </trkpt>
      <trkpt lat="45.8378" lon="4.7779">
        <ele>422.02789</ele>
        <time>2023-06-10T08:37:44.000Z</time>
      </trkpt>
      <trkpt lat="45.8378" lon="4.77795">
        <ele>422.14056</ele>
        <time>2023-06-10T08:37:45.000Z</time>
      </trkpt>
      <trkpt lat="45.83783" lon="4.77799">
        <ele>422.16269</ele>
        <time>2023-06-10T08:37:46.000Z</time>
      </trkpt>
      <trkpt lat="45.83784" lon="4.77803">
        <ele>422.17413</ele>
        <time>2023-06-10T08:37:47.000Z</time>
      </trkpt>
      <trkpt lat="45.83785" lon="4.77808">
        <ele>422.17563</ele>
        <time>2023-06-10T08:37:48.000Z</time>
      </trkpt>
      <trkpt lat="45.83785" lon="4.77812">
        <ele>422.19278</ele>
        <time>2023-06-10T08:37:49.000Z</time>
      </trkpt>
      <trkpt lat="45.83785" lon="4.77816">
        <ele>422.19254</ele>
        <time>2023-06-10T08:37:50.000Z</time>
      </trkpt>
      <trkpt lat="45.83786" lon="4.7782">
        <ele>422.17841</ele>
        <time>2023-06-10T08:37:51.000Z</time>
      </trkpt>
      <trkpt lat="45.83786" lon="4.77823">
        <ele>422.1185</ele>
        <time>2023-06-10T08:37:52.000Z</time>
      </trkpt>
      <trkpt lat="45.83785" lon="4.77826">
        <ele>422.01031</ele>
        <time>2023-06-10T08:37:53.000Z</time>
      </trkpt>
      <trkpt lat="45.83785" lon="4.77831">
        <ele>421.95761</ele>
        <time>2023-06-10T08:37:54.000Z</time>
      </trkpt>
      <trkpt lat="45.83785" lon="4.77835">
        <ele>421.92853</ele>
        <time>2023-06-10T08:37:55.000Z</time>
      </trkpt>
      <trkpt lat="45.83785" lon="4.77839">
        <ele>421.75513</ele>
        <time>2023-06-10T08:37:56.000Z</time>
      </trkpt>
      <trkpt lat="45.83787" lon="4.77841">
        <ele>421.58221</ele>
        <time>2023-06-10T08:37:57.000Z</time>
      </trkpt>
      <trkpt lat="45.8379" lon="4.77841">
        <ele>421.41486</ele>
        <time>2023-06-10T08:37:58.000Z</time>
      </trkpt>
      <trkpt lat="45.83792" lon="4.7784">
        <ele>421.28287</ele>
        <time>2023-06-10T08:37:59.000Z</time>
      </trkpt>
      <trkpt lat="45.83794" lon="4.77837">
        <ele>421.15338</ele>
        <time>2023-06-10T08:38:01.000Z</time>
      </trkpt>
    </trkseg>
  </trk>
</gpx>